[[{"header":{"parameterUnit":"m.s-1","parameterCategory":1,"la1":30.6,"la2":29.2853,"lo1":-89.7004,"lo2":-87.6739,"dy":0.0162,"dx":0.0183,"nx":112,"ny":82,"refTime":"2024-06-24T00:00:00:Z","depth":0,"parameterNumber":2,"parameterNumberName":"U-component_of_WINDS"},"data":[0.0,0.0,0.0,0.0,0.0,0.0,0.0,0.0,0.0,0.0,0.0,0.0,0.0,0.0,0.0,0.0,0.0,0.0,0.0,0.0,0.0,0.0,0.0,0.0,0.0,0.0,0.0,0.0,0.0,0.0,0.0,0.0,0.0,0.0,0.0,0.0,0.0,0.0,0.0,0.0,0.0,0.0,0.0,0.0,0.0,0.0,0.0,0.0,0.0,0.0,0.0,0.0,0.0,0.0,0.0,0.0,0.0,0.0,0.0,0.0,0.0,0.0,0.0,0.0,0.0,0.0,0.0,0.0,0.0,0.0,0.0,0.0,0.0,0.0,0.0,0.0,0.0,0.0,0.0,0.0,0.0,0.0,0.0,0.0,0.0,0.0,0.0,0.0,0.0,0.0,-0.7928,-1.3754,-1.9155,-2.182,-2.0423,-1.9194,-1.6784,-1.2797,0.0,0.0,0.0,0.0,0.0,0.0,0.0,0.0,0.0,0.0,0.0,0.0,0.0,0.0,0.0,0.0,0.0,0.0,0.0,0.0,0.0,0.0,0.0,0.0,0.0,0.0,0.0,0.0,0.0,0.0,0.0,0.0,0.0,0.0,0.0,0.0,0.0,0.0,0.0,0.0,0.0,0.0,0.0,0.0,0.0,0.0,0.0,0.0,0.0,0.0,0.0,0.0,0.0,0.0,0.0,0.0,0.0,0.0,0.0,0.0,0.0,0.0,0.0,0.0,0.0,0.0,0.0,0.0,0.0,0.0,0.0,0.0,0.0,0.0,0.0,0.0,0.0,0.0,0.0,0.0,0.0,0.0,0.0,0.0,0.0,0.0,0.0,0.0,0.0,0.0,0.0,0.0,0.0,0.0,0.0,0.0,0.0,0.0,0.0,0.0,0.0,0.0,0.0,0.0,-1.0113,-1.9091,-2.1603,-2.2169,-2.0959,-1.9436,-1.6942,-1.3295,0.0,0.0,0.0,0.0,0.0,0.0,0.0,0.0,0.0,0.0,0.0,0.0,0.0,0.0,0.0,0.0,0.0,0.0,0.0,0.0,0.0,0.0,0.0,0.0,0.0,0.0,0.0,0.0,0.0,0.0,0.0,0.0,0.0,0.0,0.0,0.0,0.0,0.0,0.0,0.0,0.0,0.0,0.0,0.0,0.0,0.0,0.0,0.0,0.0,0.0,0.0,0.0,0.0,0.0,0.0,0.0,0.0,0.0,0.0,0.0,0.0,0.0,0.0,0.0,0.0,0.0,0.0,0.0,0.0,0.0,0.0,0.0,0.0,0.0,0.0,0.0,0.0,0.0,0.0,0.0,0.0,0.0,0.0,0.0,0.0,0.0,0.0,0.0,0.0,0.0,0.0,0.0,0.0,0.0,0.0,0.0,0.0,0.0,0.0,0.0,0.0,0.0,0.0,-1.1863,-1.6752,-2.163,-2.2581,-2.2435,-2.1348,-1.9863,-1.7479,-1.4027,-1.1463,0.0,0.0,0.0,0.0,0.0,0.0,0.0,0.0,0.0,0.0,0.0,0.0,0.0,0.0,0.0,0.0,0.0,0.0,0.0,0.0,0.0,0.0,0.0,0.0,0.0,0.0,0.0,0.0,0.0,0.0,0.0,0.0,0.0,0.0,0.0,0.0,0.0,0.0,0.0,0.0,0.0,0.0,0.0,0.0,0.0,0.0,0.0,0.0,0.0,0.0,0.0,0.0,0.0,0.0,0.0,0.0,0.0,0.0,0.0,0.0,0.0,0.0,0.0,0.0,0.0,0.0,0.0,0.0,0.0,0.0,0.0,0.0,0.0,0.0,0.0,0.0,0.0,0.0,0.0,0.0,0.0,0.0,0.0,0.0,0.0,0.0,0.0,0.0,0.0,0.0,0.0,0.0,0.0,0.0,0.0,0.0,0.0,0.0,0.0,0.0,0.0,0.0,-1.8341,-2.2487,-2.3123,-2.3142,-2.2698,-2.1599,-2.0213,-1.7935,-1.4505,-1.3223,0.0,0.0,0.0,0.0,0.0,0.0,0.0,0.0,0.0,0.0,0.0,0.0,0.0,0.0,0.0,0.0,0.0,0.0,0.0,0.0,0.0,0.0,0.0,0.0,0.0,0.0,0.0,0.0,0.0,0.0,0.0,0.0,0.0,0.0,0.0,0.0,0.0,0.0,0.0,0.0,0.0,0.0,0.0,0.0,0.0,0.0,0.0,0.0,0.0,0.0,0.0,0.0,0.0,0.0,0.0,0.0,0.0,0.0,0.0,0.0,0.0,0.0,0.0,0.0,0.0,0.0,0.0,0.0,0.0,0.0,0.0,0.0,0.0,0.0,0.0,0.0,0.0,0.0,0.0,0.0,0.0,0.0,0.0,0.0,0.0,0.0,0.0,0.0,0.0,0.0,0.0,0.0,0.0,0.0,0.0,0.0,0.0,0.0,0.0,0.0,0.0,0.0,-1.9311,-2.4094,-2.4018,-2.3689,-2.2947,-2.1599,-2.0213,-1.7935,-1.4505,-1.3263,0.0,0.0,0.0,0.0,0.0,0.0,0.0,0.0,0.0,0.0,0.0,0.0,0.0,0.0,0.0,0.0,0.0,0.0,0.0,0.0,0.0,0.0,0.0,0.0,0.0,0.0,0.0,0.0,0.0,0.0,0.0,0.0,0.0,0.0,0.0,0.0,0.0,0.0,0.0,0.0,0.0,0.0,0.0,0.0,0.0,0.0,0.0,0.0,0.0,0.0,0.0,0.0,0.0,0.0,0.0,0.0,0.0,0.0,0.0,0.0,0.0,0.0,0.0,0.0,0.0,0.0,0.0,0.0,0.0,0.0,0.0,0.0,0.0,0.0,0.0,0.0,0.0,0.0,0.0,0.0,0.0,0.0,0.0,0.0,0.0,0.0,0.0,0.0,0.0,0.0,0.0,0.0,0.0,0.0,0.0,0.0,0.0,0.0,0.0,0.0,0.0,0.0,-2.1655,-2.4356,-2.452,-2.3915,-2.3023,-2.186,-2.0332,-1.7935,-1.4505,0.0,0.0,0.0,0.0,0.0,0.0,0.0,0.0,0.0,0.0,0.0,0.0,0.0,0.0,0.0,0.0,0.0,0.0,0.0,0.0,0.0,0.0,0.0,0.0,0.0,0.0,0.0,0.0,0.0,0.0,0.0,0.0,0.0,0.0,0.0,0.0,0.0,0.0,0.0,0.0,0.0,0.0,0.0,0.0,0.0,0.0,0.0,0.0,0.0,0.0,0.0,0.0,0.0,0.0,0.0,0.0,0.0,0.0,0.0,0.0,0.0,0.0,0.0,0.0,0.0,0.0,0.0,0.0,0.0,0.0,0.0,0.0,0.0,0.0,0.0,0.0,0.0,0.0,0.0,0.0,0.0,0.0,0.0,0.0,0.0,0.0,0.0,0.0,0.0,0.0,0.0,0.0,0.0,0.0,0.0,0.0,0.0,0.0,0.0,0.0,0.0,0.0,-1.8548,-2.2442,-2.4504,-2.4657,-2.3971,-2.3023,-2.1872,-2.0316,-1.804,-1.4836,0.0,0.0,0.0,0.0,0.0,0.0,0.0,0.0,0.0,0.0,0.0,0.0,0.0,0.0,0.0,0.0,0.0,0.0,0.0,0.0,0.0,0.0,0.0,0.0,0.0,0.0,0.0,0.0,0.0,0.0,0.0,0.0,0.0,0.0,0.0,0.0,0.0,0.0,0.0,0.0,0.0,0.0,0.0,0.0,0.0,0.0,0.0,0.0,0.0,0.0,0.0,0.0,0.0,0.0,0.0,0.0,0.0,0.0,0.0,0.0,0.0,0.0,0.0,0.0,0.0,0.0,0.0,0.0,0.0,0.0,0.0,0.0,0.0,0.0,0.0,0.0,0.0,0.0,0.0,0.0,0.0,0.0,0.0,0.0,0.0,0.0,0.0,0.0,0.0,0.0,0.0,0.0,0.0,0.0,0.0,0.0,0.0,0.0,0.0,0.0,0.0,0.0,-1.5403,-2.1194,-2.4676,-2.4412,-2.3861,-2.2947,-2.1599,-2.0213,-1.821,0.0,0.0,0.0,0.0,0.0,0.0,0.0,0.0,0.0,0.0,0.0,0.0,0.0,0.0,0.0,0.0,0.0,0.0,0.0,0.0,0.0,0.0,0.0,0.0,0.0,0.0,0.0,0.0,0.0,0.0,0.0,0.0,0.0,0.0,0.0,0.0,0.0,0.0,0.0,0.0,0.0,0.0,0.0,0.0,0.0,0.0,0.0,0.0,0.0,0.0,0.0,0.0,0.0,0.0,0.0,0.0,0.0,0.0,0.0,0.0,0.0,0.0,0.0,0.0,0.0,0.0,0.0,0.0,0.0,0.0,0.0,0.0,0.0,0.0,0.0,0.0,0.0,0.0,0.0,0.0,0.0,0.0,0.0,0.0,0.0,0.0,0.0,0.0,0.0,0.0,0.0,0.0,0.0,0.0,0.0,0.0,0.0,0.0,0.0,0.0,0.0,0.0,0.0,-1.6544,-2.1157,-2.3803,-2.3638,-2.297,-2.1955,-2.0559,-1.9527,-1.7765,-1.4898,0.0,0.0,0.0,0.0,0.0,0.0,0.0,0.0,0.0,0.0,0.0,0.0,0.0,0.0,0.0,0.0,0.0,0.0,0.0,0.0,0.0,0.0,0.0,0.0,0.0,0.0,0.0,0.0,0.0,0.0,0.0,0.0,0.0,0.0,0.0,0.0,0.0,0.0,0.0,0.0,0.0,0.0,0.0,0.0,0.0,0.0,0.0,0.0,0.0,0.0,0.0,0.0,0.0,0.0,0.0,0.0,0.0,0.0,0.0,0.0,0.0,0.0,0.0,0.0,0.0,0.0,0.0,0.0,0.0,0.0,0.0,0.0,0.0,0.0,0.0,0.0,0.0,0.0,0.0,0.0,0.0,0.0,0.0,0.0,0.0,0.0,0.0,0.0,0.0,0.0,0.0,0.0,0.0,0.0,0.0,0.0,0.0,0.0,0.0,0.0,0.0,0.0,-1.6752,-2.0672,-2.2876,-2.2944,-2.2105,-2.1095,-1.9943,-1.8788,-1.7209,-1.5024,0.0,0.0,0.0,0.0,0.0,0.0,0.0,0.0,0.0,0.0,0.0,0.0,0.0,0.0,0.0,0.0,0.0,0.0,0.0,0.0,0.0,0.0,0.0,0.0,0.0,0.0,0.0,0.0,0.0,0.0,0.0,0.0,0.0,0.0,0.0,0.0,0.0,0.0,0.0,0.0,0.0,0.0,0.0,0.0,0.0,0.0,0.0,0.0,0.0,0.0,0.0,0.0,0.0,0.0,0.0,0.0,0.0,0.0,0.0,0.0,0.0,0.0,0.0,0.0,0.0,0.0,0.0,0.0,0.0,0.0,0.0,0.0,0.0,0.0,0.0,0.0,0.0,0.0,0.0,0.0,0.0,0.0,0.0,0.0,0.0,0.0,0.0,0.0,0.0,0.0,0.0,0.0,0.0,0.0,0.0,0.0,0.0,0.0,0.0,0.0,0.0,0.0,-1.6423,-2.0018,-2.1989,-2.2167,-2.1236,-2.0264,-1.9396,-1.7912,-1.6565,-1.5404,0.0,0.0,0.0,0.0,0.0,0.0,0.0,0.0,0.0,0.0,0.0,0.0,0.0,0.0,0.0,0.0,0.0,0.0,0.0,0.0,0.0,0.0,0.0,0.0,0.0,0.0,0.0,0.0,0.0,0.0,0.0,0.0,0.0,0.0,0.0,0.0,0.0,0.0,0.0,0.0,0.0,0.0,0.0,0.0,0.0,0.0,0.0,0.0,0.0,0.0,0.0,0.0,0.0,0.0,0.0,0.0,0.0,0.0,0.0,0.0,-0.4655,-0.5718,0.0,0.0,0.0,0.0,0.0,0.0,0.0,0.0,0.0,0.0,0.0,0.0,0.0,0.0,0.0,0.0,0.0,0.0,0.0,0.0,0.0,0.0,0.0,0.0,0.0,0.0,0.0,0.0,0.0,0.0,0.0,0.0,0.0,0.0,0.0,0.0,0.0,0.0,0.0,0.0,-1.6766,-2.0032,-2.1585,-2.0607,-2.0113,-1.9082,-1.7247,-1.6764,-1.5855,-1.425,-1.2474,0.0,0.0,0.0,0.0,0.0,0.0,0.0,0.0,0.0,0.0,0.0,0.0,0.0,0.0,0.0,0.0,0.0,0.0,0.0,0.0,0.0,0.0,0.0,0.0,0.0,0.0,0.0,0.0,0.0,0.0,0.0,0.0,0.0,0.0,0.0,0.0,0.0,0.0,0.0,0.0,0.0,0.0,0.0,0.0,0.0,0.0,0.0,0.0,0.0,0.0,0.0,0.0,0.0,0.0,0.0,0.0,0.0,0.0,0.0,-1.0711,-1.1618,0.0,0.0,0.0,0.0,0.0,0.0,0.0,0.0,0.0,0.0,0.0,0.0,0.0,0.0,0.0,0.0,0.0,0.0,0.0,0.0,0.0,0.0,0.0,0.0,0.0,0.0,0.0,0.0,0.0,0.0,0.0,0.0,0.0,0.0,0.0,0.0,0.0,0.0,0.0,0.0,-1.7383,-1.931,-2.0311,-1.9841,-1.8741,-1.7612,-1.6506,-1.5628,-1.4642,-1.3416,-1.2024,0.0,0.0,0.0,0.0,0.0,0.0,0.0,0.0,0.0,0.0,0.0,0.0,0.0,0.0,0.0,0.0,0.0,0.0,0.0,0.0,0.0,0.0,0.0,0.0,0.0,0.0,0.0,0.0,0.0,0.0,0.0,0.0,0.0,0.0,0.0,0.0,0.0,0.0,0.0,0.0,0.0,0.0,0.0,0.0,0.0,0.0,0.0,0.0,0.0,0.0,0.0,0.0,0.0,-1.6486,-1.6512,-1.6481,-1.6045,-1.4777,-1.2987,-1.5007,-1.5857,-1.5728,-1.3734,0.0,0.0,0.0,0.0,0.0,0.0,0.0,0.0,0.0,0.0,0.0,0.0,0.0,0.0,0.0,0.0,0.0,0.0,0.0,0.0,0.0,0.0,-1.6251,-1.5174,-1.5311,-1.5038,-1.2779,0.0,0.0,0.0,0.0,0.0,0.0,0.0,0.0,0.0,0.0,0.0,-1.7676,-1.8362,-1.8915,-1.9086,-1.7427,-1.6244,-1.6081,-1.4663,-1.3464,-1.2677,-1.1499,-1.0517,0.0,0.0,0.0,0.0,0.0,0.0,0.0,0.0,0.0,0.0,0.0,0.0,0.0,0.0,0.0,0.0,0.0,0.0,0.0,0.0,0.0,0.0,0.0,0.0,0.0,0.0,0.0,0.0,0.0,0.0,0.0,0.0,0.5103,0.4944,0.0,0.0,0.0,0.0,0.0,0.0,0.0,0.0,0.0,0.0,0.0,0.0,0.0,-1.5175,-1.6497,-1.651,-1.6509,-1.6484,-1.6492,-1.6527,-1.6451,-1.4318,-1.3179,-1.2929,-1.3238,0.0,-1.3324,-1.3034,0.0,0.0,0.0,0.0,0.0,0.0,0.0,0.0,0.0,0.0,0.0,0.0,0.0,0.0,0.0,0.0,0.0,0.0,0.0,0.0,0.0,0.0,-1.6385,-1.5934,-1.5072,-1.4435,-1.4594,-1.3797,-1.2931,-1.2681,-1.1965,-1.1455,0.0,0.0,0.0,0.0,0.0,0.0,-1.6823,-1.7932,-1.8284,-1.7243,-1.6549,-1.5765,-1.4774,-1.4132,-1.3283,-1.2003,-1.1216,-1.0517,-0.9814,-0.856,0.0,0.0,0.0,0.0,0.0,0.0,0.0,0.0,0.0,0.0,0.0,0.0,0.0,0.0,0.0,0.0,0.0,0.0,0.0,0.0,0.0,0.0,0.0,0.0,0.0,0.0,0.0,0.0,0.0,0.4541,0.2521,0.039,0.0135,-0.0185,0.0,0.0,0.0,0.0,0.0,0.0,0.0,0.0,0.0,-0.9162,-1.3292,-1.5806,-1.6471,-1.6078,-1.6103,-1.648,-1.6514,-1.5788,-1.4453,-1.3371,-1.2878,-1.2879,-1.2912,-1.2893,-1.2917,-1.2906,-1.2889,-1.2636,0.0,0.0,0.0,0.0,-0.968,-1.0198,-1.0416,-1.0615,-1.0724,-1.0659,0.0,0.0,0.0,0.0,0.0,0.0,0.0,-1.2892,-1.2927,-1.3036,-1.35,-1.4652,-1.3932,-1.3275,-1.4067,-1.3507,-1.2875,-1.2986,-1.2297,-1.1792,-1.1853,-1.1584,0.0,0.0,0.0,-1.5363,-1.6615,-1.7259,-1.7408,-1.6854,-1.6048,-1.5092,-1.3932,-1.3372,-1.236,-1.0779,-1.0415,-0.9747,-0.8666,-0.8037,-0.7176,0.0,0.0,0.0,0.0,0.0,0.0,0.0,0.0,0.0,0.0,0.0,0.0,0.0,0.0,0.0,0.0,0.0,0.0,0.0,0.0,0.0,0.0,0.0,0.0,0.0,0.0,0.0,0.0,0.241,-0.0123,-0.3987,-0.4403,-0.4487,0.0,0.0,0.0,0.0,0.0,0.0,-0.9256,-1.2267,-1.3851,-1.3663,-1.4624,-1.5502,-1.6218,-1.5672,-1.5676,-1.6233,-1.623,-1.5038,-1.2884,-1.2889,-1.2884,-1.2893,-1.3365,-1.3068,-1.2359,-1.3212,-1.3032,-1.2114,-1.0038,-0.9253,-0.9292,-0.9751,-0.9925,-1.0013,-1.0515,-1.0793,-1.0989,-1.1202,-1.0936,-1.0523,-1.0212,0.0,0.0,0.0,0.0,-1.2517,-1.3349,-1.2055,-1.1056,-1.2771,-1.2697,-1.2422,-1.3255,-1.2781,-1.2413,-1.2828,-1.2335,-1.1866,-1.211,-1.2011,0.0,-1.3641,-1.4044,-1.4657,-1.5786,-1.587,-1.5808,-1.5808,-1.4992,-1.4077,-1.3246,-1.2588,-1.1521,-1.0008,-0.9643,-0.8967,-0.7777,-0.7337,-0.6632,-0.5542,0.0,0.0,0.0,0.0,0.0,0.0,0.0,0.0,0.0,0.0,0.0,0.0,0.0,0.0,0.0,0.0,0.0,0.0,0.0,0.0,0.0,0.0,0.0,0.0,0.0,0.0,0.0,0.0,0.0,-0.7485,-0.8849,0.0,0.0,0.0,0.0,-0.8355,-1.0067,-1.1413,-1.2082,-1.2966,-1.4317,-1.6238,-1.6395,-1.6104,-1.5452,-1.5401,-1.5412,-1.5434,-1.5474,-1.4531,-1.2893,-1.2878,-1.2923,-1.2968,-1.4574,-1.3528,-1.0966,-1.4026,-1.3467,-1.0729,-1.0543,-1.0494,-1.048,-1.0545,-1.0538,-1.0558,-1.0679,-1.1125,-1.1616,-1.1246,-1.0661,-1.0094,-0.9805,-0.9714,0.0,0.0,-1.0711,-1.14,-1.4465,-1.2943,-1.0651,-1.0762,-1.148,-1.2354,-1.2901,-1.2427,-1.2051,-1.283,-1.2476,-1.2325,-1.3143,0.0,-1.2881,-1.3745,-1.3342,-1.3038,-1.3492,-1.3367,-1.321,-1.321,-1.278,-1.2497,-1.2481,-1.1771,-1.1046,-1.0339,-0.933,-0.8429,-0.7723,-0.6357,-0.5592,-0.5487,-0.4853,0.0,0.0,0.0,0.0,0.0,0.0,0.0,0.0,0.0,0.0,0.0,0.0,0.0,0.0,0.0,0.0,0.0,0.0,0.0,0.0,0.0,0.0,0.0,0.0,0.0,0.0,0.0,0.0,-1.0454,-1.0974,0.0,-0.9622,-0.9427,-0.9621,-1.0401,-1.1496,-1.2715,-1.4007,-1.4368,-1.4986,-1.616,-1.6166,-1.5953,-1.5436,-1.5409,-1.541,-1.5376,-1.4678,-1.3858,-1.3001,-1.4015,-1.3374,-1.1459,-1.2035,-1.1657,-1.0681,-1.1867,-1.1624,-1.0597,-1.0627,-1.0622,-1.0595,-1.0595,-1.0629,-1.0594,-1.0601,-1.0777,-1.0974,-1.0842,-1.0445,-1.0099,-1.0233,-1.0279,-1.0292,-1.0547,-1.0584,-1.087,-1.202,-1.1453,-1.0629,-1.0597,-1.0906,-1.1388,-1.2264,-1.1838,-1.1395,-1.1854,-1.1632,-1.1553,-1.2049,-1.1961,-1.2101,-1.3004,-1.2902,-1.2983,-1.3615,-1.3451,-1.3285,-1.3285,-1.2972,-1.2481,-1.1768,-1.1461,-1.0652,-0.915,-0.8701,-0.7886,-0.6519,-0.6135,-0.5582,-0.4857,-0.4646,-0.4033,0.0,0.0,0.0,0.0,0.0,0.0,0.0,0.0,0.0,0.0,0.0,0.0,0.0,0.0,0.0,0.0,0.0,0.0,0.0,0.0,0.0,0.0,0.0,0.0,0.0,-0.6582,-0.9667,-1.3565,-1.3263,-1.2618,-1.2378,-1.1388,-1.0963,-1.1408,-1.2296,-1.347,-1.4844,-1.4928,-1.5203,-1.5765,-1.5804,-1.5653,-1.5405,-1.5377,-1.5391,-1.5399,-1.4141,-1.3342,-1.299,-1.3558,-1.2597,-1.0573,-1.0572,-1.0595,-1.0573,-1.0584,-1.0617,-1.0615,-1.0604,-1.0571,-1.0568,-1.0591,-1.0571,-1.0624,-1.0624,-1.0692,-1.0701,-1.0701,-1.0571,-1.0487,-1.0573,-1.061,-1.0654,-1.1064,-1.1145,-1.1182,-1.1195,-1.0995,-1.0856,-1.0866,-1.0863,-1.1026,-1.1795,-1.1521,-1.1223,-1.1516,-1.1416,-1.1349,-1.1543,-1.1657,-1.1927,-1.2486,-1.247,-1.2604,-1.3127,-1.2897,-1.2618,-1.2269,-1.1988,-1.1457,-1.0367,-1.008,-0.9392,-0.8186,-0.7736,-0.7036,-0.5994,-0.5777,-0.5113,-0.3753,-0.4226,-0.3729,-0.2196,0.0,0.0,0.0,0.0,0.0,0.0,0.0,0.0,0.0,0.0,0.0,0.0,0.0,0.0,0.0,0.0,0.0,0.0,0.0,0.0,0.0,0.0,0.0,-0.8614,-0.989,-1.2341,-1.6731,-1.574,-1.4446,-1.3799,-1.3228,-1.2553,-1.1636,-1.2781,-1.3854,-1.4615,-1.4598,-1.4857,-1.5352,-1.543,-1.539,-1.5377,-1.5298,-1.5254,-1.5303,-1.3692,-1.2948,-1.2879,-1.1345,-1.056,-1.0567,-1.0571,-1.0631,-1.0595,-1.0607,-1.0543,-1.0457,-1.0526,-1.0549,-1.0481,-1.0529,-1.0529,-1.0511,-1.0518,-1.0704,-1.0936,-1.0936,-1.0981,-1.0979,-1.0679,-1.0604,-1.0835,-1.2012,-1.2322,-1.2322,-1.2315,-1.1847,-1.1443,-1.1361,-1.1354,-1.1354,-1.1299,-1.1299,-1.1385,-1.1753,-1.1813,-1.1813,-1.1884,-1.2118,-1.2224,-1.2224,-1.1992,0.0,-1.1813,-1.1554,-1.0942,-0.9956,-0.974,-0.9254,-0.83,-0.7636,-0.735,-0.7499,-0.647,-0.5944,-0.6142,-0.527,-0.3946,-0.223,-0.3661,-0.3727,-0.2227,0.0,0.0,0.0,0.0,0.0,0.0,0.0,0.0,0.0,0.0,0.0,0.0,0.0,0.0,0.0,0.0,0.0,0.0,0.0,0.0,0.0,-0.7199,-0.9829,-1.0616,-1.2348,-1.4293,-1.6476,-1.5511,-1.4652,-1.4446,-1.3754,-1.3333,-1.3383,-1.3946,-1.4553,-1.5148,-1.5183,-1.5248,-1.5422,-1.5371,-1.539,-1.5378,-1.308,-1.23,-1.3078,-1.2613,-1.229,-1.2081,-1.1073,-1.011,-0.9325,-1.0213,-1.0617,-1.0619,-1.0584,-0.9372,-0.7711,-0.9765,-0.933,-0.7582,-0.8425,-0.8786,-0.8898,-0.8994,-0.9028,-0.9146,-0.9146,-0.9344,-0.9816,-1.0855,-1.091,-1.0869,-1.1985,-1.2298,-1.2325,-1.2267,-1.2152,-1.1655,-1.0189,-1.0113,-1.0136,-0.9603,-0.9498,-0.9646,-0.9977,-1.0027,-1.0473,-1.1959,-1.1643,-1.1236,-1.1236,-1.0513,-1.0027,-1.0027,-0.9728,-0.9427,-0.9139,-0.8865,-0.86,-0.8243,-0.8062,-0.7652,-0.697,-0.6612,-0.6144,-0.5454,-0.4463,-0.347,-0.255,-0.2978,-0.2995,0.0,0.0,0.0,0.0,0.0,0.0,0.0,0.0,0.0,0.0,0.0,0.0,0.0,0.0,0.0,0.0,0.0,0.0,0.0,0.0,0.0,0.0,-0.9668,-1.1813,-1.273,-1.4305,-1.5672,-1.6386,-1.5553,-1.486,-1.4577,-1.3781,-1.3468,-1.4086,-1.3968,-1.3781,-1.3417,-1.4004,-1.4371,-1.4371,-1.3752,-1.3414,-1.3403,-1.1507,-1.0897,-1.1527,-1.0788,-1.0488,-1.0494,-0.9824,-0.9262,-0.8818,-0.9028,-0.8896,-0.8409,-0.8455,-0.7577,-0.6479,0.0,0.0,0.0,0.0,-0.8074,-0.8309,-0.8364,-0.8462,-0.8608,-0.8842,-0.9062,-0.9483,-1.123,-1.0376,-0.8961,-0.9583,-0.9787,-0.9755,-0.9771,-0.978,-0.9721,-0.9394,-0.9264,-0.9202,-0.9059,-0.9015,-0.9055,-0.9271,-0.9296,0.0,-1.0875,-1.0571,-1.019,-1.019,-0.9669,-0.9296,-0.9296,-0.91,-0.8867,-0.8421,-0.8166,-0.7856,-0.7324,-0.7173,0.0,0.0,0.0,-0.5871,-0.5276,-0.4693,0.0,0.0,0.0,0.0,0.0,-0.404,0.0,0.0,-0.5291,-0.6145,0.0,0.0,0.0,0.0,0.0,0.0,0.0,0.0,0.0,0.0,0.0,0.0,0.0,0.0,0.0,0.0,-1.162,-1.3348,-1.4514,-1.5611,-1.6269,-1.6219,-1.5545,-1.4871,-1.433,-1.3402,-1.3164,-1.3937,-1.3383,-1.2433,-1.1207,-1.2173,0.0,0.0,0.0,-1.0321,-1.0358,-1.0537,-1.0485,-1.0251,-0.8765,-0.8312,-0.8733,-0.8268,-0.8223,-0.8537,-0.7531,-0.6461,-0.5378,-0.5486,-0.5791,-0.6296,-0.6327,-0.6281,-0.635,-0.7208,-0.7792,-0.8131,-0.8179,0.0,0.0,-0.917,-0.9155,-0.9322,-1.1053,-0.916,-0.6291,-0.6291,-0.6291,-0.6291,-0.6291,-0.6287,-0.6753,-0.8514,-0.859,-0.8424,-0.8836,-0.8993,-0.8993,-0.8993,-0.8993,-0.8993,-0.8993,-0.9074,-0.915,-0.915,-0.9069,-0.8993,-0.8993,-0.8993,-0.8618,-0.7706,-0.748,0.0,-0.6105,-0.5789,-0.5688,-0.5796,-0.5559,-0.5425,-0.5431,-0.5438,-0.5577,-0.5787,-0.5791,-0.579,-0.5775,-0.5902,-0.5974,-0.5981,-0.5624,-0.6108,0.0,0.0,0.0,0.0,0.0,0.0,0.0,0.0,0.0,0.0,0.0,0.0,0.0,0.0,0.0,-1.0754,-1.2506,-1.3852,-1.4606,-1.488,-1.5062,-1.505,-1.4211,-1.354,-1.3449,-1.2839,-1.2721,-1.3156,-1.3074,-1.3428,-1.4418,-1.2297,-1.1052,-1.1052,-0.9627,-0.8843,-0.8794,-1.0006,-0.9782,-0.824,-0.8324,0.0,-0.8477,-0.8243,-0.7928,-0.746,-0.7368,-0.6571,-0.5454,-0.5911,-0.6221,-0.628,-0.627,-0.6098,-0.5953,-0.6442,-0.6448,-0.6334,-0.6603,-0.6718,-0.682,-0.69,-0.6923,-0.6953,-0.7354,-0.6949,0.0,-0.6311,-0.6311,-0.6311,-0.6311,-0.6283,-0.6423,-0.678,-0.7638,-0.8021,-0.7099,-0.6872,-0.6872,-0.6872,-0.6872,-0.6872,-0.6872,-0.7557,-0.8084,-0.8084,-0.7403,-0.6872,-0.6872,-0.6872,-0.6795,-0.6644,-0.6538,-0.6391,-0.604,-0.5986,-0.5848,-0.5758,-0.549,-0.5448,-0.5631,-0.5634,-0.5711,-0.5796,-0.5796,-0.5823,-0.581,-0.5806,-0.5867,-0.5986,-0.5772,-0.635,0.0,0.0,0.0,0.0,0.0,0.0,0.0,0.0,0.0,0.0,0.0,-0.4041,-0.6844,0.0,-0.9261,-1.0905,-1.1789,-1.2385,-1.2715,-1.2754,-1.3004,-1.3679,-1.3621,-1.3242,-1.2618,-1.2422,-1.2502,-1.2945,-1.2228,-1.1536,-1.087,-0.9874,-0.9268,-0.9131,-0.8596,-0.8233,-0.8049,-0.9007,-0.8925,-0.7728,-0.7465,-0.7482,-0.7703,-0.7259,-0.678,-0.6437,-0.6569,-0.6272,-0.5702,-0.616,-0.627,-0.6338,-0.6338,-0.6166,-0.6051,-0.6203,-0.6162,-0.6054,-0.6207,-0.6338,-0.6338,-0.6338,-0.6338,-0.6338,-0.6338,-0.6338,-0.6338,-0.6338,-0.6338,-0.6338,-0.6338,-0.6321,-0.6307,-0.6331,-0.6802,-0.7111,-0.6416,-0.6338,-0.6338,-0.6338,-0.6338,-0.6338,-0.6338,-0.6718,-0.7022,-0.7022,-0.6641,-0.6338,-0.6338,-0.6338,-0.6338,-0.6338,-0.6268,-0.6237,-0.6162,-0.5146,-0.4488,-0.4382,-0.4304,-0.4206,-0.422,-0.5177,-0.5795,-0.5922,-0.5925,-0.5959,-0.603,-0.603,-0.6071,-0.6142,-0.6067,-0.6589,0.0,0.0,0.0,0.0,0.0,0.0,0.0,-0.1288,-0.2126,-0.3519,-0.5048,-0.6917,-0.9602,-0.9921,-1.0012,-1.0712,-1.0813,-1.0813,-1.0813,-1.0813,-1.1099,-1.1917,-1.2724,-1.276,-1.1583,-1.1759,-1.2072,-1.2523,-1.1333,-0.9332,-0.6439,-0.7148,-0.7669,-0.7719,-0.7919,-0.7873,-0.765,-0.7861,-0.7807,-0.7431,-0.6653,-0.652,-0.6897,-0.6147,-0.5861,-0.5891,-0.5891,-0.5959,-0.6084,-0.621,-0.6338,-0.6338,-0.6338,-0.6338,-0.6338,-0.6338,-0.624,-0.622,-0.6251,-0.6338,-0.6338,-0.6338,-0.6338,-0.6338,-0.6338,-0.6338,-0.6338,-0.6338,-0.6338,-0.6338,-0.6338,-0.6338,-0.6338,-0.6338,-0.6338,-0.6338,-0.6338,-0.6338,-0.6338,-0.6338,-0.6264,-0.6264,-0.6264,-0.6268,-0.6268,-0.6338,-0.6264,-0.6264,-0.6264,-0.6268,-0.6268,-0.6268,-0.6278,-0.6285,-0.6288,-0.4701,-0.3337,-0.2512,-0.2509,-0.241,-0.2212,-0.3767,-0.4927,-0.5397,-0.5862,-0.6152,-0.6268,-0.6268,-0.6264,-0.6264,-0.6264,-0.6718,0.3708,0.2091,0.0605,0.1351,-0.118,-0.3521,0.0,-0.3663,-0.5461,-0.5947,-0.6796,-0.7976,-0.957,-0.9799,-1.0012,-1.0712,-1.0813,-1.0813,-1.0813,-1.0813,-1.0399,-0.929,-1.0305,-1.0768,-1.0093,-1.047,-1.083,-1.0826,-1.0697,-0.9319,-0.6431,-0.6419,-0.6856,-0.7649,-0.7479,-0.7358,-0.7375,-0.681,-0.651,-0.6433,-0.6357,-0.636,-0.6357,-0.6067,-0.6081,-0.621,-0.621,-0.6217,-0.6237,-0.6254,-0.6338,-0.6338,-0.6338,-0.6338,-0.6338,-0.6338,-0.6096,-0.5921,-0.621,-0.6338,-0.6338,-0.6338,-0.6338,-0.6338,-0.6338,-0.6338,-0.6338,-0.6338,-0.6338,-0.6338,-0.6338,-0.6338,-0.6338,-0.6338,-0.6338,-0.6338,-0.6338,-0.6338,-0.6338,-0.6338,-0.6271,-0.6278,-0.6278,-0.6285,-0.6285,-0.6264,-0.6271,-0.6278,-0.6278,-0.6285,-0.6291,-0.6291,-0.6291,-0.6302,-0.6322,-0.6084,-0.4323,-0.0547,-0.0313,-0.0312,-0.0311,-0.0544,-0.1553,-0.3422,-0.5312,-0.6274,-0.6291,-0.6281,-0.6278,-0.6278,-0.6268,-0.6338,0.4231,0.3324,0.2132,0.0913,-0.0648,-0.2147,-0.3197,-0.4294,-0.5383,-0.6342,-0.6791,-0.723,-0.7806,-0.7966,-0.8013,-0.8317,-0.8364,-0.8364,-0.8364,-0.8364,-0.8218,-0.7925,-0.8582,-0.8887,-0.8371,-0.8783,-0.9114,-0.9081,-0.845,-0.7464,-0.6104,-0.6109,-0.6339,-0.6853,-0.6697,-0.6585,-0.6684,-0.6454,-0.6338,-0.6338,-0.6338,-0.6338,-0.6257,-0.6193,-0.6203,-0.6271,-0.6278,-0.6281,-0.6281,-0.6281,-0.6281,-0.6281,-0.6281,-0.6281,-0.6281,-0.6268,-0.622,-0.6096,-0.6237,-0.6268,-0.6271,-0.6271,-0.6271,-0.6271,-0.6271,-0.6268,-0.6338,-0.6338,-0.6338,-0.6264,-0.6271,-0.6271,-0.6274,-0.6281,-0.6281,-0.6281,-0.6281,-0.6281,-0.6281,-0.6281,-0.6285,-0.5889,-0.4616,-0.446,-0.446,-0.4453,-0.5485,-0.5886,-0.4616,-0.446,-0.4943,-0.6152,-0.6315,-0.528,-0.2829,-0.2672,-0.1885,-0.0079,-0.0,-0.0,-0.0,-0.0,-0.0392,-0.1251,-0.219,-0.3209,-0.4462,-0.4849,-0.5479,-0.6278,-0.6268,-0.6305,0.4952,0.4437,0.3657,0.1403,0.0384,-0.0768,-0.3175,-0.4133,-0.4761,-0.581,-0.6249,-0.6475,-0.6761,-0.682,-0.6766,-0.6647,-0.6593,-0.6593,-0.6593,-0.6589,-0.6748,-0.7071,-0.7425,-0.7213,-0.5982,-0.7619,-0.8317,-0.7342,-0.6643,-0.6227,-0.5976,-0.6047,-0.6124,-0.6261,-0.6162,-0.6156,-0.6271,-0.6271,-0.6271,-0.6271,-0.6271,-0.6271,-0.6271,-0.6271,-0.5954,-0.5404,-0.5413,-0.5416,-0.5416,-0.5416,-0.5416,-0.5416,-0.5416,-0.5814,-0.6295,-0.6278,-0.6271,-0.6271,-0.6271,-0.6278,-0.6285,-0.6285,-0.5485,-0.4771,-0.596,-0.6278,-0.6271,-0.6271,-0.6271,-0.6274,-0.6281,-0.6285,-0.6285,-0.6295,-0.5416,-0.4543,-0.4543,-0.4543,-0.4701,-0.5335,-0.5899,-0.5824,-0.4233,-0.3522,-0.3288,-0.3919,-0.5268,-0.5746,-0.4153,-0.2973,-0.282,-0.4411,-0.457,-0.3303,-0.0236,-0.0,-0.0,-0.0,-0.0,-0.0,-0.0,-0.0,-0.0,-0.0,-0.0,-0.0704,-0.2267,-0.3357,-0.4691,-0.6285,-0.6308,-0.6373,0.6116,0.5095,0.3986,0.3219,0.1316,-0.0637,-0.1642,-0.3255,-0.4498,-0.4542,-0.5299,-0.6239,-0.7171,-0.7404,-0.7177,-0.6673,-0.6613,-0.6613,-0.6613,-0.6626,-0.6606,-0.6606,-0.6922,-0.5857,-0.2667,-0.73,-0.9103,-0.5748,-0.5978,-0.6272,-0.6296,-0.6307,-0.6298,-0.6291,-0.6291,-0.6291,-0.6295,-0.6295,-0.6295,-0.6295,-0.6295,-0.6295,-0.6295,-0.6295,-0.5176,-0.3202,-0.3202,-0.3202,-0.3202,-0.3202,-0.3202,-0.3202,-0.3202,-0.4462,-0.6295,-0.6295,-0.6295,-0.6295,-0.6295,-0.6295,-0.6295,-0.6295,-0.3517,-0.0935,-0.5096,-0.6295,-0.6295,-0.6295,-0.6295,-0.6295,-0.6295,-0.6295,-0.6295,-0.6295,-0.3202,-0.0156,-0.0156,-0.0156,-0.0779,-0.2809,-0.4873,-0.6247,-0.6247,-0.4494,-0.3783,-0.5861,-0.6264,-0.626,-0.6247,-0.2594,-0.0157,-0.0157,-0.0157,-0.0157,-0.0,-0.0,-0.0,-0.0,-0.0,-0.0,-0.0,-0.0,-0.0,-0.0,-0.0,-0.0,-0.0079,-0.2111,-0.4226,-0.6298,-0.6413,-0.6468,0.7204,0.6251,0.5099,0.3946,0.3115,0.2014,-0.0318,-0.1194,-0.1775,-0.2779,-0.4064,-0.5081,-0.5428,-0.3828,-0.2762,-0.3555,-0.3437,-0.335,-0.3664,-0.3653,-0.3682,-0.366,-0.4672,-0.508,-0.4378,-0.6015,-0.6668,-0.5453,-0.3332,-0.2108,-0.2107,-0.3448,-0.4164,-0.4208,-0.4192,-0.4146,-0.4146,-0.4146,-0.4146,-0.4146,-0.4146,-0.4146,-0.4226,-0.5668,-0.5914,-0.5037,-0.2273,-0.1019,-0.1019,-0.1019,-0.1019,-0.1019,-0.1019,-0.3219,-0.6329,-0.6329,-0.4489,-0.2116,-0.2109,-0.2109,-0.2584,-0.5355,-0.345,-0.0235,-0.1721,-0.3051,-0.4146,-0.4146,-0.4146,-0.4543,-0.5911,-0.6318,-0.5596,-0.2824,-0.1019,-0.0,-0.0,-0.0,-0.0235,-0.094,-0.1648,-0.2121,-0.2121,-0.1492,-0.1257,-0.2044,-0.2123,-0.2123,-0.2121,-0.0864,-0.0,-0.0,-0.0,-0.0,-0.0,-0.0,-0.0,-0.0,-0.0,-0.0,-0.0,-0.0,-0.0,-0.0,-0.0,-0.1414,-0.4173,-0.3444,-0.4258,-0.6517,-0.6461,-0.658,0.7997,0.6957,0.5805,0.4818,0.4293,0.3594,0.1664,0.1024,0.0445,-0.0667,-0.1668,-0.2452,-0.2845,-0.1333,0.0055,0.0167,-0.0,-0.0225,-0.0407,-0.0472,-0.0667,-0.1342,-0.3272,-0.4754,-0.5365,-0.4235,-0.3466,-0.3497,-0.1331,-0.0,-0.0,-0.1241,-0.202,-0.199,-0.2019,-0.1955,-0.1955,-0.1955,-0.1955,-0.1955,-0.1955,-0.1955,-0.2033,-0.3456,-0.4016,-0.3936,-0.1178,-0.0,-0.0,-0.0,-0.0,-0.0,-0.0,-0.165,-0.4023,-0.4023,-0.2359,-0.0,-0.0,-0.0,-0.047,-0.3144,-0.2199,-0.0,-0.0,-0.094,-0.1955,-0.1955,-0.1955,-0.2348,-0.3694,-0.4016,-0.3383,-0.0628,-0.0,-0.0,-0.0,-0.0,-0.0,-0.0,-0.0,-0.0,-0.0,-0.0,-0.0,-0.0,-0.0,-0.0,-0.0,-0.0,-0.0,-0.0,-0.0,-0.0,-0.0,-0.0,-0.0,-0.0,-0.0,-0.0,-0.0,-0.0,-0.0,-0.0,-0.0,-0.1335,-0.4016,-0.4198,-0.5047,-0.6525,-0.6532,-0.6672,0.8501,0.7291,0.6125,0.5797,0.4836,0.4055,0.4232,0.3295,0.2282,0.1831,0.1774,0.1496,0.0498,0.0387,0.1276,0.4045,0.3307,0.2433,0.2751,0.2841,0.218,0.0449,-0.2301,-0.4401,-0.5032,-0.2039,-0.0,-0.0,-0.0,-0.0,-0.0,-0.0,-0.0,-0.0,-0.0,-0.0,-0.0,-0.0,-0.0,-0.0,-0.0,-0.0,-0.0,-0.0,-0.0,-0.0,-0.0,-0.0,-0.0,-0.0,-0.0,-0.0,-0.0,-0.0,-0.0,-0.0,-0.0,-0.0,-0.0,-0.0,-0.0,-0.0,-0.0,-0.0,-0.0,-0.0,-0.0,-0.0,-0.0,-0.0,-0.0,-0.0,-0.0,-0.0,-0.0,-0.0,-0.0,-0.0,-0.0,-0.0,-0.0,-0.0,-0.0,-0.0,-0.0,-0.0,-0.0,-0.0,-0.0,-0.0,-0.0,-0.0,-0.0,-0.0,-0.0,-0.0,-0.0,-0.0,-0.0,-0.0,-0.0,-0.0,-0.0,-0.0,-0.0,-0.0,-0.0,-0.4031,-0.6062,-0.6156,-0.6417,-0.6541,0.8681,0.7573,0.6437,0.6133,0.5774,0.5434,0.53,0.5112,0.5027,0.5261,0.532,0.5206,0.4976,0.5253,0.5364,0.4894,0.4441,0.4143,0.4065,0.4448,0.4544,0.4065,0.2161,0.0277,-0.1235,-0.0568,-0.0,-0.0,-0.0,-0.0,-0.0,-0.0,-0.0,-0.0,-0.0,-0.0,-0.0,-0.0,-0.0,-0.0,-0.0,-0.0,-0.0,-0.0,-0.0,-0.0,-0.0,-0.0,-0.0,-0.0,-0.0,-0.0,-0.0,-0.0,-0.0,-0.0,-0.0,-0.0,-0.0,-0.0,-0.0,-0.0,-0.0,-0.0,-0.0,-0.0,-0.0,-0.0,-0.0,-0.0,-0.0,-0.0,-0.0,-0.0,-0.0,-0.0,-0.0,-0.0,-0.0,-0.0,-0.0,-0.0,-0.0,-0.0,-0.0,-0.0,-0.0,-0.0,-0.0,-0.0,-0.0,-0.0,-0.0,-0.0,-0.0,-0.0,-0.0,-0.0,-0.0,-0.0,-0.0,-0.0,-0.0,-0.0,-0.0,-0.0,-0.0,-0.1043,-0.2375,-0.3914,-0.4024,-0.4195,0.8815,0.794,0.7011,0.6343,0.6287,0.6261,0.5878,0.6,0.6298,0.6544,0.6603,0.6707,0.7009,0.7036,0.6898,0.6403,0.6037,0.5856,0.5896,0.5845,0.5751,0.5438,0.4495,0.347,0.2461,0.163,0.0867,0.0071,-0.0,-0.0,-0.0,-0.0,-0.0,-0.0,-0.0,-0.0,-0.0,-0.0,-0.0,-0.0,-0.0,-0.0,-0.0,-0.0,-0.0,-0.0,-0.0,-0.0,-0.0,-0.0,-0.0,-0.0,-0.0,-0.0,-0.0,-0.0,-0.0,-0.0,-0.0,-0.0,-0.0,-0.0,-0.0,-0.0,-0.0,-0.0,-0.0,-0.0,-0.0,-0.0,-0.0,-0.0,-0.0,-0.0,-0.0,-0.0,-0.0,-0.0,-0.0,-0.0,-0.0,-0.0,-0.0,-0.0,-0.0,-0.0,-0.0,-0.0,-0.0,-0.0,-0.0,-0.0,-0.0,-0.0,-0.0,-0.0,-0.0,-0.0,-0.0,-0.0,-0.0,-0.0,-0.0,-0.0,-0.0,-0.0,-0.0,-0.0,-0.0581,-0.1763,-0.1735,-0.1859,0.8958,0.8357,0.7663,0.6689,0.6666,0.6794,0.6358,0.6606,0.6977,0.7004,0.7117,0.7315,0.7923,0.757,0.7399,0.8226,0.7925,0.7602,0.7761,0.7188,0.6523,0.5806,0.5659,0.55,0.5441,0.3975,0.2442,0.0863,0.0288,-0.0,-0.0,-0.0,-0.0,-0.0,-0.0,-0.0,-0.0,-0.0,-0.0,-0.0,-0.0,-0.0,-0.0,-0.0,-0.0,-0.0,-0.0,-0.0,-0.0,-0.0,-0.0,-0.0,-0.0,-0.0,-0.0,-0.0,-0.0,-0.0,-0.0,-0.0,-0.0,-0.0,-0.0,-0.0,-0.0,-0.0,-0.0,-0.0,-0.0,-0.0,-0.0,-0.0,-0.0,-0.0,-0.0,-0.0,-0.0,-0.0,-0.0,-0.0,-0.0,-0.0,-0.0,-0.0,-0.0,-0.0,-0.0,-0.0,-0.0,-0.0,-0.0,-0.0,-0.0,-0.0,-0.0,-0.0,-0.0,-0.0,-0.0,-0.0,-0.0,-0.0,-0.0,-0.0,-0.0,-0.0,-0.0,-0.0,-0.0,-0.0,-0.0,-0.0,0.9509,0.8643,0.7836,0.7663,0.7506,0.7419,0.7532,0.8268,0.8976,0.9179,0.9681,1.0136,1.023,1.0136,0.9977,0.9695,0.9848,0.9596,0.8375,0.8488,0.837,0.7433,0.678,0.6176,0.5446,0.5084,0.4775,0.4515,0.1701,-0.0,-0.0,-0.0,-0.0,-0.0,-0.0,-0.0,-0.0,-0.0,-0.0,-0.0,-0.0,-0.0,-0.0,-0.0,-0.0,-0.0,-0.0,-0.0,-0.0,-0.0,-0.0,-0.0,-0.0,-0.0,-0.0,-0.0,-0.0,-0.0,-0.0,-0.0,-0.0,-0.0,-0.0,-0.0,-0.0,-0.0,-0.0,-0.0,-0.0,-0.0,-0.0,-0.0,-0.0,-0.0,-0.0,-0.0,-0.0,-0.0,-0.0,-0.0,-0.0,-0.0,-0.0,-0.0,-0.0,-0.0,-0.0,-0.0,-0.0,-0.0,-0.0,-0.0,-0.0,-0.0,-0.0,-0.0,-0.0,-0.0,-0.0,-0.0,-0.0,-0.0,-0.0,-0.0,-0.0,-0.0,-0.0,-0.0,-0.0,-0.0,-0.0,-0.0,0.9886,0.9337,0.8842,0.7799,0.773,0.795,0.8067,0.8516,0.909,0.9872,1.0144,1.0517,1.1216,1.1065,1.0877,1.1178,1.105,1.0829,1.0494,1.0294,1.0098,0.981,0.8736,0.7658,0.6815,0.6326,0.5896,0.5459,0.2948,0.1012,0.0069,-0.0,-0.0,-0.0,-0.0,-0.0,-0.0,-0.0,-0.0,-0.0,-0.0,-0.0,-0.0,-0.0,-0.0,-0.0,-0.0,-0.0,-0.0,-0.0,-0.0,-0.0,-0.0,-0.0,-0.0,-0.0,-0.0,-0.0,-0.0,-0.0,-0.0,-0.0,-0.0,-0.0,-0.0,-0.0,-0.0,-0.0,-0.0,-0.0,-0.0,-0.0,-0.0,-0.0,-0.0,-0.0,-0.0,-0.0,-0.0,-0.0,-0.0,-0.0,-0.0,-0.0,-0.0,-0.0,-0.0,-0.0,-0.0,-0.0,-0.0,-0.0,-0.0,-0.0,-0.0,-0.0,-0.0,-0.0,-0.0,-0.0,-0.0,-0.0,-0.0,-0.0,-0.0,-0.0,-0.0,-0.0,-0.0,-0.0,-0.0,-0.0,1.068,1.0278,0.9916,0.8271,0.8013,0.8267,0.8429,0.8493,0.882,0.9987,1.0077,1.0364,1.1566,1.1366,1.1319,1.2274,1.2157,1.2066,1.2438,1.2233,1.196,1.1721,1.0552,0.9225,0.804,0.7158,0.6338,0.5442,0.3349,0.1475,0.0067,-0.0,-0.0,-0.0,-0.0,-0.0,-0.0,-0.0,-0.0,-0.0,-0.0,-0.0,-0.0,-0.0,-0.0,-0.0,-0.0,-0.0,-0.0,-0.0,-0.0,-0.0,-0.0,-0.0,-0.0,-0.0,-0.0,-0.0,-0.0,-0.0,-0.0,-0.0,-0.0,-0.0,-0.0,-0.0,-0.0,-0.0,-0.0,-0.0,-0.0,-0.0,-0.0,-0.0,-0.0,-0.0,-0.0,-0.0,-0.0,-0.0,-0.0,-0.0,-0.0,-0.0,-0.0,-0.0,-0.0,-0.0,-0.0,-0.0,-0.0,-0.0,-0.0,-0.0,-0.0,-0.0,-0.0,-0.0,-0.0,-0.0,-0.0,-0.0,-0.0,-0.0,-0.0,-0.0,-0.0,-0.0,-0.0,-0.0,-0.0,-0.0,1.2567,1.1472,1.061,1.007,0.8933,0.8116,0.8837,0.0,0.9103,1.0027,1.0466,1.0914,1.1665,1.1765,1.194,1.2724,1.3561,1.3799,1.2959,1.4205,1.4336,1.2074,1.1544,1.0519,0.8205,0.7237,0.6338,0.5442,0.2209,0.0201,-0.0,-0.0,-0.0,-0.0,-0.0,-0.0,-0.0,-0.0,-0.0,-0.0,-0.0,-0.0,-0.0,-0.0,-0.0,-0.0,-0.0,-0.0,-0.0,-0.0,-0.0,-0.0,-0.0,-0.0,-0.0,-0.0,-0.0,-0.0,-0.0,-0.0,-0.0,-0.0,-0.0,-0.0,-0.0,-0.0,-0.0,-0.0,-0.0,-0.0,-0.0,-0.0,-0.0,-0.0,-0.0,-0.0,-0.0,-0.0,-0.0,-0.0,-0.0,-0.0,-0.0,-0.0,-0.0,-0.0,-0.0,-0.0,-0.0,-0.0,-0.0,-0.0,-0.0,-0.0,-0.0,-0.0,-0.0,-0.0,-0.0,-0.0,-0.0,-0.0,-0.0,-0.0,-0.0,-0.0,-0.0,-0.0,-0.0,-0.0,-0.0,-0.0,1.3641,1.2656,1.1942,1.0884,0.9961,0.9359,0.9681,0.9571,0.969,1.0804,1.1238,1.1625,1.2344,1.2452,1.2559,1.2832,1.3253,1.367,1.4195,1.5233,1.5521,1.4408,1.3764,1.2406,0.9814,0.8021,0.6625,0.5496,0.4061,0.2308,0.0134,-0.0,-0.0,-0.0,-0.0,-0.0,-0.0,-0.0,-0.0,-0.0,-0.0,-0.0,-0.0,-0.0,-0.0,-0.0,-0.0,-0.0,-0.0,-0.0,-0.0,-0.0,-0.0,-0.0,-0.0,-0.0,-0.0,-0.0,-0.0,-0.0,-0.0,-0.0,-0.0,-0.0,-0.0,-0.0,-0.0,-0.0,-0.0,-0.0,-0.0,-0.0,-0.0,-0.0,-0.0,-0.0,-0.0,-0.0,-0.0,-0.0,-0.0,-0.0,-0.0,-0.0,-0.0,-0.0,-0.0,-0.0,-0.0,-0.0,-0.0,-0.0,-0.0,-0.0,-0.0,-0.0,-0.0,-0.0,-0.0,-0.0,-0.0,-0.0,-0.0,-0.0,-0.0,-0.0,-0.0,-0.0,-0.0,-0.0,-0.0,-0.0,1.5281,1.4212,1.335,1.2193,1.1255,1.0634,1.0654,1.028,1.0185,1.1104,1.1323,1.159,1.2433,1.2464,1.2522,1.2861,1.3065,1.3649,1.4993,1.5833,1.6143,1.5831,1.4997,1.3359,1.0752,0.8305,0.6466,0.5398,0.5364,0.4263,0.1721,0.0598,-0.0,-0.0,-0.0,-0.0,-0.0,-0.0,-0.0,-0.0,-0.0,-0.0,-0.0,-0.0,-0.0,-0.0,-0.0,-0.0,-0.0,-0.0,-0.0,-0.0,-0.0,-0.0,-0.0,-0.0,-0.0,-0.0,-0.0,-0.0,-0.0,-0.0,-0.0,-0.0,-0.0,-0.0,-0.0,-0.0,-0.0,-0.0,-0.0,-0.0,-0.0,-0.0,-0.0,-0.0,-0.0,-0.0,-0.0,-0.0,-0.0,-0.0,-0.0,-0.0,-0.0,-0.0,-0.0,-0.0,-0.0,-0.0,-0.0,-0.0,-0.0,-0.0,-0.0,-0.0,-0.0,-0.0,-0.0,-0.0,-0.0,-0.0,-0.0,-0.0,-0.0,-0.0,-0.0,-0.0,-0.0,-0.0,-0.0,-0.0,1.7877,1.6302,1.4786,1.4373,1.2897,1.1595,1.1673,1.1085,1.0517,1.0597,1.0411,1.0546,1.1594,1.1499,1.1572,1.2706,1.342,1.4105,1.5089,1.5904,1.622,1.5648,1.4573,1.2976,1.0516,0.7709,0.5763,0.5125,0.5269,0.5414,0.5328,0.1939,-0.0,-0.0,-0.0,-0.0,-0.0,-0.0,-0.0,-0.0,-0.0,-0.0,-0.0,-0.0,-0.0,-0.0,-0.0,-0.0,-0.0,-0.0,-0.0,-0.0,-0.0,-0.0,-0.0,-0.0,-0.0,-0.0,-0.0,-0.0,-0.0,-0.0,-0.0,-0.0,-0.0,-0.0,-0.0,-0.0,-0.0,-0.0,-0.0,-0.0,-0.0,-0.0,-0.0,-0.0,-0.0,-0.0,-0.0,-0.0,-0.0,-0.0,-0.0,-0.0,-0.0,-0.0,-0.0,-0.0,-0.0,-0.0,-0.0,-0.0,-0.0,-0.0,-0.0,-0.0,-0.0,-0.0,-0.0,-0.0,-0.0,-0.0,-0.0,-0.0,-0.0,-0.0,-0.0,-0.0,-0.0,-0.0,-0.0,-0.0,1.8178,1.7012,1.5895,1.5553,1.4457,1.3303,1.2783,1.2419,1.2029,1.1459,1.2088,1.2726,1.2695,1.3181,1.3719,1.4086,1.4294,1.464,1.5325,1.6017,1.5893,1.4413,1.2521,1.0554,0.8508,0.7186,0.6006,0.4952,0.4799,0.4941,0.5359,0.1943,-0.0,-0.0,-0.0,-0.0,-0.0,-0.0,-0.0,-0.0,-0.0,-0.0,-0.0,-0.0,-0.0,-0.0,-0.0,-0.0,-0.0,-0.0,-0.0,-0.0,-0.0,-0.0,-0.0,-0.0,-0.0,-0.0,-0.0,-0.0,-0.0,-0.0,-0.0,-0.0,-0.0,-0.0,-0.0,-0.0,-0.0,-0.0,-0.0,-0.0,-0.0,-0.0,-0.0,-0.0,-0.0,-0.0,-0.0,-0.0,-0.0,-0.0,-0.0,-0.0,-0.0,-0.0,-0.0,-0.0,-0.0,-0.0,-0.0,-0.0,-0.0,-0.0,-0.0,-0.0,-0.0,-0.0,-0.0,-0.0,-0.0,-0.0,-0.0,-0.0,-0.0,-0.0,-0.0,-0.0,-0.0,-0.0,-0.0,-0.0,1.8818,1.7949,1.6897,1.6701,1.5722,1.46,1.3942,1.3518,1.3047,1.2106,1.2665,1.3183,1.2841,1.3328,1.3984,1.4539,1.4653,1.4948,1.5688,1.5048,1.3367,1.0358,0.9387,0.7935,0.5257,0.5113,0.4834,0.3915,0.3699,0.4121,0.5321,0.1943,-0.0,-0.0,-0.0,-0.0,-0.0,-0.0,-0.0,-0.0,-0.0,-0.0,-0.0,-0.0,-0.0,-0.0,-0.0,-0.0,0.0,-0.0,-0.0,-0.0,-0.0,-0.0,-0.0,-0.0,-0.0,-0.0,-0.0,-0.0,-0.0,-0.0,-0.0,-0.0,-0.0,-0.0,-0.0,-0.0,-0.0,-0.0,-0.0,-0.0,-0.0,-0.0,-0.0,-0.0,-0.0,-0.0,-0.0,-0.0,-0.0,-0.0,-0.0,-0.0,-0.0,-0.0,-0.0,-0.0,-0.0,-0.0,-0.0,-0.0,-0.0,-0.0,-0.0,-0.0,-0.0,-0.0,-0.0,-0.0,-0.0,-0.0,-0.0,-0.0,-0.0,-0.0,-0.0,-0.0,-0.0,-0.0,-0.0,-0.0,0.0,1.8813,1.7715,1.7715,1.668,1.5562,1.5052,1.4419,0.0,1.2586,1.2381,1.2392,1.2272,1.2233,1.2675,1.4281,1.4416,1.4631,1.5507,1.2648,0.8816,0.4401,0.5423,0.5015,0.1253,0.181,0.2263,0.1949,0.1895,0.278,0.4735,0.1644,-0.0119,-0.0,-0.0,-0.0,-0.0,-0.0,-0.0,-0.0,-0.0,-0.0,-0.0,-0.0,-0.0,-0.0,-0.0,-0.0,-0.0,-0.0,-0.0,-0.0,-0.0,-0.0,-0.0,-0.0,-0.0,-0.0,-0.0,-0.0,-0.0,-0.0,-0.0,-0.0,-0.0,-0.0,-0.0,-0.0,-0.0,-0.0,-0.0,-0.0,-0.0,-0.0,-0.0,-0.0,-0.0,-0.0,-0.0,-0.0,-0.0,-0.0,-0.0,-0.0,-0.0,-0.0,-0.0,-0.0,-0.0,-0.0,-0.0,-0.0,-0.0,-0.0,-0.0,-0.0,-0.0,-0.0,-0.0,-0.0,-0.0,-0.0,-0.0,-0.0,-0.0,-0.0,-0.0,-0.0,-0.0,-0.0,-0.0,-0.0,1.6148,0.0,1.8027,1.7759,1.7093,1.6331,0.0,1.5088,1.4428,1.3166,0.0,1.3477,1.3048,1.2467,1.2468,1.3693,1.2511,1.0989,0.962,0.5937,0.3024,0.2056,0.176,0.0972,-0.0717,-0.1997,-0.2168,-0.0721,-0.0945,-0.095,-0.0451,-0.1242,-0.1191,-0.0057,-0.0,-0.0,-0.0,-0.0,-0.0,-0.0,-0.0,-0.0,-0.0,-0.0,-0.0,-0.0,-0.0,-0.0,-0.0,-0.0,-0.0,-0.0,-0.0,-0.0,-0.0,-0.0,-0.0,-0.0,-0.0,-0.0,-0.0,-0.0,-0.0,-0.0,-0.0,-0.0,-0.0,-0.0,-0.0,-0.0,-0.0,-0.0,-0.0,-0.0,-0.0,-0.0,-0.0,-0.0,-0.0,-0.0,-0.0,-0.0,-0.0,-0.0,-0.0,-0.0,-0.0,-0.0,-0.0,-0.0,-0.0,-0.0,-0.0,-0.0,-0.0,-0.0,-0.0,-0.0,-0.0,-0.0,-0.0,-0.0,-0.0,-0.0,-0.0,-0.0,-0.0,-0.0,-0.0,-0.0,-0.0,-0.0,1.4216,1.5814,1.7115,1.7394,1.7028,1.6459,1.6004,0.0,0.0,0.0,0.0,1.297,1.2016,1.0875,1.0141,1.0148,0.8611,0.6336,0.3209,0.0349,-0.1756,-0.266,-0.2739,-0.2877,-0.3314,-0.4457,-0.4525,-0.3005,-0.3123,-0.3241,-0.3244,-0.3244,-0.2907,-0.2071,-0.0739,-0.0,-0.0,-0.0,-0.0,-0.0,-0.0,-0.0,-0.0,-0.0,-0.0,-0.0,-0.0,-0.0,-0.0,-0.0,-0.0,-0.0,-0.0,-0.0,-0.0,-0.0,-0.0,-0.0,-0.0,-0.0,0.027,0.1954,0.1347,-0.0,-0.0,-0.0,-0.0,-0.0,-0.0,-0.0,-0.0,-0.0,-0.0,-0.0,-0.0,-0.0,-0.0,-0.0,-0.0,-0.0,-0.0,-0.0,-0.0,-0.0,-0.0,-0.0,-0.0,-0.0,-0.0,-0.0,-0.0,-0.0,-0.0,-0.0,-0.0,-0.0,-0.0,-0.0,-0.0,-0.0,-0.0,-0.0,-0.0,-0.0,-0.0,-0.0,-0.0,-0.0,-0.0,-0.0,-0.0,-0.0,1.2826,1.4077,1.5271,1.6532,1.637,1.5862,1.5877,0.0,0.0,0.0,0.0,0.0,1.0127,0.8265,0.6521,0.5453,0.3503,0.0806,-0.2897,-0.4532,-0.5966,-0.7651,-0.6912,-0.613,-0.5851,-0.5832,-0.5521,-0.4695,-0.4532,-0.448,-0.449,-0.449,-0.4497,-0.4511,-0.1789,-0.0224,-0.0,-0.0,-0.0,-0.0,-0.0,-0.0,-0.0,-0.0,-0.0,-0.0,-0.0,-0.0,-0.0,-0.0,-0.0,-0.0,-0.0,-0.0,-0.0,-0.0,-0.0,-0.0,-0.0,-0.0,0.0606,0.4252,0.3303,0.074,0.0469,0.0403,0.0404,0.0404,0.0606,0.0741,0.0471,0.0202,-0.0,-0.0,-0.0,-0.0,-0.0,-0.0,-0.0,-0.0,-0.0,-0.0,-0.0,-0.0,-0.0,-0.0,-0.0,-0.0,-0.0,-0.0,-0.0,-0.0,-0.0,-0.0,-0.0,-0.0,-0.0,-0.0,-0.0,-0.0,-0.0,-0.0,-0.0,-0.0,-0.0,-0.0,-0.0,-0.0,-0.0,-0.0,-0.0,-0.0,1.0918,1.1572,1.221,1.4573,1.4537,1.3938,1.3934,0.0,0.0,0.0,0.0,0.0,0.0,0.5075,0.2297,0.1913,-0.2343,-0.5921,-0.6883,-0.8787,-0.9779,-0.8969,-0.8237,-0.7629,-0.7317,-0.6234,-0.5492,-0.5382,-0.4846,-0.4522,-0.4522,-0.4522,-0.4477,-0.4497,-0.2794,-0.1284,-0.0,-0.0,-0.0,-0.0,-0.0,-0.0,-0.0,-0.0,-0.0,-0.0,-0.0,-0.0,-0.0,-0.0,-0.0,-0.0,-0.0,-0.0,-0.0,-0.0,-0.0,-0.0,-0.0,-0.0,0.0606,0.4252,0.5001,0.4317,0.2748,0.2277,0.2278,0.2278,0.3362,0.425,0.2683,0.1138,-0.0,-0.0,-0.0,-0.0,-0.0,-0.0,-0.0,-0.0,-0.0,-0.0,-0.0,-0.0,-0.0,-0.0,-0.0,-0.0,-0.0,-0.0,-0.0,-0.0,-0.0,-0.0,-0.0,-0.0,-0.0,-0.0,-0.0,-0.0,-0.0,-0.0,-0.0,-0.0,-0.0,-0.0,-0.0,-0.0,-0.0,-0.0,-0.0,-0.0,0.9935,1.0948,1.1889,1.2888,1.2715,1.2457,1.3029,1.1277,0.0,0.0,0.0,0.0,0.0,0.198,-0.1205,-0.4267,-0.7659,-0.9977,-1.0148,-1.0885,-1.0967,-0.9843,-0.9437,-0.8819,-0.777,-0.673,-0.5928,-0.5538,-0.4897,-0.4522,-0.4525,-0.4525,-0.4484,-0.4504,-0.3819,-0.2352,-0.0,-0.0,-0.0,-0.0,-0.0,-0.0,-0.0,-0.0,-0.0,-0.0,-0.0,-0.0,-0.0,-0.0,-0.0,-0.0,-0.0,-0.0,-0.0,-0.0,0.1208,0.2893,0.2893,0.2284,0.1879,0.4509,0.5399,0.5262,0.4431,0.4161,0.4164,0.4159,0.4776,0.5196,0.437,0.356,0.2417,0.0469,-0.0,-0.0,-0.0,-0.0,0.0606,0.256,0.2898,0.2288,0.0336,-0.0,-0.0,-0.0,-0.0,-0.0,-0.0,-0.0,-0.0,-0.0,-0.0,-0.0,-0.0,-0.0,-0.0,-0.0,-0.0,-0.0,-0.0,-0.0,-0.0,-0.0,-0.0,-0.0,-0.0,-0.0,-0.0,-0.0,-0.0,-0.0,0.9401,1.0515,1.1459,1.1343,1.1172,1.1257,1.1906,0.9142,0.6508,0.0,0.0,0.0,0.0,-0.1291,-0.463,-0.94,-1.1264,-1.2067,-1.2113,-1.1743,-1.1154,-1.0276,-0.9943,-0.9343,-0.8222,-0.7142,-0.6308,-0.581,-0.4952,-0.4522,-0.448,-0.448,-0.449,-0.4514,-0.4514,-0.3035,-0.0056,-0.0,-0.0,-0.0,-0.0,-0.0,-0.0,-0.0,-0.0,-0.0,-0.0,-0.0,-0.0,-0.0,-0.0,-0.0,-0.0,0.0537,0.1272,0.1261,0.2998,0.5396,0.5396,0.4506,0.3553,0.497,0.5382,0.5389,0.5379,0.5379,0.5386,0.5376,0.5379,0.5389,0.5389,0.5399,0.4721,0.1945,0.0605,-0.0,-0.0,-0.0,0.1078,0.473,0.5416,0.4526,0.1744,0.0537,-0.0,-0.0,-0.0,-0.0,-0.0,-0.0,-0.0,-0.0,-0.0,-0.0,-0.0,-0.0,-0.0,-0.0,-0.0,-0.0,-0.0,-0.0,-0.0,-0.0,-0.0,-0.0,-0.0,-0.0,-0.0,-0.0,-0.0,-0.0,0.9153,0.9282,0.9296,0.997,1.0233,1.0242,0.9696,0.6765,0.0,0.4459,0.0,0.047,-0.1467,-0.4918,-0.8329,-1.1104,-1.165,-1.1769,-1.1879,-1.1389,-1.0794,-1.0179,-0.9112,-0.867,-0.9207,-0.7431,-0.63,-0.6514,-0.5281,-0.4522,-0.448,-0.448,-0.449,-0.4514,-0.4514,-0.3035,-0.0056,-0.0,-0.0,-0.0,-0.0,-0.0,-0.0,-0.0,-0.0,-0.0,-0.0,-0.0,-0.0,-0.0,-0.0,-0.0,-0.0,0.2078,0.504,0.498,0.515,0.5396,0.5396,0.5326,0.5256,0.5382,0.5379,0.5376,0.5432,0.5428,0.5428,0.5428,0.5428,0.5432,0.5376,0.5389,0.5329,0.5068,0.2424,-0.0,-0.0,-0.0,0.1078,0.473,0.543,0.5302,0.5071,0.2221,-0.0,-0.0,-0.0,-0.0,-0.0,-0.0,-0.0,-0.0,-0.0,-0.0,-0.0,-0.0,-0.0,-0.0,-0.0,-0.0,-0.0,-0.0,-0.0,-0.0,-0.0,-0.0,-0.0,-0.0,-0.0,-0.0,-0.0,-0.0,0.9059,0.9784,1.0497,1.0698,1.0522,0.0,0.0,0.4117,0.1325,0.0381,-0.1502,-0.3367,-0.4651,-0.702,-0.9148,-1.0267,-1.0903,-1.1116,-1.0826,-1.0371,-0.9808,-0.905,-0.8239,-0.7784,-0.7975,-0.6566,-0.5666,-0.5795,-0.5012,-0.4477,-0.449,-0.4497,-0.3649,-0.1738,-0.1682,-0.028,0.2751,0.095,0.0949,0.28,0.0894,-0.0,-0.0,-0.0,-0.0,-0.0,-0.0,-0.0,-0.0,-0.0,0.1307,0.3333,0.3332,0.3948,0.4842,0.4849,0.5108,0.5366,0.5172,0.5243,0.5394,0.5425,0.5394,0.5397,0.5422,0.5311,0.525,0.5345,0.5305,0.5269,0.5394,0.4567,0.403,0.5135,0.2627,-0.0,-0.0,-0.0,0.0404,0.1745,0.3842,0.5423,0.5413,0.4252,0.2627,0.0337,-0.0,-0.0,-0.0,-0.0,-0.0,-0.0,-0.0,-0.0,-0.0,-0.0,-0.0,-0.0,-0.0,-0.0,-0.0,-0.0,-0.0,-0.0,-0.0,-0.0,-0.0,-0.0,-0.0,-0.0,-0.0,-0.0,0.9218,1.0004,1.0597,1.0061,0.9029,0.7337,0.4172,0.1791,-0.0273,-0.216,-0.4183,-0.575,-0.6363,-0.7614,-0.877,-0.9273,-0.9708,-0.9958,-0.9917,-0.9398,-0.8725,-0.799,-0.7389,-0.6924,-0.6701,-0.5774,-0.5221,-0.5388,-0.4822,-0.4487,-0.4501,-0.4511,-0.2693,0.1289,0.1401,0.2186,0.3764,0.2235,0.2458,0.4497,0.2395,0.1409,0.1445,0.1442,0.141,0.1457,0.1609,0.1696,0.1713,0.1711,0.3046,0.5091,0.5111,0.4887,0.4485,0.4499,0.4755,0.5137,0.5084,0.4829,0.4523,0.4555,0.4528,0.4532,0.4561,0.4452,0.446,0.5077,0.5157,0.4986,0.4662,0.4082,0.3584,0.3659,0.1806,-0.0,-0.0,-0.0,-0.0,-0.0,0.2014,0.4048,0.5209,0.4456,0.2829,0.0404,-0.0,-0.0,-0.0,-0.0,-0.0,-0.0,-0.0,-0.0,-0.0,-0.0,-0.0,-0.0,-0.0,-0.0,-0.0,-0.0,-0.0,-0.0,-0.0,-0.0,-0.0,-0.0,-0.0,-0.0,-0.0,-0.0,0.9635,0.9669,0.8969,0.7533,0.5302,0.2727,-0.0,-0.0137,-0.0319,-0.2637,-0.4768,-0.6179,-0.6227,-0.6641,-0.7356,-0.8513,-0.8234,-0.8275,-0.9319,-0.8561,-0.7648,-0.7036,-0.6507,-0.6055,-0.5697,-0.5223,-0.509,-0.5557,-0.4938,-0.449,-0.4455,-0.4455,-0.1679,0.4284,0.4514,0.3764,0.2232,0.3744,0.4484,0.4497,0.4473,0.4473,0.4497,0.4497,0.4519,0.4542,0.5148,0.5366,0.5395,0.5395,0.5071,0.4479,0.451,0.448,0.4524,0.4513,0.4496,0.4559,0.52,0.4198,0.2705,0.2705,0.2644,0.2705,0.2705,0.2705,0.3013,0.4375,0.4935,0.4745,0.3138,0.4045,0.4473,0.0839,-0.0,-0.0,-0.0,-0.0,-0.0,-0.0,-0.0,0.1145,0.4727,0.2357,-0.0,-0.0,-0.0,-0.0,-0.0,-0.0,-0.0,-0.0,-0.0,-0.0,-0.0,-0.0,-0.0,-0.0,-0.0,-0.0,-0.0,-0.0,-0.0,-0.0,-0.0,-0.0,-0.0,-0.0,-0.0,-0.0,-0.0,-0.0,0.9665,0.9912,0.9463,0.6362,0.27,-0.0618,-0.2448,-0.3162,0.0,-0.5624,-0.5895,-0.6044,-0.6651,-0.6881,-0.7252,-0.8028,-0.7964,-0.7818,-0.7736,-0.7099,-0.6434,-0.5851,-0.5298,-0.4941,-0.4977,-0.4495,-0.4253,-0.4466,-0.4462,-0.3588,-0.1449,0.067,0.2181,0.2852,0.3931,0.4268,0.3802,0.4252,0.4477,0.4473,0.4522,0.4525,0.4484,0.4477,0.4501,0.4502,0.4714,0.479,0.4779,0.4772,0.4643,0.4482,0.4498,0.4509,0.4488,0.4512,0.3184,0.1661,0.394,0.4677,0.415,0.1649,0.0788,0.1198,0.3315,0.3218,0.269,0.4348,0.4723,0.4609,0.4333,0.3859,0.2926,0.056,-0.0,-0.0,-0.0,-0.0,-0.0,-0.0,-0.0,0.0337,0.1414,0.0741,-0.0,-0.0,-0.0,-0.0,-0.0,-0.0,-0.0,-0.0,-0.0,-0.0,-0.0,-0.0,-0.0,-0.0,-0.0,-0.0,-0.0,-0.0,-0.0,-0.0,-0.0,-0.0,-0.0,-0.0,-0.0,-0.0,-0.0,-0.0,1.066,1.0764,1.0007,0.6593,0.2465,-0.16,-0.4912,-0.554,-0.5711,-0.6644,-0.6003,-0.559,-0.6624,-0.6499,-0.6397,-0.6909,-0.6887,-0.6761,-0.6581,-0.6259,-0.5782,-0.5145,-0.4898,-0.4644,-0.4296,-0.356,-0.2903,-0.2462,-0.2708,-0.1781,0.0764,0.3187,0.4048,0.3125,0.4033,0.4484,0.4473,0.4473,0.4525,0.4519,0.4519,0.4522,0.4473,0.4522,0.4522,0.4477,0.4502,0.4488,0.4492,0.4485,0.4488,0.4525,0.4477,0.3744,0.2843,0.4039,0.3344,0.1953,0.3168,0.4225,0.4484,0.1119,0.041,0.1331,0.3736,0.3879,0.3355,0.437,0.4619,0.4524,0.4714,0.3632,0.2093,0.0421,-0.0,-0.0,-0.0,-0.0,-0.0,-0.0,-0.0,-0.0,-0.0,-0.0,-0.0,-0.0,-0.0,-0.0,-0.0,-0.0,-0.0,-0.0,-0.0,-0.0,-0.0,-0.0,-0.0,-0.0,-0.0,-0.0,-0.0,-0.0,-0.0,-0.0,-0.0,-0.0,-0.0,-0.0,-0.0,-0.0,-0.0,-0.0,1.2266,1.1933,1.0615,0.7587,0.3591,-0.1017,-0.655,-0.6698,-0.5778,-0.6178,-0.5353,-0.4937,-0.6129,-0.5619,-0.5164,-0.555,-0.5391,-0.5387,-0.5792,-0.5756,-0.5358,-0.4548,-0.4657,-0.4401,-0.3366,-0.2274,-0.1137,0.0095,0.0049,0.0664,0.2281,0.3685,0.4456,0.4473,0.4477,0.4525,0.457,0.4515,0.4515,0.457,0.4515,0.4519,0.4519,0.4519,0.4519,0.4519,0.4519,0.4519,0.4519,0.4519,0.4525,0.4477,0.4193,0.2393,0.0389,0.3413,0.4497,0.4324,0.2903,0.3299,0.4039,0.1284,0.1228,0.2512,0.4048,0.4504,0.4494,0.448,0.4477,0.4477,0.448,0.3463,0.2024,0.0407,0.018,0.0427,0.0415,0.0309,0.0193,0.0193,0.0197,0.0268,0.0268,0.0135,-0.0,-0.0,-0.0,-0.0,-0.0,-0.0,-0.0,-0.0,-0.0,-0.0,-0.0,-0.0,-0.0,-0.0,-0.0,-0.0,-0.0,-0.0,-0.0,-0.0,-0.0,-0.0,-0.0,-0.0,-0.0,-0.0,-0.0,-0.0,1.2653,1.2444,1.1283,0.6723,0.1882,-0.1883,-0.2469,-0.2943,-0.3753,-0.5491,-0.4998,-0.4485,-0.5131,-0.4852,-0.4768,-0.5487,-0.5261,-0.5067,-0.5374,-0.4679,-0.367,-0.2541,-0.1643,-0.1064,-0.0801,-0.0554,0.0094,0.1327,0.2217,0.3024,0.3723,0.4108,0.4331,0.4519,0.4522,0.4736,0.5273,0.4787,0.4787,0.5273,0.4732,0.4519,0.4519,0.4519,0.4519,0.4519,0.4519,0.4519,0.4519,0.4519,0.4519,0.4239,0.1886,0.0554,0.0388,0.3411,0.4497,0.4438,0.4141,0.4203,0.4383,0.3758,0.2907,0.2512,0.4042,0.449,0.448,0.4525,0.4522,0.4522,0.4477,0.4258,0.3309,0.062,0.18,0.3515,0.3549,0.2607,0.1738,0.1738,0.191,0.2144,0.2144,0.0926,-0.0,-0.0,-0.0,-0.0,-0.0,-0.0,-0.0,-0.0,-0.0,-0.0,-0.0,-0.0,-0.0,-0.0,-0.0,-0.0,-0.0,-0.0,-0.0,-0.0,-0.0,-0.0,-0.0,-0.0,-0.0,-0.0,-0.0,-0.0,1.3794,1.3684,1.2551,0.794,0.4603,0.2272,0.1442,0.0562,-0.0355,-0.1463,-0.2109,-0.2895,-0.4212,-0.3598,-0.2872,-0.2921,-0.27,-0.2586,-0.2592,-0.2169,-0.1646,-0.1022,0.0133,0.1067,0.165,0.1727,0.2115,0.3129,0.3765,0.4311,0.482,0.4828,0.4905,0.512,0.5263,0.5464,0.5827,0.5283,0.5164,0.5487,0.4842,0.4519,0.4519,0.4519,0.4519,0.4519,0.4519,0.4519,0.4519,0.4519,0.4522,0.4356,0.2781,0.2168,0.2339,0.3916,0.4487,0.4487,0.4477,0.4477,0.448,0.4494,0.3974,0.3458,0.4265,0.4484,0.4525,0.4519,0.4519,0.4519,0.4525,0.448,0.3974,0.195,0.3008,0.4515,0.4515,0.3842,0.3313,0.3313,0.3461,0.3597,0.3726,0.1656,-0.0,-0.0,-0.0,-0.0,-0.0,-0.0,-0.0,-0.0,-0.0,-0.0,-0.0,-0.0,-0.0,-0.0,-0.0,0.0808,0.2493,0.0943,-0.0,-0.0,-0.0,-0.0,-0.0,-0.0,-0.0,-0.0,-0.0,-0.0,1.4914,1.4725,1.367,1.0311,0.8845,0.7645,0.549,0.4224,0.3548,0.3602,0.1546,-0.0857,-0.2743,-0.1761,-0.0532,-0.0071,0.0115,0.0402,0.0936,0.0959,0.092,0.0919,0.1725,0.2768,0.3902,0.3858,0.4028,0.4767,0.4815,0.5026,0.5494,0.5504,0.5602,0.5809,0.5992,0.6131,0.6187,0.5633,0.5395,0.5445,0.4815,0.4497,0.4497,0.4525,0.4494,0.4519,0.4519,0.4519,0.4519,0.4519,0.4522,0.4477,0.4477,0.4484,0.449,0.448,0.4477,0.4473,0.4522,0.4519,0.4522,0.4487,0.448,0.4522,0.4487,0.448,0.4519,0.4519,0.4519,0.4519,0.4519,0.4525,0.4307,0.3456,0.3922,0.4507,0.4507,0.4482,0.45,0.45,0.4499,0.4607,0.4887,0.2711,0.0739,0.0123,-0.0,-0.0,-0.0,-0.0,-0.0,-0.0,0.0539,0.0674,0.0067,0.0269,0.0606,0.0943,0.0606,0.1951,0.5276,0.2493,0.0605,-0.0,-0.0,-0.0,-0.0,-0.0,-0.0,-0.0,-0.0,0.0337,1.502,1.427,1.3482,1.3448,1.1596,0.9866,1.0139,0.8637,0.7223,0.7365,0.3996,0.0957,0.0654,0.1022,0.1076,0.0142,0.0616,0.1747,0.3586,0.4275,0.4573,0.4587,0.4444,0.464,0.5494,0.4806,0.457,0.5178,0.5221,0.5321,0.5494,0.5504,0.5602,0.5809,0.5844,0.5913,0.6021,0.5309,0.5023,0.5168,0.4688,0.4494,0.4502,0.4487,0.4509,0.4519,0.4519,0.4519,0.4519,0.4519,0.4519,0.4519,0.4519,0.4522,0.4522,0.4522,0.4519,0.4519,0.4519,0.4519,0.4519,0.4477,0.4473,0.4519,0.4477,0.4473,0.4519,0.4519,0.4519,0.4519,0.4519,0.4525,0.4477,0.4307,0.4421,0.4484,0.4484,0.449,0.4497,0.4497,0.4629,0.4789,0.4867,0.4774,0.3591,0.0494,-0.0,-0.0,-0.0,-0.0,-0.0,-0.0,0.2829,0.3437,0.027,0.141,0.3019,0.459,0.3224,0.3291,0.5343,0.4934,0.3199,0.0065,-0.0,-0.0,-0.0,-0.0,-0.0,-0.0,-0.0,0.1683,1.4815,1.4552,1.4396,1.4545,1.364,1.2744,1.2997,1.1776,1.0499,1.0122,0.7759,0.5139,0.3181,0.3286,0.3543,0.3041,0.3358,0.3872,0.4499,0.4852,0.5061,0.5086,0.5065,0.5105,0.5329,0.5071,0.5081,0.5511,0.571,0.5961,0.6331,0.6337,0.6384,0.6451,0.6643,0.6626,0.6357,0.577,0.5148,0.4458,0.4321,0.4225,0.4228,0.404,0.4202,0.4513,0.4484,0.4519,0.4519,0.4519,0.4519,0.4519,0.4519,0.4519,0.4519,0.4519,0.4519,0.4519,0.4519,0.4519,0.4519,0.4477,0.4525,0.4519,0.4477,0.4525,0.4519,0.4519,0.4519,0.4519,0.4519,0.4522,0.4525,0.4525,0.4473,0.4477,0.4525,0.4525,0.4473,0.448,0.4591,0.4666,0.4694,0.4773,0.3762,0.0468,-0.0,-0.0,-0.0,0.1746,0.3001,0.3023,0.3535,0.3629,0.3094,0.2817,0.3487,0.5266,0.4648,0.4582,0.5336,0.5408,0.4671,0.3041,0.1046,-0.0,-0.0,-0.0,0.1029,0.3041,0.3015,0.3319,1.4714,1.4841,1.5085,1.5174,1.5174,1.5106,1.496,1.4135,1.3168,1.2423,1.1054,0.906,0.5968,0.5628,0.5799,0.5717,0.5709,0.5537,0.5042,0.512,0.5264,0.5264,0.5359,0.54,0.5227,0.5291,0.5446,0.5788,0.6076,0.6356,0.676,0.6874,0.6914,0.6914,0.7201,0.7051,0.6366,0.5774,0.4974,0.3989,0.3935,0.3904,0.3897,0.3986,0.4118,0.4291,0.4337,0.4348,0.4405,0.4446,0.4522,0.4525,0.4505,0.4519,0.4519,0.4519,0.4519,0.4519,0.4519,0.4519,0.4519,0.4473,0.4525,0.4519,0.4473,0.4525,0.4519,0.4519,0.4519,0.4519,0.4519,0.4519,0.4519,0.4522,0.4525,0.4473,0.4525,0.4477,0.4484,0.4494,0.449,0.4494,0.4511,0.3884,0.2581,0.0336,-0.0,0.0284,0.1055,0.3498,0.5239,0.5375,0.4142,0.386,0.5256,0.4161,0.3956,0.5322,0.5359,0.5137,0.4728,0.4687,0.4871,0.515,0.2528,0.1123,0.1159,0.1168,0.2302,0.4628,0.5162,0.4646,1.4938,1.4811,1.4933,1.5816,1.6175,1.6289,1.6146,1.5661,1.5027,1.4239,1.3039,1.1546,0.9577,0.8271,0.7319,0.6903,0.6568,0.6196,0.5798,0.6036,0.6222,0.621,0.6021,0.5943,0.6105,0.5632,0.5557,0.6142,0.6192,0.6206,0.6243,0.6505,0.6613,0.6613,0.6894,0.6617,0.5751,0.4651,0.4078,0.3999,0.3745,0.3629,0.3649,0.4704,0.4646,0.3648,0.3867,0.3989,0.4053,0.4362,0.4478,0.4492,0.4522,0.4519,0.4519,0.4519,0.4519,0.4519,0.4519,0.4519,0.4519,0.4519,0.4519,0.4519,0.4519,0.4519,0.4519,0.4519,0.4519,0.4519,0.4519,0.4519,0.4522,0.4477,0.4525,0.4525,0.449,0.4487,0.4484,0.4494,0.4504,0.4511,0.4514,0.2132,0.0168,-0.0,-0.0,0.1021,0.3887,0.4448,0.4743,0.535,0.5172,0.509,0.5382,0.5306,0.5299,0.5379,0.523,0.4435,0.2893,0.2818,0.3355,0.4526,0.4343,0.4281,0.4271,0.4278,0.3595,0.242,0.4472,0.5243,1.453,1.4898,1.4806,1.5226,1.5383,1.54,1.5268,1.5169,1.4941,1.444,1.3994,1.2989,1.0646,0.914,0.801,0.7333,0.7225,0.6995,0.6332,0.6718,0.6975,0.6719,0.68,0.6815,0.6666,0.6635,0.6636,0.6658,0.6599,0.6586,0.6586,0.6433,0.635,0.635,0.6451,0.6143,0.5435,0.4645,0.4256,0.426,0.4295,0.4073,0.3632,0.5067,0.5316,0.4683,0.4339,0.412,0.4022,0.4131,0.4319,0.4527,0.4524,0.4494,0.4519,0.4519,0.4519,0.4519,0.4519,0.4519,0.4519,0.4519,0.4519,0.4519,0.4519,0.4519,0.4519,0.4519,0.4519,0.4519,0.4519,0.4519,0.4349,0.368,0.4021,0.448,0.4504,0.3699,0.2736,0.179,0.32,0.3884,0.1964,0.2301,0.2865,0.2865,0.2071,0.1796,0.2899,0.4013,0.4762,0.4991,0.5016,0.5023,0.5084,0.5081,0.5081,0.5084,0.5099,0.4758,0.4063,0.2972,0.2552,0.2999,0.3989,0.4002,0.3019,0.3992,0.4265,0.3879,0.4644,0.4985,1.3216,1.4424,1.4925,1.5169,1.525,1.5236,1.5141,1.5145,1.5078,1.4651,1.4667,1.4076,1.1908,1.0333,0.9046,0.8037,0.793,0.7825,0.7286,0.7526,0.766,0.7369,0.7451,0.7347,0.6971,0.7033,0.7023,0.6795,0.6741,0.6696,0.6696,0.6399,0.6226,0.6189,0.6095,0.5825,0.5426,0.4866,0.4566,0.4571,0.4641,0.4531,0.4191,0.5225,0.5397,0.4876,0.4539,0.4176,0.3877,0.3872,0.4002,0.4212,0.4369,0.4417,0.4395,0.4498,0.4519,0.4519,0.4519,0.4519,0.4519,0.4519,0.4519,0.4519,0.4519,0.4519,0.4519,0.4519,0.4519,0.4519,0.4519,0.4522,0.4353,0.3677,0.4024,0.4428,0.4042,0.3474,0.2687,0.1681,0.2301,0.2525,0.1007,0.2805,0.4511,0.4507,0.3644,0.2961,0.2959,0.399,0.4711,0.4759,0.4785,0.4863,0.4914,0.4918,0.4918,0.4918,0.4941,0.4917,0.4797,0.3643,0.3,0.3,0.3966,0.3978,0.2954,0.3978,0.4594,0.4687,0.4738,0.4841,0.0,0.0,0.0,1.5695,1.5871,1.5921,1.5869,1.5795,1.5605,1.5019,1.5063,1.4818,1.3561,1.2036,1.0513,0.9077,0.8717,0.8607,0.8604,0.8453,0.8314,0.8216,0.7915,0.754,0.7084,0.6734,0.6548,0.6548,0.6518,0.651,0.6502,0.6361,0.6255,0.6192,0.5852,0.5698,0.5698,0.5171,0.4923,0.4929,0.4798,0.4915,0.5259,0.5285,0.4848,0.4094,0.4295,0.4089,0.3592,0.3586,0.3594,0.3627,0.4015,0.4187,0.421,0.4406,0.4515,0.4519,0.4519,0.4519,0.4519,0.4519,0.4519,0.4519,0.4519,0.4519,0.4519,0.4519,0.4519,0.4519,0.4519,0.4525,0.4477,0.4522,0.448,0.4206,0.3234,0.3811,0.4514,0.4455,0.2132,0.056,0.1952,0.3477,0.4507,0.4497,0.4497,0.449,0.448,0.448,0.4531,0.467,0.4684,0.4745,0.4894,0.4904,0.4904,0.4904,0.4765,0.4749,0.4762,0.4615,0.448,0.448,0.448,0.4473,0.4519,0.4473,0.4473,0.4522,0.4616,0.4762,0.9005,0.0,0.0,0.0,0.0,0.0,1.4689,1.4766,1.4832,1.472,1.5032,1.5013,1.3939,1.3091,1.2077,1.0563,0.9563,0.8863,0.8568,0.8939,0.9048,0.8557,0.8461,0.8291,0.7964,0.7608,0.7353,0.7353,0.7098,0.6816,0.6514,0.587,0.5662,0.5989,0.56,0.5397,0.5397,0.5268,0.5196,0.5203,0.5349,0.5145,0.4673,0.5199,0.4729,0.3563,0.4045,0.4026,0.3585,0.3622,0.3602,0.3607,0.3883,0.4053,0.42,0.4241,0.4372,0.4519,0.4519,0.4519,0.4519,0.4519,0.4519,0.4519,0.4519,0.4519,0.4519,0.4519,0.4519,0.4519,0.4519,0.4519,0.4522,0.4519,0.4473,0.4425,0.4138,0.432,0.4157,0.3077,0.3079,0.3023,0.2345,0.3469,0.4487,0.4484,0.4477,0.4525,0.4522,0.4522,0.4536,0.4577,0.458,0.4545,0.4585,0.4589,0.4589,0.4589,0.4548,0.4584,0.4587,0.4546,0.4522,0.4522,0.4522,0.4522,0.4519,0.4522,0.4522,0.4519,0.4563,0.4548,0.6367,0.8092,0.9759,1.1283,0.0,0.0,1.3505,1.3926,1.4337,1.4653,1.4964,1.5028,1.4503,1.3909,1.3175,1.223,1.1168,1.0229,0.9522,0.9409,0.9405,0.9438,0.8976,0.8535,0.8203,0.7839,0.7533,0.734,0.7104,0.6746,0.6242,0.5924,0.5639,0.545,0.5687,0.558,0.5086,0.5397,0.5459,0.5242,0.5455,0.5286,0.48,0.511,0.4671,0.3687,0.3967,0.3856,0.349,0.3554,0.3584,0.3615,0.3768,0.3949,0.4016,0.4076,0.4206,0.4277,0.4277,0.4277,0.4277,0.4277,0.4277,0.429,0.4355,0.4372,0.4385,0.4501,0.4519,0.4519,0.4519,0.4519,0.4519,0.4519,0.4522,0.4473,0.4473,0.4477,0.4252,0.335,0.3866,0.4206,0.3292,0.391,0.4477,0.4473,0.4522,0.4519,0.4519,0.4519,0.4519,0.4519,0.4519,0.4519,0.4519,0.4519,0.4519,0.4519,0.4519,0.4519,0.4519,0.4519,0.4519,0.4519,0.4519,0.4519,0.4519,0.4519,0.4519,0.4519,0.4519,0.4519,0.3587,0.4739,0.6207,0.8443,0.9848,0.0,1.2232,1.3234,1.4065,1.4743,1.4916,1.4956,1.5105,1.4546,1.3975,1.376,1.3078,1.2175,1.102,1.0065,0.9797,1.0629,0.9651,0.8757,0.8336,0.7904,0.7463,0.7029,0.685,0.6525,0.5972,0.6257,0.5987,0.4988,0.5884,0.5888,0.4866,0.5457,0.5591,0.5197,0.5219,0.5244,0.5221,0.4964,0.4629,0.4186,0.4069,0.38,0.3482,0.367,0.3697,0.3592,0.3721,0.3778,0.3809,0.3944,0.4005,0.4019,0.4019,0.4019,0.4019,0.4019,0.4019,0.4043,0.413,0.418,0.4224,0.4423,0.4519,0.4519,0.4519,0.4519,0.4519,0.4519,0.4519,0.4519,0.4519,0.4519,0.4522,0.4477,0.4487,0.4487,0.4522,0.4525,0.4473,0.4519,0.4519,0.4519,0.4519,0.4519,0.4519,0.4519,0.4519,0.4519,0.4519,0.4519,0.4519,0.4519,0.4519,0.4519,0.4519,0.457,0.4625,0.4625,0.4625,0.457,0.4519,0.4519,0.4519,0.4519,0.4519,0.4519,0.2254,0.2356,0.2089,0.3626,0.6629,0.0,1.0555,1.2318,1.394,1.4668,1.4953,1.5101,1.5236,1.5124,1.4764,1.3992,1.3714,1.3195,1.1995,1.1927,1.1873,1.1531,1.1166,1.0735,1.0208,0.9179,0.8441,0.8179,0.7181,0.6662,0.6923,0.6353,0.5988,0.5923,0.583,0.5556,0.5135,0.5057,0.5092,0.5197,0.5007,0.4831,0.473,0.4681,0.4476,0.4207,0.4183,0.4338,0.4573,0.4614,0.4227,0.3585,0.3609,0.369,0.3795,0.3826,0.3914,0.4019,0.4019,0.4019,0.4019,0.4019,0.4019,0.4026,0.4056,0.41,0.4224,0.4423,0.4519,0.4519,0.4519,0.4519,0.4519,0.4519,0.4519,0.4519,0.4519,0.4519,0.4519,0.4522,0.4522,0.4522,0.4519,0.4519,0.4522,0.4519,0.4519,0.4519,0.4519,0.4519,0.4519,0.4519,0.4519,0.4519,0.4519,0.4519,0.4519,0.4519,0.4519,0.4519,0.4519,0.5003,0.5328,0.5328,0.5328,0.5058,0.4519,0.4519,0.4519,0.4519,0.4519,0.4519,0.0333,0.0024,-0.0383,0.0881,0.313,0.0,0.0,0.9367,1.1348,1.2714,1.3197,1.3589,1.4355,1.415,1.4002,1.4428,1.4217,1.3917,1.3629,1.2908,1.2387,1.234,1.1818,1.1246,1.0693,1.0073,0.9455,0.8904,0.7826,0.7198,0.7191,0.6657,0.6192,0.586,0.6082,0.5866,0.5147,0.5241,0.5203,0.5014,0.499,0.4903,0.4691,0.4859,0.4731,0.442,0.4504,0.4541,0.4537,0.4611,0.4297,0.3809,0.3931,0.3883,0.3687,0.3687,0.3734,0.3799,0.3799,0.3799,0.3799,0.3799,0.3799,0.3816,0.3883,0.4012,0.4113,0.4314,0.4355,0.4372,0.4498,0.4519,0.4519,0.4519,0.4519,0.4519,0.4519,0.4519,0.4519,0.4519,0.4519,0.4519,0.4519,0.4519,0.4519,0.4519,0.4519,0.4519,0.4519,0.4519,0.4519,0.4519,0.4519,0.4519,0.4519,0.4519,0.4625,0.5003,0.4677,0.4791,0.55,0.5492,0.5651,0.6036,0.5706,0.5324,0.5003,0.468,0.4519,0.4519,0.4519,0.4519,-0.145,-0.2143,-0.2549,-0.1612,-0.0455,0.1088,0.0,0.0,0.0,1.079,1.1226,1.154,1.2629,1.2326,1.2481,1.4252,1.4138,1.4133,1.4988,1.3705,1.2896,1.3461,1.2884,1.2161,1.1536,1.1106,1.0447,0.9486,0.8752,0.8111,0.7502,0.7274,0.6706,0.5731,0.6393,0.6254,0.5184,0.5504,0.5368,0.4795,0.4982,0.497,0.4814,0.5084,0.4973,0.4614,0.4778,0.4613,0.4252,0.4362,0.4249,0.4,0.4228,0.3995,0.3578,0.3591,0.3598,0.3581,0.3581,0.3581,0.3581,0.3581,0.3581,0.3605,0.3748,0.3897,0.4053,0.4153,0.4214,0.4317,0.4433,0.457,0.4677,0.4677,0.4787,0.4897,0.4897,0.4897,0.4846,0.4736,0.4677,0.468,0.4515,0.4519,0.4519,0.4519,0.4519,0.4519,0.4519,0.4519,0.4519,0.4519,0.4519,0.457,0.468,0.4677,0.5003,0.5651,0.5222,0.5332,0.6367,0.5814,0.576,0.6367,0.5814,0.5433,0.5328,0.4787,0.4519,0.4519,0.4519,0.4519,-0.224,-0.3967,-0.5561,-0.5608,-0.3974,-0.1748,0.0493,0.0,0.7533,1.079,0.0,0.9731,0.9725,0.0,0.0,1.2265,1.2704,1.337,1.4884,1.4893,1.494,1.5428,1.5848,1.5729,1.4774,1.2955,1.138,1.0269,1.008,0.9559,0.8491,0.8412,0.7809,0.651,0.6557,0.6247,0.5463,0.5284,0.5059,0.4787,0.4594,0.4587,0.4807,0.4841,0.4751,0.4602,0.4631,0.4538,0.4392,0.4383,0.4228,0.3996,0.3909,0.3753,0.3565,0.3471,0.3506,0.3581,0.3581,0.3581,0.3581,0.3581,0.3581,0.3605,0.3748,0.3897,0.4053,0.4153,0.4338,0.4494,0.4515,0.4948,0.5378,0.5378,0.5873,0.6372,0.6372,0.6372,0.615,0.5487,0.5378,0.5218,0.4625,0.4519,0.4519,0.4519,0.4519,0.4519,0.4519,0.4519,0.4519,0.4519,0.4519,0.4732,0.5324,0.5378,0.5706,0.6421,0.6421,0.615,0.5651,0.5542,0.5542,0.5597,0.5542,0.5218,0.4625,0.4519,0.4519,0.4519,0.4519,0.4519,-0.4499,-0.6247,-0.7571,-0.7332,-0.6197,-0.4585,-0.247,0.0174,0.3147,0.6565,0.0,0.0,0.0,0.0,0.0,0.0,1.1209,1.1926,1.3225,1.4279,1.5046,1.5357,1.5553,1.5444,1.4905,1.3865,1.2951,1.2316,1.1882,1.1257,1.0381,0.9561,0.8697,0.7776,0.7188,0.665,0.613,0.5716,0.5321,0.4981,0.4749,0.4615,0.4568,0.4739,0.4785,0.4721,0.4916,0.4822,0.4526,0.4792,0.4596,0.4112,0.4207,0.4057,0.3771,0.4119,0.4298,0.4341,0.4148,0.4049,0.4008,0.3707,0.3581,0.3592,0.3649,0.3714,0.3795,0.3941,0.409,0.433,0.4839,0.5251,0.5597,0.6036,0.6367,0.6588,0.6588,0.6258,0.5869,0.5542,0.5164,0.4948,0.5054,0.5058,0.4948,0.457,0.5171,0.555,0.5113,0.5441,0.5719,0.5719,0.5719,0.5823,0.6091,0.6145,0.6475,0.7182,0.7235,0.6745,0.5542,0.5928,0.6145,0.6145,0.5706,0.5378,0.5058,0.4677,0.4519,0.4519,0.4519,0.4519,-0.5791,-0.742,-0.8579,-0.8492,-0.7882,-0.6886,-0.5239,-0.3297,-0.0937,0.2381,0.2836,0.0,0.0,0.0,0.6378,0.8848,0.0,1.0465,1.1837,1.3197,1.4336,1.5043,1.5243,1.5255,1.5038,1.4586,1.4283,1.4195,1.373,1.3092,1.2298,1.1296,1.0159,0.888,0.8139,0.7437,0.6746,0.6298,0.5774,0.5193,0.4975,0.4712,0.4393,0.4613,0.4683,0.4646,0.4881,0.479,0.4473,0.4794,0.4641,0.4172,0.4476,0.435,0.4058,0.4524,0.4794,0.4877,0.4608,0.4608,0.4565,0.4184,0.3968,0.384,0.384,0.3869,0.3931,0.404,0.4312,0.475,0.5392,0.5832,0.6249,0.6799,0.7074,0.7182,0.7182,0.6794,0.6357,0.614,0.571,0.5441,0.576,0.5651,0.5382,0.5117,0.5937,0.6421,0.5869,0.6258,0.6588,0.6588,0.6588,0.6696,0.6858,0.6912,0.7128,0.767,0.7343,0.6632,0.5542,0.5819,0.6046,0.6046,0.5492,0.5218,0.5218,0.4732,0.4519,0.4519,0.4519,0.4519,-0.5174,-0.6793,-0.837,-0.938,-0.9141,-0.8441,-0.7738,-0.5879,-0.3441,-0.0481,0.0724,0.1745,0.3279,0.3941,0.4987,0.7214,0.8083,0.0,0.0,1.1944,1.2945,1.4967,1.5938,1.6338,1.608,1.5334,1.5019,1.5397,1.5539,1.5105,1.3977,1.3887,1.2512,0.9552,0.9444,0.8671,0.7097,0.687,0.6308,0.5396,0.5184,0.4841,0.4401,0.44,0.434,0.4223,0.4229,0.416,0.4026,0.4026,0.4031,0.4031,0.4441,0.4576,0.4557,0.4315,0.4493,0.4898,0.4903,0.5042,0.5265,0.526,0.487,0.4391,0.4391,0.4521,0.4667,0.4671,0.5366,0.613,0.6186,0.6886,0.761,0.767,0.8209,0.8752,0.8752,0.8699,0.848,0.7777,0.7616,0.7396,0.6696,0.5982,0.576,0.6421,0.6588,0.6588,0.6588,0.6588,0.6588,0.6588,0.6588,0.6912,0.7616,0.767,0.767,0.7723,0.6357,0.5542,0.5487,0.4893,0.457,0.457,0.4519,0.4515,0.4515,0.4519,0.4519,0.4519,0.4519,0.4519,-0.5946,-0.7722,-0.9439,-1.008,-0.9169,-0.7934,-0.7255,-0.626,-0.4846,-0.2746,-0.2061,-0.1254,0.0623,0.1907,0.332,0.5318,0.6982,0.834,0.0,1.0615,1.1762,1.2656,1.3432,1.3878,1.38,1.3952,1.4333,1.5057,1.5588,1.5704,1.5276,1.4283,1.2885,1.1018,0.9887,0.8871,0.7968,0.7546,0.6933,0.6123,0.5562,0.497,0.4332,0.4373,0.4287,0.4076,0.4445,0.4418,0.418,0.4658,0.4666,0.4441,0.489,0.5055,0.5087,0.5153,0.5298,0.5431,0.5432,0.537,0.5303,0.5303,0.5173,0.5,0.5,0.5052,0.511,0.511,0.5402,0.5894,0.6634,0.712,0.7622,0.8277,0.8646,0.8804,0.8804,0.8427,0.7996,0.7723,0.7289,0.7176,0.7847,0.7782,0.741,0.6691,0.745,0.7883,0.7396,0.7777,0.8049,0.8049,0.8049,0.8156,0.8427,0.799,0.7509,0.702,0.6032,0.5324,0.4838,0.4625,0.4519,0.4519,0.4519,0.4519,0.4519,0.4519,0.4519,0.4519,0.4519,0.4519,-0.6586,-0.7977,-0.9324,-0.9895,-0.8973,-0.7803,-0.7278,-0.663,-0.5768,-0.4502,-0.3999,-0.3143,-0.1124,0.0431,0.1992,0.3804,0.5464,0.6704,0.0,0.9081,1.0285,1.0097,1.1543,1.2552,1.2528,1.2912,1.3659,1.4852,1.5342,1.5853,1.6399,1.5205,1.38,1.2316,1.0967,0.9753,0.8704,0.8201,0.7599,0.6884,0.6139,0.5415,0.4679,0.4565,0.4381,0.4155,0.4519,0.4559,0.4441,0.4922,0.5022,0.489,0.5182,0.5309,0.5336,0.5491,0.5691,0.589,0.5882,0.5879,0.5893,0.5803,0.571,0.561,0.561,0.561,0.561,0.561,0.5914,0.6367,0.7046,0.7474,0.7847,0.8501,0.8731,0.8857,0.9113,0.858,0.8256,0.8705,0.8231,0.8119,0.9252,0.9459,0.9148,0.8212,0.8712,0.8995,0.8508,0.8633,0.8804,0.8804,0.8804,0.8699,0.8427,0.7498,0.674,0.6253,0.5546,0.5054,0.4842,0.4625,0.4625,0.4838,0.4838,0.4838,0.4838,0.5117,0.5226,0.5226,0.5226,0.5226]},{"header":{"parameterUnit":"m.s-1","parameterCategory":1,"la1":30.6,"la2":29.2853,"lo1":-89.7004,"lo2":-87.6739,"dy":0.0162,"dx":0.0183,"nx":112,"ny":82,"refTime":"2024-06-24T00:00:00:Z","depth":0,"parameterNumber":3,"parameterNumberName":"V-component_of_WINDS"},"data":[0.0,0.0,0.0,0.0,0.0,0.0,0.0,0.0,0.0,0.0,0.0,0.0,0.0,0.0,0.0,0.0,0.0,0.0,0.0,0.0,0.0,0.0,0.0,0.0,0.0,0.0,0.0,0.0,0.0,0.0,0.0,0.0,0.0,0.0,0.0,0.0,0.0,0.0,0.0,0.0,0.0,0.0,0.0,0.0,0.0,0.0,0.0,0.0,0.0,0.0,0.0,0.0,0.0,0.0,0.0,0.0,0.0,0.0,0.0,0.0,0.0,0.0,0.0,0.0,0.0,0.0,0.0,0.0,0.0,0.0,0.0,0.0,0.0,0.0,0.0,0.0,0.0,0.0,0.0,0.0,0.0,0.0,0.0,0.0,0.0,0.0,0.0,0.0,0.0,0.0,-1.9378,-1.706,-1.4369,-1.3437,-1.525,-1.6321,-1.8157,-2.1089,0.0,0.0,0.0,0.0,0.0,0.0,0.0,0.0,0.0,0.0,0.0,0.0,0.0,0.0,0.0,0.0,0.0,0.0,0.0,0.0,0.0,0.0,0.0,0.0,0.0,0.0,0.0,0.0,0.0,0.0,0.0,0.0,0.0,0.0,0.0,0.0,0.0,0.0,0.0,0.0,0.0,0.0,0.0,0.0,0.0,0.0,0.0,0.0,0.0,0.0,0.0,0.0,0.0,0.0,0.0,0.0,0.0,0.0,0.0,0.0,0.0,0.0,0.0,0.0,0.0,0.0,0.0,0.0,0.0,0.0,0.0,0.0,0.0,0.0,0.0,0.0,0.0,0.0,0.0,0.0,0.0,0.0,0.0,0.0,0.0,0.0,0.0,0.0,0.0,0.0,0.0,0.0,0.0,0.0,0.0,0.0,0.0,0.0,0.0,0.0,0.0,0.0,0.0,0.0,-1.8244,-1.4583,-1.2852,-1.2735,-1.4675,-1.6093,-1.801,-2.057,0.0,0.0,0.0,0.0,0.0,0.0,0.0,0.0,0.0,0.0,0.0,0.0,0.0,0.0,0.0,0.0,0.0,0.0,0.0,0.0,0.0,0.0,0.0,0.0,0.0,0.0,0.0,0.0,0.0,0.0,0.0,0.0,0.0,0.0,0.0,0.0,0.0,0.0,0.0,0.0,0.0,0.0,0.0,0.0,0.0,0.0,0.0,0.0,0.0,0.0,0.0,0.0,0.0,0.0,0.0,0.0,0.0,0.0,0.0,0.0,0.0,0.0,0.0,0.0,0.0,0.0,0.0,0.0,0.0,0.0,0.0,0.0,0.0,0.0,0.0,0.0,0.0,0.0,0.0,0.0,0.0,0.0,0.0,0.0,0.0,0.0,0.0,0.0,0.0,0.0,0.0,0.0,0.0,0.0,0.0,0.0,0.0,0.0,0.0,0.0,0.0,0.0,0.0,-1.7181,-1.4756,-1.23,-1.1567,-1.2055,-1.3996,-1.5659,-1.771,-2.0315,-2.2019,0.0,0.0,0.0,0.0,0.0,0.0,0.0,0.0,0.0,0.0,0.0,0.0,0.0,0.0,0.0,0.0,0.0,0.0,0.0,0.0,0.0,0.0,0.0,0.0,0.0,0.0,0.0,0.0,0.0,0.0,0.0,0.0,0.0,0.0,0.0,0.0,0.0,0.0,0.0,0.0,0.0,0.0,0.0,0.0,0.0,0.0,0.0,0.0,0.0,0.0,0.0,0.0,0.0,0.0,0.0,0.0,0.0,0.0,0.0,0.0,0.0,0.0,0.0,0.0,0.0,0.0,0.0,0.0,0.0,0.0,0.0,0.0,0.0,0.0,0.0,0.0,0.0,0.0,0.0,0.0,0.0,0.0,0.0,0.0,0.0,0.0,0.0,0.0,0.0,0.0,0.0,0.0,0.0,0.0,0.0,0.0,0.0,0.0,0.0,0.0,0.0,0.0,-1.3696,-1.0968,-1.0054,-1.0303,-1.1379,-1.3496,-1.5301,-1.7472,-2.0242,-2.179,0.0,0.0,0.0,0.0,0.0,0.0,0.0,0.0,0.0,0.0,0.0,0.0,0.0,0.0,0.0,0.0,0.0,0.0,0.0,0.0,0.0,0.0,0.0,0.0,0.0,0.0,0.0,0.0,0.0,0.0,0.0,0.0,0.0,0.0,0.0,0.0,0.0,0.0,0.0,0.0,0.0,0.0,0.0,0.0,0.0,0.0,0.0,0.0,0.0,0.0,0.0,0.0,0.0,0.0,0.0,0.0,0.0,0.0,0.0,0.0,0.0,0.0,0.0,0.0,0.0,0.0,0.0,0.0,0.0,0.0,0.0,0.0,0.0,0.0,0.0,0.0,0.0,0.0,0.0,0.0,0.0,0.0,0.0,0.0,0.0,0.0,0.0,0.0,0.0,0.0,0.0,0.0,0.0,0.0,0.0,0.0,0.0,0.0,0.0,0.0,0.0,0.0,-1.0926,-0.7887,-0.7804,-0.8975,-1.0822,-1.3496,-1.5301,-1.7472,-2.0242,-2.1857,0.0,0.0,0.0,0.0,0.0,0.0,0.0,0.0,0.0,0.0,0.0,0.0,0.0,0.0,0.0,0.0,0.0,0.0,0.0,0.0,0.0,0.0,0.0,0.0,0.0,0.0,0.0,0.0,0.0,0.0,0.0,0.0,0.0,0.0,0.0,0.0,0.0,0.0,0.0,0.0,0.0,0.0,0.0,0.0,0.0,0.0,0.0,0.0,0.0,0.0,0.0,0.0,0.0,0.0,0.0,0.0,0.0,0.0,0.0,0.0,0.0,0.0,0.0,0.0,0.0,0.0,0.0,0.0,0.0,0.0,0.0,0.0,0.0,0.0,0.0,0.0,0.0,0.0,0.0,0.0,0.0,0.0,0.0,0.0,0.0,0.0,0.0,0.0,0.0,0.0,0.0,0.0,0.0,0.0,0.0,0.0,0.0,0.0,0.0,0.0,0.0,0.0,-1.0445,-0.7446,-0.7031,-0.8586,-1.0614,-1.2877,-1.5045,-1.7472,-2.0242,0.0,0.0,0.0,0.0,0.0,0.0,0.0,0.0,0.0,0.0,0.0,0.0,0.0,0.0,0.0,0.0,0.0,0.0,0.0,0.0,0.0,0.0,0.0,0.0,0.0,0.0,0.0,0.0,0.0,0.0,0.0,0.0,0.0,0.0,0.0,0.0,0.0,0.0,0.0,0.0,0.0,0.0,0.0,0.0,0.0,0.0,0.0,0.0,0.0,0.0,0.0,0.0,0.0,0.0,0.0,0.0,0.0,0.0,0.0,0.0,0.0,0.0,0.0,0.0,0.0,0.0,0.0,0.0,0.0,0.0,0.0,0.0,0.0,0.0,0.0,0.0,0.0,0.0,0.0,0.0,0.0,0.0,0.0,0.0,0.0,0.0,0.0,0.0,0.0,0.0,0.0,0.0,0.0,0.0,0.0,0.0,0.0,0.0,0.0,0.0,0.0,0.0,-1.4168,-1.0051,-0.7084,-0.6607,-0.843,-1.0614,-1.2819,-1.5033,-1.7421,-2.0049,0.0,0.0,0.0,0.0,0.0,0.0,0.0,0.0,0.0,0.0,0.0,0.0,0.0,0.0,0.0,0.0,0.0,0.0,0.0,0.0,0.0,0.0,0.0,0.0,0.0,0.0,0.0,0.0,0.0,0.0,0.0,0.0,0.0,0.0,0.0,0.0,0.0,0.0,0.0,0.0,0.0,0.0,0.0,0.0,0.0,0.0,0.0,0.0,0.0,0.0,0.0,0.0,0.0,0.0,0.0,0.0,0.0,0.0,0.0,0.0,0.0,0.0,0.0,0.0,0.0,0.0,0.0,0.0,0.0,0.0,0.0,0.0,0.0,0.0,0.0,0.0,0.0,0.0,0.0,0.0,0.0,0.0,0.0,0.0,0.0,0.0,0.0,0.0,0.0,0.0,0.0,0.0,0.0,0.0,0.0,0.0,0.0,0.0,0.0,0.0,0.0,0.0,-1.3687,-0.9492,-0.6612,-0.6541,-0.8449,-1.0822,-1.3496,-1.5301,-1.7356,0.0,0.0,0.0,0.0,0.0,0.0,0.0,0.0,0.0,0.0,0.0,0.0,0.0,0.0,0.0,0.0,0.0,0.0,0.0,0.0,0.0,0.0,0.0,0.0,0.0,0.0,0.0,0.0,0.0,0.0,0.0,0.0,0.0,0.0,0.0,0.0,0.0,0.0,0.0,0.0,0.0,0.0,0.0,0.0,0.0,0.0,0.0,0.0,0.0,0.0,0.0,0.0,0.0,0.0,0.0,0.0,0.0,0.0,0.0,0.0,0.0,0.0,0.0,0.0,0.0,0.0,0.0,0.0,0.0,0.0,0.0,0.0,0.0,0.0,0.0,0.0,0.0,0.0,0.0,0.0,0.0,0.0,0.0,0.0,0.0,0.0,0.0,0.0,0.0,0.0,0.0,0.0,0.0,0.0,0.0,0.0,0.0,0.0,0.0,0.0,0.0,0.0,0.0,-1.4637,-1.1131,-0.8781,-0.8721,-1.0589,-1.2676,-1.4733,-1.6168,-1.7921,-2.0319,0.0,0.0,0.0,0.0,0.0,0.0,0.0,0.0,0.0,0.0,0.0,0.0,0.0,0.0,0.0,0.0,0.0,0.0,0.0,0.0,0.0,0.0,0.0,0.0,0.0,0.0,0.0,0.0,0.0,0.0,0.0,0.0,0.0,0.0,0.0,0.0,0.0,0.0,0.0,0.0,0.0,0.0,0.0,0.0,0.0,0.0,0.0,0.0,0.0,0.0,0.0,0.0,0.0,0.0,0.0,0.0,0.0,0.0,0.0,0.0,0.0,0.0,0.0,0.0,0.0,0.0,0.0,0.0,0.0,0.0,0.0,0.0,0.0,0.0,0.0,0.0,0.0,0.0,0.0,0.0,0.0,0.0,0.0,0.0,0.0,0.0,0.0,0.0,0.0,0.0,0.0,0.0,0.0,0.0,0.0,0.0,0.0,0.0,0.0,0.0,0.0,0.0,-1.5485,-1.273,-1.0789,-1.0456,-1.2253,-1.4095,-1.5651,-1.6991,-1.8536,-2.0396,0.0,0.0,0.0,0.0,0.0,0.0,0.0,0.0,0.0,0.0,0.0,0.0,0.0,0.0,0.0,0.0,0.0,0.0,0.0,0.0,0.0,0.0,0.0,0.0,0.0,0.0,0.0,0.0,0.0,0.0,0.0,0.0,0.0,0.0,0.0,0.0,0.0,0.0,0.0,0.0,0.0,0.0,0.0,0.0,0.0,0.0,0.0,0.0,0.0,0.0,0.0,0.0,0.0,0.0,0.0,0.0,0.0,0.0,0.0,0.0,0.0,0.0,0.0,0.0,0.0,0.0,0.0,0.0,0.0,0.0,0.0,0.0,0.0,0.0,0.0,0.0,0.0,0.0,0.0,0.0,0.0,0.0,0.0,0.0,0.0,0.0,0.0,0.0,0.0,0.0,0.0,0.0,0.0,0.0,0.0,0.0,0.0,0.0,0.0,0.0,0.0,0.0,-1.628,-1.4213,-1.2695,-1.2098,-1.3594,-1.5201,-1.6566,-1.7912,-1.914,-2.0258,0.0,0.0,0.0,0.0,0.0,0.0,0.0,0.0,0.0,0.0,0.0,0.0,0.0,0.0,0.0,0.0,0.0,0.0,0.0,0.0,0.0,0.0,0.0,0.0,0.0,0.0,0.0,0.0,0.0,0.0,0.0,0.0,0.0,0.0,0.0,0.0,0.0,0.0,0.0,0.0,0.0,0.0,0.0,0.0,0.0,0.0,0.0,0.0,0.0,0.0,0.0,0.0,0.0,0.0,0.0,0.0,0.0,0.0,0.0,0.0,-2.0574,-2.0446,0.0,0.0,0.0,0.0,0.0,0.0,0.0,0.0,0.0,0.0,0.0,0.0,0.0,0.0,0.0,0.0,0.0,0.0,0.0,0.0,0.0,0.0,0.0,0.0,0.0,0.0,0.0,0.0,0.0,0.0,0.0,0.0,0.0,0.0,0.0,0.0,0.0,0.0,0.0,0.0,-1.7287,-1.5792,-1.4835,-1.4631,-1.5433,-1.6809,-1.874,-1.92,-1.9932,-2.1227,-2.216,0.0,0.0,0.0,0.0,0.0,0.0,0.0,0.0,0.0,0.0,0.0,0.0,0.0,0.0,0.0,0.0,0.0,0.0,0.0,0.0,0.0,0.0,0.0,0.0,0.0,0.0,0.0,0.0,0.0,0.0,0.0,0.0,0.0,0.0,0.0,0.0,0.0,0.0,0.0,0.0,0.0,0.0,0.0,0.0,0.0,0.0,0.0,0.0,0.0,0.0,0.0,0.0,0.0,0.0,0.0,0.0,0.0,0.0,0.0,-2.1022,-2.096,0.0,0.0,0.0,0.0,0.0,0.0,0.0,0.0,0.0,0.0,0.0,0.0,0.0,0.0,0.0,0.0,0.0,0.0,0.0,0.0,0.0,0.0,0.0,0.0,0.0,0.0,0.0,0.0,0.0,0.0,0.0,0.0,0.0,0.0,0.0,0.0,0.0,0.0,0.0,0.0,-1.8641,-1.7695,-1.7118,-1.6797,-1.7476,-1.8398,-1.9498,-2.0184,-2.0911,-2.1786,-2.2496,0.0,0.0,0.0,0.0,0.0,0.0,0.0,0.0,0.0,0.0,0.0,0.0,0.0,0.0,0.0,0.0,0.0,0.0,0.0,0.0,0.0,0.0,0.0,0.0,0.0,0.0,0.0,0.0,0.0,0.0,0.0,0.0,0.0,0.0,0.0,0.0,0.0,0.0,0.0,0.0,0.0,0.0,0.0,0.0,0.0,0.0,0.0,0.0,0.0,0.0,0.0,0.0,0.0,-1.9999,-2.0482,-2.0906,-2.1389,-2.1601,-2.1613,-2.1632,-2.1626,-2.1647,-2.2302,0.0,0.0,0.0,0.0,0.0,0.0,0.0,0.0,0.0,0.0,0.0,0.0,0.0,0.0,0.0,0.0,0.0,0.0,0.0,0.0,0.0,0.0,-2.2063,-2.1372,-2.1968,-2.272,-2.2818,0.0,0.0,0.0,0.0,0.0,0.0,0.0,0.0,0.0,0.0,0.0,-2.0244,-1.9864,-1.9502,-1.9003,-1.9526,-1.997,-2.0126,-2.1039,-2.1757,-2.218,-2.2813,-2.3346,0.0,0.0,0.0,0.0,0.0,0.0,0.0,0.0,0.0,0.0,0.0,0.0,0.0,0.0,0.0,0.0,0.0,0.0,0.0,0.0,0.0,0.0,0.0,0.0,0.0,0.0,0.0,0.0,0.0,0.0,0.0,0.0,-1.7229,-1.9117,0.0,0.0,0.0,0.0,0.0,0.0,0.0,0.0,0.0,0.0,0.0,0.0,0.0,-2.0137,-2.0192,-1.9852,-1.9675,-1.9645,-2.0095,-2.0318,-2.0406,-2.1228,-2.1611,-2.1625,-2.2032,0.0,-2.1637,-2.2017,0.0,0.0,0.0,0.0,0.0,0.0,0.0,0.0,0.0,0.0,0.0,0.0,0.0,0.0,0.0,0.0,0.0,0.0,0.0,0.0,0.0,0.0,-2.1744,-2.1932,-2.2345,-2.2878,-2.3584,-2.354,-2.3693,-2.4622,-2.3737,-2.3358,0.0,0.0,0.0,0.0,0.0,0.0,-2.2123,-2.2046,-2.1984,-2.1872,-2.1373,-2.1403,-2.2216,-2.1866,-2.189,-2.2574,-2.2996,-2.3346,-2.3692,-2.4174,0.0,0.0,0.0,0.0,0.0,0.0,0.0,0.0,0.0,0.0,0.0,0.0,0.0,0.0,0.0,0.0,0.0,0.0,0.0,0.0,0.0,0.0,0.0,0.0,0.0,0.0,0.0,0.0,0.0,-1.6516,-1.8225,-1.9879,-2.0664,-2.1249,0.0,0.0,0.0,0.0,0.0,0.0,0.0,0.0,0.0,-2.07,-2.0665,-2.0786,-2.0988,-2.1144,-2.137,-2.1672,-2.1425,-2.1434,-2.1631,-2.1608,-2.1973,-2.2649,-2.3056,-2.338,-2.3545,-2.3283,-2.3738,-2.4667,0.0,0.0,0.0,0.0,-2.5719,-2.556,-2.5303,-2.5008,-2.4664,-2.4224,0.0,0.0,0.0,0.0,0.0,0.0,0.0,-2.4247,-2.3562,-2.3278,-2.3148,-2.311,-2.389,-2.4706,-2.5118,-2.5269,-2.5268,-2.5079,-2.4663,-2.4584,-2.5419,-2.4984,0.0,0.0,0.0,-2.4232,-2.351,-2.3431,-2.3418,-2.3412,-2.3026,-2.2802,-2.2959,-2.2929,-2.3003,-2.3248,-2.3392,-2.3678,-2.4136,-2.4373,-2.462,0.0,0.0,0.0,0.0,0.0,0.0,0.0,0.0,0.0,0.0,0.0,0.0,0.0,0.0,0.0,0.0,0.0,0.0,0.0,0.0,0.0,0.0,0.0,0.0,0.0,0.0,0.0,0.0,-1.7708,-1.8867,-2.0276,-2.1168,-2.1809,0.0,0.0,0.0,0.0,0.0,0.0,-2.3055,-2.2831,-2.2275,-2.1447,-2.1681,-2.1834,-2.1918,-2.2383,-2.2808,-2.3183,-2.2754,-2.272,-2.3005,-2.2666,-2.3005,-2.3869,-2.4235,-2.4838,-2.5481,-2.4718,-2.4901,-2.5685,-2.598,-2.6311,-2.6608,-2.6609,-2.6545,-2.6428,-2.6191,-2.6056,-2.5889,-2.5308,-2.5763,-2.6377,-2.5597,0.0,0.0,0.0,0.0,-2.5382,-2.4844,-2.4717,-2.4688,-2.4663,-2.5467,-2.6339,-2.6586,-2.6947,-2.6925,-2.6013,-2.5861,-2.6037,-2.6419,-2.6357,0.0,-2.5927,-2.6,-2.5907,-2.5511,-2.5274,-2.5175,-2.5175,-2.4828,-2.4506,-2.4144,-2.4053,-2.402,-2.4013,-2.3868,-2.3984,-2.4478,-2.4572,-2.4752,-2.4998,0.0,0.0,0.0,0.0,0.0,0.0,0.0,0.0,0.0,0.0,0.0,0.0,0.0,0.0,0.0,0.0,0.0,0.0,0.0,0.0,0.0,0.0,0.0,0.0,0.0,0.0,0.0,0.0,0.0,-1.9888,-2.0474,0.0,0.0,0.0,0.0,-2.4266,-2.3862,-2.353,-2.3458,-2.3272,-2.3136,-2.3083,-2.3092,-2.3106,-2.3125,-2.3159,-2.3175,-2.3208,-2.3602,-2.3829,-2.3869,-2.4607,-2.4958,-2.5045,-2.537,-2.5987,-2.664,-2.5832,-2.5732,-2.6062,-2.6095,-2.6304,-2.6604,-2.6599,-2.6413,-2.6131,-2.6103,-2.5895,-2.5786,-2.6819,-2.7414,-2.7545,-2.6756,-2.6332,0.0,0.0,-2.5858,-2.5604,-2.5567,-2.554,-2.5713,-2.647,-2.672,-2.6952,-2.7667,-2.8076,-2.8218,-2.783,-2.7218,-2.7201,-2.8674,0.0,-2.8429,-2.9816,-2.8776,-2.812,-2.8771,-2.8182,-2.7694,-2.7694,-2.7098,-2.6649,-2.6613,-2.5242,-2.4521,-2.4807,-2.4306,-2.4137,-2.4495,-2.4804,-2.4967,-2.501,-2.5261,0.0,0.0,0.0,0.0,0.0,0.0,0.0,0.0,0.0,0.0,0.0,0.0,0.0,0.0,0.0,0.0,0.0,0.0,0.0,0.0,0.0,0.0,0.0,0.0,0.0,0.0,0.0,0.0,-2.0298,-2.1194,0.0,-2.2395,-2.2901,-2.3518,-2.4208,-2.3967,-2.3788,-2.3779,-2.3677,-2.3523,-2.3186,-2.3632,-2.3988,-2.4347,-2.4779,-2.5146,-2.5464,-2.5423,-2.539,-2.5379,-2.5415,-2.5692,-2.6197,-2.6561,-2.7133,-2.7825,-2.7787,-2.772,-2.7606,-2.7866,-2.8036,-2.815,-2.815,-2.8054,-2.7963,-2.7981,-2.7893,-2.7858,-2.8244,-2.8123,-2.7938,-2.8699,-2.8828,-2.8864,-2.9375,-2.9278,-2.8881,-2.8316,-2.8171,-2.8054,-2.7606,-2.7864,-2.8366,-2.8892,-2.93,-2.9685,-3.0093,-2.953,-2.933,-3.0394,-3.0366,-3.0331,-3.0635,-3.0212,-2.9858,-2.9876,-2.9178,-2.8652,-2.8652,-2.7979,-2.7388,-2.7064,-2.6516,-2.6199,-2.6202,-2.6005,-2.5794,-2.5669,-2.5804,-2.571,-2.528,-2.5379,-2.5464,0.0,0.0,0.0,0.0,0.0,0.0,0.0,0.0,0.0,0.0,0.0,0.0,0.0,0.0,0.0,0.0,0.0,0.0,0.0,0.0,0.0,0.0,0.0,0.0,0.0,-1.9814,-2.0382,-2.0016,-2.1123,-2.1966,-2.2102,-2.2716,-2.3377,-2.4053,-2.3875,-2.393,-2.4462,-2.4479,-2.4448,-2.4392,-2.4808,-2.5295,-2.5765,-2.6236,-2.6657,-2.708,-2.6878,-2.6761,-2.6782,-2.6608,-2.6861,-2.7364,-2.772,-2.815,-2.8659,-2.9278,-2.937,-2.9163,-2.9333,-2.9242,-2.9035,-2.9297,-2.9242,-2.8994,-2.8994,-2.9177,-2.9402,-2.9402,-2.9242,-2.9209,-3.0277,-3.0595,-3.0725,-3.1243,-3.1256,-3.0931,-3.0345,-3.021,-3.0031,-2.9258,-2.9447,-2.9886,-3.0137,-3.041,-3.0834,-3.1641,-3.1366,-3.1182,-3.1715,-3.2027,-3.2114,-3.1901,-3.1656,-3.1392,-3.1114,-3.0384,-2.9908,-2.999,-2.9303,-2.8717,-2.8484,-2.7695,-2.7276,-2.7417,-2.6979,-2.6726,-2.6759,-2.6607,-2.6304,-2.5882,-2.5947,-2.6122,-2.6432,0.0,0.0,0.0,0.0,0.0,0.0,0.0,0.0,0.0,0.0,0.0,0.0,0.0,0.0,0.0,0.0,0.0,0.0,0.0,0.0,0.0,0.0,0.0,-1.981,-1.9621,-1.9464,-1.8994,-2.0147,-2.1118,-2.1453,-2.2015,-2.2764,-2.3857,-2.3663,-2.4117,-2.5571,-2.5671,-2.5995,-2.6725,-2.6725,-2.6928,-2.7317,-2.7317,-2.752,-2.7894,-2.7917,-2.7926,-2.7936,-2.8257,-2.8434,-2.8453,-2.8847,-2.9012,-2.9108,-3.0162,-3.0618,-3.0586,-3.0356,-2.9789,-2.9191,-2.9941,-2.9734,-2.9076,-2.9095,-2.9609,-3.0252,-3.0252,-3.0796,-3.1439,-3.1459,-3.1464,-3.1468,-3.1498,-3.1483,-3.1483,-3.1465,-3.1477,-3.1439,-3.1427,-3.1409,-3.1409,-3.147,-3.147,-3.1709,-3.2511,-3.2676,-3.2676,-3.2651,-3.3293,-3.3815,-3.3815,-3.3172,0.0,-3.2676,-3.196,-3.1555,-3.1818,-3.1129,-3.0747,-3.0977,-2.8749,-2.7673,-2.8482,-2.721,-2.681,-2.7706,-2.711,-2.6801,-2.6841,-2.69,-2.7384,-2.8291,0.0,0.0,0.0,0.0,0.0,0.0,0.0,0.0,0.0,0.0,0.0,0.0,0.0,0.0,0.0,0.0,0.0,0.0,0.0,0.0,0.0,-2.076,-2.0608,-1.986,-2.015,-2.0225,-1.9549,-2.0398,-2.1023,-2.1118,-2.2335,-2.3447,-2.4269,-2.5029,-2.5853,-2.6774,-2.7112,-2.7367,-2.7538,-2.7589,-2.7623,-2.7742,-2.7734,-2.779,-2.7886,-2.8164,-2.8264,-2.829,-2.8658,-2.895,-2.913,-2.9245,-2.937,-2.9577,-3.0522,-3.0895,-3.0928,-3.1448,-3.1499,-3.1282,-3.0903,-3.064,-3.0527,-3.1109,-3.1485,-3.1634,-3.1634,-3.18,-3.2107,-3.2678,-3.2845,-3.2961,-3.3611,-3.3788,-3.3633,-3.303,-3.2719,-3.2463,-3.2073,-3.1831,-3.1905,-3.2681,-3.2854,-3.3095,-3.3955,-3.4124,-3.3989,-3.3537,-3.3813,-3.4074,-3.4074,-3.412,-3.4124,-3.4124,-3.3377,-3.2874,-3.2955,-3.2241,-3.1544,-3.1033,-3.0354,-2.9855,-2.9601,-2.9222,-2.8905,-2.8725,-2.8579,-2.8264,-2.7754,-2.7751,-2.7906,0.0,0.0,0.0,0.0,0.0,0.0,0.0,0.0,0.0,0.0,0.0,0.0,0.0,0.0,0.0,0.0,0.0,0.0,0.0,0.0,0.0,0.0,-2.1093,-2.0986,-2.0373,-2.0336,-2.015,-1.9702,-2.0733,-2.152,-2.1713,-2.3164,-2.4423,-2.5152,-2.5997,-2.6757,-2.7508,-2.7783,-2.7903,-2.7903,-2.7887,-2.7965,-2.81,-2.8128,-2.8202,-2.8352,-2.8662,-2.8815,-2.8833,-2.9151,-2.9375,-2.9532,-2.953,-2.9794,-3.032,-3.128,-3.1865,-3.2206,0.0,0.0,0.0,0.0,-3.1501,-3.1561,-3.2052,-3.243,-3.2694,-3.2713,-3.2956,-3.3346,-3.3809,-3.3938,-3.4035,-3.4555,-3.4701,-3.4588,-3.4076,-3.3829,-3.3623,-3.331,-3.3123,-3.3181,-3.3807,-3.394,-3.4091,-3.46,-3.4694,0.0,-3.4232,-3.4307,-3.4401,-3.4401,-3.4572,-3.4694,-3.4694,-3.4261,-3.3979,-3.4092,-3.3371,-3.2722,-3.2365,-3.1699,0.0,0.0,0.0,-2.9858,-2.9175,-2.9215,0.0,0.0,0.0,0.0,0.0,-3.018,0.0,0.0,-3.0006,-3.0202,0.0,0.0,0.0,0.0,0.0,0.0,0.0,0.0,0.0,0.0,0.0,0.0,0.0,0.0,0.0,0.0,-2.1627,-2.1782,-2.1118,-2.0345,-1.9823,-1.9763,-2.1201,-2.2362,-2.2712,-2.4303,-2.5559,-2.6212,-2.6696,-2.7281,-2.7912,-2.7995,0.0,0.0,0.0,-2.8356,-2.8654,-2.8755,-2.9003,-2.9355,-2.9589,-2.9719,-2.972,-2.9812,-2.9906,-3.0021,-2.9926,-3.0395,-3.1299,-3.2351,-3.3269,-3.3972,-3.3728,-3.3081,-3.2292,-3.2511,-3.2457,-3.2313,-3.2502,0.0,0.0,-3.3636,-3.4166,-3.4788,-3.479,-3.4791,-3.4787,-3.4787,-3.4787,-3.4787,-3.4787,-3.4768,-3.474,-3.4794,-3.4775,-3.4755,-3.4794,-3.4774,-3.4774,-3.4774,-3.4774,-3.4774,-3.4774,-3.4773,-3.4753,-3.4753,-3.4754,-3.4774,-3.4774,-3.4774,-3.4889,-3.5122,-3.4451,0.0,-3.4186,-3.2833,-3.2256,-3.2872,-3.1525,-3.0379,-2.9663,-2.9702,-3.0093,-3.0849,-3.0868,-3.1623,-3.3173,-3.3051,-3.3038,-3.3077,-3.072,-3.0707,0.0,0.0,0.0,0.0,0.0,0.0,0.0,0.0,0.0,0.0,0.0,0.0,0.0,0.0,0.0,-2.122,-2.1444,-2.1535,-2.1055,-2.0862,-2.0731,-2.0715,-2.2094,-2.3102,-2.3177,-2.5199,-2.6521,-2.6678,-2.7564,-2.8153,-2.8296,-2.8622,-2.8791,-2.8791,-2.9628,-3.0095,-3.017,-3.1024,-3.1504,-3.1579,-3.1618,0.0,-3.1638,-3.1033,-3.1216,-3.1993,-3.1293,-3.1589,-3.2594,-3.3526,-3.4403,-3.5166,-3.5109,-3.4147,-3.2923,-3.4342,-3.3964,-3.2971,-3.4371,-3.4966,-3.5085,-3.509,-3.5205,-3.5358,-3.5356,-3.5339,0.0,-3.5339,-3.5339,-3.5339,-3.5339,-3.5185,-3.5081,-3.5292,-3.5176,-3.5091,-3.5289,-3.5354,-3.5354,-3.5354,-3.5354,-3.5354,-3.5354,-3.5174,-3.5016,-3.5016,-3.5207,-3.5354,-3.5354,-3.5354,-3.5369,-3.5417,-3.5278,-3.4908,-3.4257,-3.3949,-3.3596,-3.3077,-3.2805,-3.2555,-3.2346,-3.2365,-3.2391,-3.2455,-3.2455,-3.2609,-3.2949,-3.2929,-3.3276,-3.3949,-3.2737,-3.267,0.0,0.0,0.0,0.0,0.0,0.0,0.0,0.0,0.0,0.0,0.0,-2.263,-2.2212,0.0,-2.2779,-2.2235,-2.2289,-2.2344,-2.2135,-2.209,-2.1967,-2.1576,-2.2895,-2.4013,-2.4368,-2.6339,-2.7593,-2.7604,-2.8291,-2.8916,-2.9465,-2.9299,-2.9619,-3.058,-3.0735,-3.0996,-3.1407,-3.1938,-3.2184,-3.2191,-3.2333,-3.2409,-3.2397,-3.208,-3.2244,-3.2732,-3.2288,-3.2645,-3.3621,-3.4493,-3.5109,-3.5493,-3.5493,-3.4968,-3.4314,-3.518,-3.4949,-3.4334,-3.5199,-3.5493,-3.5493,-3.5493,-3.5493,-3.5493,-3.5493,-3.5493,-3.5493,-3.5493,-3.5493,-3.5493,-3.5493,-3.5397,-3.532,-3.5455,-3.5407,-3.5346,-3.5479,-3.5493,-3.5493,-3.5493,-3.5493,-3.5493,-3.5493,-3.5383,-3.5304,-3.5304,-3.5398,-3.5493,-3.5493,-3.5493,-3.5493,-3.5493,-3.5545,-3.5372,-3.4949,-3.4955,-3.4672,-3.3858,-3.3829,-3.3644,-3.317,-3.3153,-3.3288,-3.3583,-3.3603,-3.3795,-3.4199,-3.4199,-3.443,-3.4834,-3.441,-3.4295,0.0,0.0,0.0,0.0,0.0,0.0,0.0,-2.2678,-2.2595,-2.2539,-2.3007,-2.3352,-2.304,-2.3372,-2.3588,-2.3236,-2.3189,-2.3189,-2.3189,-2.3189,-2.301,-2.2531,-2.3805,-2.5042,-2.5864,-2.7536,-2.8612,-2.8631,-2.8955,-2.9599,-3.0619,-3.006,-3.0476,-3.2153,-3.1762,-3.1874,-3.249,-3.2741,-3.2835,-3.2842,-3.3068,-3.3154,-3.3157,-3.3166,-3.3237,-3.341,-3.341,-3.3795,-3.4507,-3.5218,-3.5493,-3.5493,-3.5493,-3.5493,-3.5493,-3.5493,-3.5391,-3.5276,-3.5449,-3.5493,-3.5493,-3.5493,-3.5493,-3.5493,-3.5493,-3.5493,-3.5493,-3.5493,-3.5493,-3.5493,-3.5493,-3.5493,-3.5493,-3.5493,-3.5493,-3.5493,-3.5493,-3.5493,-3.5493,-3.5493,-3.5526,-3.5526,-3.5526,-3.5545,-3.5545,-3.5493,-3.5526,-3.5526,-3.5526,-3.5545,-3.5545,-3.5545,-3.5603,-3.5641,-3.5661,-3.5707,-3.5468,-3.4831,-3.4792,-3.4467,-3.3756,-3.3716,-3.3981,-3.4562,-3.4565,-3.4891,-3.5545,-3.5545,-3.5526,-3.5526,-3.5526,-3.5383,-2.1301,-2.2226,-2.3117,-2.379,-2.3505,-2.3211,0.0,-2.3802,-2.3655,-2.3417,-2.3896,-2.4188,-2.3687,-2.3656,-2.3588,-2.3236,-2.3189,-2.3189,-2.3189,-2.3189,-2.3356,-2.3735,-2.5032,-2.632,-2.7358,-2.8572,-2.9355,-2.9544,-2.9591,-3.0012,-3.092,-3.0863,-3.1249,-3.2169,-3.3051,-3.3538,-3.3614,-3.463,-3.5124,-3.5139,-3.5152,-3.5172,-3.5152,-3.441,-3.4487,-3.5218,-3.5218,-3.5257,-3.5372,-3.5468,-3.5493,-3.5493,-3.5493,-3.5493,-3.5493,-3.5493,-3.502,-3.4456,-3.5218,-3.5493,-3.5493,-3.5493,-3.5493,-3.5493,-3.5493,-3.5493,-3.5493,-3.5493,-3.5493,-3.5493,-3.5493,-3.5493,-3.5493,-3.5493,-3.5493,-3.5493,-3.5493,-3.5493,-3.5493,-3.5493,-3.5565,-3.5603,-3.5603,-3.5641,-3.5641,-3.5526,-3.5565,-3.5603,-3.5603,-3.5641,-3.568,-3.568,-3.568,-3.5738,-3.5853,-3.5874,-3.5854,-3.5836,-3.5838,-3.576,-3.5604,-3.5601,-3.5571,-3.5539,-3.5543,-3.5584,-3.568,-3.5622,-3.5603,-3.5603,-3.5545,-3.5493,-2.2556,-2.2924,-2.3203,-2.4612,-2.4738,-2.4535,-2.4696,-2.4668,-2.4534,-2.4303,-2.4486,-2.4604,-2.4386,-2.4335,-2.4299,-2.4155,-2.4118,-2.4118,-2.4118,-2.4118,-2.456,-2.5721,-2.6414,-2.6951,-2.7382,-2.8726,-2.981,-3.0411,-3.0471,-3.1089,-3.2538,-3.2179,-3.2612,-3.4064,-3.4055,-3.4275,-3.4793,-3.5254,-3.5493,-3.5493,-3.5493,-3.5493,-3.5488,-3.5122,-3.518,-3.5565,-3.5603,-3.5622,-3.5622,-3.5622,-3.5622,-3.5622,-3.5622,-3.5622,-3.5622,-3.5545,-3.5276,-3.502,-3.5372,-3.5545,-3.5565,-3.5565,-3.5565,-3.5565,-3.5565,-3.5545,-3.5493,-3.5493,-3.5493,-3.5526,-3.5565,-3.5565,-3.5584,-3.5622,-3.5622,-3.5622,-3.5622,-3.5622,-3.5622,-3.5622,-3.5641,-3.5669,-3.5659,-3.5679,-3.5679,-3.5621,-3.5635,-3.565,-3.5659,-3.5679,-3.5734,-3.5803,-3.5815,-3.5863,-3.5943,-3.5955,-3.5966,-3.5996,-3.5996,-3.5996,-3.5957,-3.5957,-3.5916,-3.5818,-3.5812,-3.5774,-3.5699,-3.5629,-3.5596,-3.5603,-3.5545,-3.5757,-2.3048,-2.3093,-2.3091,-2.4706,-2.5134,-2.5125,-2.4955,-2.5032,-2.5079,-2.4917,-2.4831,-2.4814,-2.4798,-2.4802,-2.4817,-2.4808,-2.4823,-2.4823,-2.4823,-2.5026,-2.563,-2.6858,-2.7471,-2.7891,-2.8141,-2.9198,-3.0245,-3.1178,-3.1255,-3.2037,-3.3891,-3.3442,-3.3865,-3.5507,-3.4949,-3.4911,-3.5565,-3.5565,-3.5565,-3.5565,-3.5565,-3.5565,-3.5565,-3.5565,-3.5579,-3.5628,-3.5685,-3.5705,-3.5705,-3.5705,-3.5705,-3.5705,-3.5705,-3.5701,-3.5699,-3.5603,-3.5565,-3.5565,-3.5565,-3.5603,-3.5641,-3.5641,-3.5635,-3.5639,-3.5618,-3.5603,-3.5565,-3.5565,-3.5565,-3.5584,-3.5622,-3.5641,-3.5641,-3.5699,-3.5705,-3.5708,-3.5708,-3.5708,-3.5707,-3.5697,-3.5727,-3.5759,-3.5766,-3.5764,-3.5787,-3.5782,-3.5786,-3.5772,-3.5756,-3.5775,-3.5827,-3.5922,-3.5921,-3.5942,-3.5995,-3.5996,-3.5996,-3.5996,-3.5996,-3.5996,-3.5996,-3.5996,-3.5976,-3.5937,-3.5937,-3.5872,-3.5788,-3.5682,-3.563,-3.5641,-3.5776,-3.6142,-2.2241,-2.2517,-2.2898,-2.3649,-2.4105,-2.4328,-2.4241,-2.4728,-2.5187,-2.512,-2.4931,-2.4793,-2.4804,-2.4797,-2.4823,-2.4903,-2.4898,-2.4898,-2.4898,-2.5622,-2.6252,-2.6494,-2.8025,-2.9443,-3.0489,-3.0405,-3.0731,-3.1789,-3.1866,-3.2645,-3.4389,-3.4447,-3.4826,-3.568,-3.568,-3.568,-3.5699,-3.5699,-3.5699,-3.5699,-3.5699,-3.5699,-3.5699,-3.5699,-3.5701,-3.5696,-3.5696,-3.5696,-3.5696,-3.5696,-3.5696,-3.5696,-3.5696,-3.5699,-3.5699,-3.5699,-3.5699,-3.5699,-3.5699,-3.5699,-3.5699,-3.5699,-3.5706,-3.5691,-3.5693,-3.5699,-3.5699,-3.5699,-3.5699,-3.5699,-3.5699,-3.5699,-3.5699,-3.5699,-3.5696,-3.5703,-3.5703,-3.5703,-3.5695,-3.569,-3.5803,-3.5886,-3.5886,-3.5951,-3.5993,-3.5991,-3.5982,-3.5963,-3.5886,-3.5961,-3.5996,-3.5996,-3.5996,-3.5996,-3.5996,-3.5996,-3.5996,-3.5996,-3.5996,-3.5996,-3.5996,-3.5996,-3.5996,-3.5996,-3.5996,-3.5996,-3.5996,-3.5797,-3.5708,-3.5718,-3.6372,-3.668,-2.1686,-2.2163,-2.2536,-2.2964,-2.3663,-2.4233,-2.4256,-2.4854,-2.5387,-2.5376,-2.5301,-2.5256,-2.5263,-2.5239,-2.522,-2.5298,-2.5255,-2.5444,-2.6072,-2.6409,-2.7055,-2.828,-2.9496,-3.0359,-3.0666,-3.0586,-3.1369,-3.3485,-3.3094,-3.3273,-3.4447,-3.5006,-3.5184,-3.4903,-3.5417,-3.5697,-3.5697,-3.5697,-3.5697,-3.5697,-3.5697,-3.5697,-3.5708,-3.5784,-3.5824,-3.5839,-3.5885,-3.5903,-3.5903,-3.5903,-3.5903,-3.5903,-3.5903,-3.5891,-3.5892,-3.5892,-3.5912,-3.5875,-3.5758,-3.5758,-3.5825,-3.5832,-3.583,-3.5839,-3.5838,-3.5768,-3.5697,-3.5697,-3.5697,-3.5708,-3.5804,-3.5834,-3.5835,-3.5885,-3.5903,-3.5898,-3.5898,-3.5898,-3.5898,-3.5906,-3.5939,-3.5973,-3.5973,-3.5985,-3.5994,-3.5997,-3.5992,-3.5992,-3.5973,-3.5986,-3.5996,-3.5996,-3.5996,-3.5996,-3.5996,-3.5996,-3.5996,-3.5996,-3.5996,-3.5996,-3.5996,-3.5996,-3.5996,-3.5996,-3.5996,-3.5988,-3.593,-3.5772,-3.5979,-3.6493,-3.6642,-3.7315,-2.0968,-2.1254,-2.1475,-2.1958,-2.2882,-2.3694,-2.379,-2.4686,-2.5484,-2.546,-2.5453,-2.5468,-2.5466,-2.5434,-2.543,-2.5488,-2.5469,-2.5761,-2.6677,-2.7066,-2.7804,-2.9266,-3.0489,-3.1341,-3.1638,-3.1632,-3.2295,-3.3981,-3.388,-3.4121,-3.498,-3.5525,-3.5568,-3.5041,-3.5548,-3.5806,-3.5806,-3.5806,-3.5806,-3.5806,-3.5806,-3.5806,-3.5802,-3.5889,-3.5948,-3.5937,-3.5977,-3.5996,-3.5996,-3.5996,-3.5996,-3.5996,-3.5996,-3.5997,-3.6006,-3.6006,-3.5997,-3.5976,-3.5859,-3.5859,-3.5934,-3.5937,-3.5948,-3.5937,-3.5937,-3.5886,-3.5806,-3.5806,-3.5806,-3.5821,-3.5904,-3.5948,-3.5954,-3.5991,-3.5996,-3.5996,-3.5996,-3.5996,-3.5996,-3.5996,-3.5996,-3.5996,-3.5996,-3.5996,-3.5996,-3.5996,-3.5996,-3.5996,-3.5996,-3.5996,-3.5996,-3.5996,-3.5996,-3.5996,-3.5996,-3.5996,-3.5996,-3.5996,-3.5996,-3.5996,-3.5996,-3.5996,-3.5996,-3.5996,-3.5996,-3.5971,-3.5948,-3.6144,-3.6488,-3.7007,-3.7522,-3.833,-2.0028,-1.9898,-1.9879,-2.0728,-2.1814,-2.2707,-2.2834,-2.421,-2.5445,-2.5383,-2.5368,-2.5366,-2.5366,-2.5368,-2.5417,-2.5541,-2.5549,-2.5862,-2.6734,-2.7608,-2.8491,-2.9391,-3.0969,-3.2339,-3.3175,-3.3336,-3.3379,-3.334,-3.4141,-3.498,-3.582,-3.5918,-3.5918,-3.5879,-3.5957,-3.5996,-3.5996,-3.5996,-3.5996,-3.5996,-3.5996,-3.5996,-3.5996,-3.5996,-3.5996,-3.5996,-3.5996,-3.5996,-3.5996,-3.5996,-3.5996,-3.5996,-3.5996,-3.5996,-3.5996,-3.5996,-3.5996,-3.5996,-3.5996,-3.5996,-3.5996,-3.5996,-3.5996,-3.5996,-3.5996,-3.5996,-3.5996,-3.5996,-3.5996,-3.5996,-3.5996,-3.5996,-3.5996,-3.5996,-3.5996,-3.5996,-3.5996,-3.5996,-3.5996,-3.5996,-3.5996,-3.5996,-3.5996,-3.5996,-3.5996,-3.5996,-3.5996,-3.5996,-3.5996,-3.5996,-3.5996,-3.5996,-3.5996,-3.5996,-3.5996,-3.5996,-3.5996,-3.5996,-3.5996,-3.5996,-3.5996,-3.5996,-3.5996,-3.5996,-3.5996,-3.5996,-3.5996,-3.6811,-3.7224,-3.7288,-3.8868,-3.962,-1.916,-1.9729,-2.0415,-2.006,-2.118,-2.2417,-2.2509,-2.3793,-2.4988,-2.5019,-2.5027,-2.5031,-2.5018,-2.4981,-2.5237,-2.6088,-2.6189,-2.6534,-2.7612,-2.8483,-2.91,-2.9388,-3.0901,-3.1776,-3.1421,-3.2554,-3.3105,-3.2559,-3.3262,-3.3828,-3.4043,-3.4687,-3.4726,-3.4082,-3.5312,-3.5996,-3.5996,-3.5996,-3.5996,-3.5996,-3.5996,-3.5996,-3.5996,-3.5996,-3.5996,-3.5996,-3.5996,-3.5996,-3.5996,-3.5996,-3.5996,-3.5996,-3.5996,-3.5996,-3.5996,-3.5996,-3.5996,-3.5996,-3.5996,-3.5996,-3.5996,-3.5996,-3.5996,-3.5996,-3.5996,-3.5996,-3.5996,-3.5996,-3.5996,-3.5996,-3.5996,-3.5996,-3.5996,-3.5996,-3.5996,-3.5996,-3.5996,-3.5996,-3.5996,-3.5996,-3.5996,-3.5996,-3.5996,-3.5996,-3.5996,-3.5996,-3.5996,-3.5996,-3.5996,-3.5996,-3.5996,-3.5996,-3.5996,-3.5996,-3.5996,-3.5996,-3.5996,-3.5996,-3.5996,-3.5996,-3.5996,-3.5996,-3.5996,-3.5996,-3.5996,-3.5976,-3.5937,-3.6782,-3.7483,-3.8041,-3.911,-3.9917,-1.869,-1.9289,-1.9936,-1.9667,-2.0891,-2.22,-2.2325,-2.3625,-2.4799,-2.4856,-2.4861,-2.4813,-2.4648,-2.4742,-2.5084,-2.592,-2.6148,-2.6689,-2.8039,-2.8728,-2.9245,-2.9702,-3.1004,-3.1685,-3.127,-3.2459,-3.3094,-3.2715,-3.3125,-3.3398,-3.3398,-3.3867,-3.4082,-3.3965,-3.4922,-3.5605,-3.5996,-3.5996,-3.5996,-3.5996,-3.5996,-3.5996,-3.5996,-3.5996,-3.5996,-3.5996,-3.5996,-3.5996,-3.5996,-3.5996,-3.5996,-3.5996,-3.5996,-3.5996,-3.5996,-3.5996,-3.5996,-3.5996,-3.5996,-3.5996,-3.5996,-3.5996,-3.5996,-3.5996,-3.5996,-3.5996,-3.5996,-3.5996,-3.5996,-3.5996,-3.5996,-3.5996,-3.5996,-3.5996,-3.5996,-3.5996,-3.5996,-3.5996,-3.5996,-3.5996,-3.5996,-3.5996,-3.5996,-3.5996,-3.5996,-3.5996,-3.5996,-3.5996,-3.5996,-3.5996,-3.5996,-3.5996,-3.5996,-3.5996,-3.5996,-3.5996,-3.5996,-3.5996,-3.5996,-3.5996,-3.5996,-3.5996,-3.5996,-3.5996,-3.5996,-3.5976,-3.5957,-3.7207,-3.8023,-3.8456,-3.9728,-4.0543,-1.8469,-1.877,-1.9086,-1.9427,-2.067,-2.188,-2.2173,-2.3422,-2.4535,-2.4629,-2.4617,-2.4498,-2.4205,-2.4379,-2.4778,-2.5318,-2.5721,-2.651,-2.7987,-2.8563,-2.9122,-2.9871,-3.0912,-3.1595,-3.1665,-3.2374,-3.2859,-3.2957,-3.3006,-3.3105,-3.3223,-3.3242,-3.3633,-3.4492,-3.4746,-3.5176,-3.582,-3.5937,-3.5996,-3.5996,-3.5996,-3.5996,-3.5996,-3.5996,-3.5996,-3.5996,-3.5996,-3.5996,-3.5996,-3.5996,-3.5996,-3.5996,-3.5996,-3.5996,-3.5996,-3.5996,-3.5996,-3.5996,-3.5996,-3.5996,-3.5996,-3.5996,-3.5996,-3.5996,-3.5996,-3.5996,-3.5996,-3.5996,-3.5996,-3.5996,-3.5996,-3.5996,-3.5996,-3.5996,-3.5996,-3.5996,-3.5996,-3.5996,-3.5996,-3.5996,-3.5996,-3.5996,-3.5996,-3.5996,-3.5996,-3.5996,-3.5996,-3.5996,-3.5996,-3.5996,-3.5996,-3.5996,-3.5996,-3.5996,-3.5996,-3.5996,-3.5996,-3.5996,-3.5996,-3.5996,-3.5996,-3.5996,-3.5996,-3.5996,-3.5996,-3.5996,-3.5996,-3.7637,-3.8496,-3.8633,-4.0273,-4.1094,-1.817,-1.8641,-1.9036,-1.9086,-1.9943,-2.0952,-2.1719,-2.241,-2.3082,-2.3757,-2.3663,-2.345,-2.3388,-2.345,-2.3793,-2.4772,-2.5488,-2.6188,-2.6972,-2.8203,-2.8951,-2.8742,-2.9665,-3.0355,-3.0494,-3.0794,-3.1021,-3.1139,-3.1164,-3.1523,-3.2363,-3.2402,-3.2773,-3.3594,-3.5019,-3.5508,-3.4922,-3.5644,-3.5996,-3.5996,-3.5996,-3.5996,-3.5996,-3.5996,-3.5996,-3.5996,-3.5996,-3.5996,-3.5996,-3.5996,-3.5996,-3.5996,-3.5996,-3.5996,-3.5996,-3.5996,-3.5996,-3.5996,-3.5996,-3.5996,-3.5996,-3.5996,-3.5996,-3.5996,-3.5996,-3.5996,-3.5996,-3.5996,-3.5996,-3.5996,-3.5996,-3.5996,-3.5996,-3.5996,-3.5996,-3.5996,-3.5996,-3.5996,-3.5996,-3.5996,-3.5996,-3.5996,-3.5996,-3.5996,-3.5996,-3.5996,-3.5996,-3.5996,-3.5996,-3.5996,-3.5996,-3.5996,-3.5996,-3.5996,-3.5996,-3.5996,-3.5996,-3.5996,-3.5996,-3.5996,-3.5996,-3.5996,-3.5996,-3.5996,-3.5996,-3.5996,-3.5996,-3.7031,-3.7891,-3.8613,-3.9648,-4.0508,-1.7296,-1.7841,-1.8331,-1.8374,-1.9374,-2.0442,-2.0879,-2.1898,-2.2785,-2.2841,-2.3191,-2.3346,-2.2996,-2.3069,-2.346,-2.4247,-2.4819,-2.5512,-2.664,-2.7533,-2.8125,-2.8289,-2.9026,-2.9612,-2.9817,-3.0084,-3.0331,-3.0571,-3.062,-3.0901,-3.1484,-3.1953,-3.2383,-3.2754,-3.3984,-3.4453,-3.4023,-3.4434,-3.4648,-3.4648,-3.5117,-3.5312,-3.5332,-3.5781,-3.5996,-3.5996,-3.5996,-3.5996,-3.5996,-3.5996,-3.5996,-3.5996,-3.5996,-3.5996,-3.5996,-3.5996,-3.5996,-3.5996,-3.5996,-3.5996,-3.5996,-3.5996,-3.5996,-3.5996,-3.5996,-3.5996,-3.5996,-3.5996,-3.5996,-3.5996,-3.5996,-3.5996,-3.5996,-3.5996,-3.5996,-3.5996,-3.5996,-3.5996,-3.5996,-3.5996,-3.5996,-3.5996,-3.5996,-3.5996,-3.5996,-3.5996,-3.5996,-3.5996,-3.5996,-3.5996,-3.5996,-3.5996,-3.5996,-3.5996,-3.5996,-3.5996,-3.5996,-3.5996,-3.5996,-3.5996,-3.5996,-3.5996,-3.5996,-3.5996,-3.5996,-3.5996,-3.5996,-3.6875,-3.7519,-3.7969,-3.9277,-4.0117,-1.6446,-1.702,-1.7616,-1.7737,-1.8877,-1.9957,-2.0101,-2.1425,-2.2535,-2.2171,-2.2901,-2.3414,-2.2822,-2.2923,-2.3207,-2.3578,-2.3859,-2.4603,-2.6223,-2.6535,-2.7022,-2.8124,-2.8604,-2.9038,-2.949,-2.9817,-3.0142,-3.0475,-3.0579,-3.0707,-3.0898,-3.1738,-3.2109,-3.1934,-3.2871,-3.332,-3.3144,-3.3301,-3.3398,-3.3418,-3.4082,-3.4512,-3.4726,-3.541,-3.582,-3.5996,-3.5996,-3.5996,-3.5996,-3.5996,-3.5996,-3.5996,-3.5996,-3.5996,-3.5996,-3.5996,-3.5996,-3.5996,-3.5996,-3.5996,-3.5996,-3.5996,-3.5996,-3.5996,-3.5996,-3.5996,-3.5996,-3.5996,-3.5996,-3.5996,-3.5996,-3.5996,-3.5996,-3.5996,-3.5996,-3.5996,-3.5996,-3.5996,-3.5996,-3.5996,-3.5996,-3.5996,-3.5996,-3.5996,-3.5996,-3.5996,-3.5996,-3.5996,-3.5996,-3.5996,-3.5996,-3.5996,-3.5996,-3.5996,-3.5996,-3.5996,-3.5996,-3.5996,-3.5996,-3.5996,-3.5996,-3.5996,-3.5996,-3.5996,-3.5996,-3.5996,-3.5996,-3.6699,-3.7129,-3.7324,-3.8691,-3.9531,-1.6157,-1.6692,-1.7229,-1.7618,-1.8417,-1.9237,-1.9733,0.0,-2.1576,-2.2003,-2.2704,-2.3141,-2.2772,-2.2721,-2.2695,-2.249,-2.2681,-2.3425,-2.5027,-2.5108,-2.5863,-2.8102,-2.8218,-2.8512,-2.9586,-2.9858,-3.0142,-3.0475,-3.0624,-3.0741,-3.0898,-3.1738,-3.1836,-3.1035,-3.2578,-3.3047,-3.2324,-3.3027,-3.3398,-3.3398,-3.3476,-3.3926,-3.4707,-3.4785,-3.5254,-3.5996,-3.5996,-3.5996,-3.5996,-3.5996,-3.5996,-3.5996,-3.5996,-3.5996,-3.5996,-3.5996,-3.5996,-3.5996,-3.5996,-3.5996,-3.5996,-3.5996,-3.5996,-3.5996,-3.5996,-3.5996,-3.5996,-3.5996,-3.5996,-3.5996,-3.5996,-3.5996,-3.5996,-3.5996,-3.5996,-3.5996,-3.5996,-3.5996,-3.5996,-3.5996,-3.5996,-3.5996,-3.5996,-3.5996,-3.5996,-3.5996,-3.5996,-3.5996,-3.5996,-3.5996,-3.5996,-3.5996,-3.5996,-3.5996,-3.5996,-3.5996,-3.5996,-3.5996,-3.5996,-3.5996,-3.5996,-3.5996,-3.5996,-3.5996,-3.5996,-3.5996,-3.5996,-3.6074,-3.6523,-3.7305,-3.7461,-3.8398,-1.4438,-1.5284,-1.6213,-1.6288,-1.7253,-1.827,-1.8499,-1.9843,-2.1018,-2.0865,-2.1937,-2.2815,-2.25,-2.2463,-2.2426,-2.2338,-2.2387,-2.2638,-2.3164,-2.3457,-2.4015,-2.5082,-2.5751,-2.6454,-2.7334,-2.7974,-2.8698,-2.9651,-2.9842,-3.0166,-3.0742,-3.1191,-3.1269,-3.0918,-3.1543,-3.1738,-3.1426,-3.1738,-3.1894,-3.1894,-3.2422,-3.2851,-3.3223,-3.4238,-3.4883,-3.5254,-3.5762,-3.5996,-3.5996,-3.5996,-3.5996,-3.5996,-3.5996,-3.5996,-3.5996,-3.5996,-3.5996,-3.5996,-3.5996,-3.5996,-3.5996,-3.5996,-3.5996,-3.5996,-3.5996,-3.5996,-3.5996,-3.5996,-3.5996,-3.5996,-3.5996,-3.5996,-3.5996,-3.5996,-3.5605,-3.5351,-3.5898,-3.5586,-3.5371,-3.5898,-3.5996,-3.5996,-3.5996,-3.5996,-3.5996,-3.5996,-3.5996,-3.5996,-3.5996,-3.5996,-3.5996,-3.5996,-3.5996,-3.5996,-3.5996,-3.5996,-3.5996,-3.5996,-3.5996,-3.5996,-3.5996,-3.5996,-3.5996,-3.5996,-3.5996,-3.5996,-3.5996,-3.5996,-3.6172,-3.6523,-3.7051,-3.7949,-1.2994,-1.3905,-1.5023,-1.5057,-1.6224,-1.7353,-1.7386,-1.9132,-2.0653,-2.024,-2.1409,-2.2503,-2.2429,-2.2255,-2.2133,-2.2276,-2.218,-2.2056,-2.2021,-2.2197,-2.2528,-2.3034,-2.4,-2.4993,-2.5798,-2.6748,-2.7733,-2.8775,-2.8941,-2.94,-3.0303,-3.0443,-3.0625,-3.0898,-3.0898,-3.0898,-3.0898,-3.0898,-3.0898,-3.0918,-3.1523,-3.1953,-3.2246,-3.3418,-3.4082,-3.4355,-3.5234,-3.5625,-3.5644,-3.5898,-3.5996,-3.5996,-3.5996,-3.5996,-3.5996,-3.5996,-3.5996,-3.5996,-3.5996,-3.582,-3.5625,-3.5625,-3.5449,-3.5273,-3.5547,-3.5801,-3.5996,-3.5996,-3.5801,-3.5625,-3.5625,-3.543,-3.5234,-3.5234,-3.4766,-3.4473,-3.5098,-3.4941,-3.4883,-3.5508,-3.582,-3.5996,-3.5996,-3.5996,-3.5996,-3.5996,-3.5996,-3.5996,-3.5996,-3.5996,-3.5996,-3.5996,-3.5996,-3.5996,-3.5996,-3.5996,-3.5996,-3.5996,-3.5996,-3.5996,-3.5996,-3.5996,-3.5996,-3.5996,-3.5996,-3.5996,-3.5996,-3.5996,-3.5996,-3.6016,-3.6621,-3.7519,-1.2229,-1.2794,-1.3728,-1.4186,-1.5439,-1.6559,-1.6671,-1.8632,-2.042,-2.0466,-2.1346,-2.2235,-2.2633,-2.2089,-2.1763,-2.2231,-2.1899,-2.172,-2.1955,-2.1591,-2.1721,-2.2875,-2.3666,-2.4534,-2.5705,-2.6885,-2.7708,-2.7992,-2.8084,-2.8514,-2.9463,-2.9585,-3.0019,-3.0879,-3.0898,-3.0898,-3.0898,-3.0898,-3.0898,-3.0898,-3.0918,-3.1367,-3.2207,-3.2226,-3.2656,-3.3457,-3.4336,-3.4707,-3.4785,-3.5644,-3.5996,-3.5996,-3.5996,-3.5996,-3.5996,-3.5996,-3.5996,-3.5996,-3.5996,-3.5449,-3.4707,-3.4707,-3.4121,-3.3594,-3.4453,-3.5312,-3.5996,-3.5996,-3.5371,-3.4707,-3.4707,-3.4062,-3.3437,-3.3437,-3.3418,-3.3418,-3.3437,-3.4101,-3.4707,-3.4707,-3.541,-3.5996,-3.5996,-3.5996,-3.5996,-3.5996,-3.5996,-3.5996,-3.5996,-3.5996,-3.5996,-3.5996,-3.5996,-3.5996,-3.5996,-3.5996,-3.5996,-3.5996,-3.5996,-3.5996,-3.5996,-3.5996,-3.5996,-3.5996,-3.5996,-3.5996,-3.5996,-3.5996,-3.5996,-3.5996,-3.6016,-3.6934,-1.039,-1.1206,-1.2363,-1.2821,-1.3961,-1.5169,-1.5786,-1.7171,-1.8434,-1.8977,-1.992,-2.0766,-2.1128,-2.1197,-2.1226,-2.1383,-2.1291,-2.1103,-2.0805,-2.0969,-2.1283,-2.1775,-2.3182,-2.4418,-2.5245,-2.5694,-2.6275,-2.705,-2.7217,-2.7668,-2.8564,-2.8684,-2.9375,-3.0859,-3.0312,-3.0019,-3.0019,-3.0019,-3.0019,-3.0019,-3.0625,-3.1035,-3.1328,-3.1934,-3.2344,-3.2637,-3.3457,-3.4141,-3.4726,-3.5,-3.5117,-3.5117,-3.5117,-3.5117,-3.5039,-3.4434,-3.4609,-3.5039,-3.4434,-3.4043,-3.3809,-3.3809,-3.3613,-3.3457,-3.373,-3.4414,-3.5117,-3.5117,-3.4473,-3.3809,-3.3809,-3.3613,-3.3398,-3.3398,-3.2988,-3.2734,-3.3281,-3.3184,-3.332,-3.4473,-3.4434,-3.4609,-3.5781,-3.5508,-3.5312,-3.5918,-3.5996,-3.5781,-3.5195,-3.5117,-3.4883,-3.4297,-3.4766,-3.5351,-3.5957,-3.5996,-3.5996,-3.5996,-3.5996,-3.5996,-3.5996,-3.5996,-3.5996,-3.5996,-3.5996,-3.5996,-3.5996,-3.5996,-3.5996,-3.6016,-3.6601,-3.7187,-0.9178,-1.0,-1.1131,-1.1424,-1.2675,-1.4038,-1.4692,-1.6039,-1.7314,-1.8032,-1.9044,-2.0013,-2.0649,-2.092,-2.1028,-2.0958,-2.0927,-2.0669,-1.9989,-2.0523,-2.1288,-2.2086,-2.3234,-2.4242,-2.5,-2.513,-2.5463,-2.6193,-2.6323,-2.6774,-2.7697,-2.7784,-2.8457,-2.9863,-2.9707,-2.9434,-2.9101,-2.9434,-2.9434,-2.9121,-2.998,-3.041,-3.0449,-3.1309,-3.1719,-3.1758,-3.2598,-3.3262,0.0,-3.4082,-3.4219,-3.4219,-3.4219,-3.4219,-3.4141,-3.3594,-3.373,-3.4121,-3.3594,-3.3203,-3.2949,-3.2949,-3.2949,-3.2949,-3.2949,-3.3535,-3.4219,-3.4219,-3.3594,-3.2949,-3.2949,-3.2695,-3.2461,-3.2461,-3.207,-3.1855,-3.2344,-3.2324,-3.2519,-3.3555,-3.3555,-3.373,-3.4824,-3.457,-3.4394,-3.4941,-3.5019,-3.4824,-3.4277,-3.4219,-3.4004,-3.3457,-3.3887,-3.4434,-3.4961,-3.5625,-3.5996,-3.5996,-3.5684,-3.5664,-3.5996,-3.5684,-3.5664,-3.5996,-3.5996,-3.5996,-3.5996,-3.5996,-3.5996,-3.6016,-3.6562,-3.6992,0.0,-0.9278,-1.0176,-1.0176,-1.1626,-1.3116,-1.3494,-1.5128,0.0,-1.7484,-1.8529,-1.964,-2.0834,-2.1083,-2.1094,-2.0876,-2.0878,-2.0607,-1.9759,-2.0539,-2.1821,-2.3458,-2.3724,-2.4113,-2.4949,-2.5091,-2.5231,-2.5472,-2.5496,-2.5906,-2.6851,-2.6883,-2.7265,-2.8086,-2.8945,-2.9043,-2.8301,-2.9043,-2.9062,-2.8398,-2.9219,-2.9629,-2.9726,-3.0527,-3.0898,-3.0957,-3.1758,-3.2148,-3.2266,-3.3008,-3.3301,-3.3301,-3.3301,-3.3301,-3.3301,-3.3242,-3.3262,-3.3301,-3.3242,-3.2734,-3.2109,-3.2109,-3.2109,-3.2109,-3.2109,-3.2676,-3.3301,-3.3301,-3.2734,-3.2109,-3.2109,-3.1504,-3.0898,-3.0898,-3.0898,-3.0898,-3.0898,-3.1543,-3.2129,-3.2187,-3.2754,-3.3262,-3.3379,-3.3359,-3.332,-3.3398,-3.3398,-3.3379,-3.332,-3.3301,-3.3281,-3.3223,-3.3281,-3.3301,-3.3301,-3.4844,-3.582,-3.582,-3.5059,-3.4961,-3.5781,-3.5098,-3.5078,-3.5898,-3.5976,-3.5996,-3.5996,-3.5996,-3.5996,-3.5996,-3.5996,-3.6426,-0.9944,0.0,-0.9737,-1.0099,-1.1153,-1.2307,0.0,-1.3947,-1.4875,-1.5901,0.0,-1.7723,-1.9163,-2.0146,-2.0854,-2.1289,-2.1779,-2.2041,-2.1864,-2.2552,-2.336,-2.4112,-2.4409,-2.4746,-2.5263,-2.5371,-2.5415,-2.5419,-2.5471,-2.5607,-2.5836,-2.5849,-2.5969,-2.623,-2.707,-2.7773,-2.8281,-2.7832,-2.8184,-2.9297,-2.9492,-2.9941,-3.0605,-3.0801,-3.0898,-3.0918,-3.1113,-3.1582,-3.2207,-3.2402,-3.248,-3.248,-3.248,-3.248,-3.2402,-3.1738,-3.1914,-3.2383,-3.1719,-3.1367,-3.1211,-3.1211,-3.1211,-3.1211,-3.1211,-3.1797,-3.248,-3.248,-3.1875,-3.1211,-3.1211,-3.1055,-3.0898,-3.0898,-3.0898,-3.0898,-3.0898,-3.1055,-3.1406,-3.207,-3.1816,-3.1894,-3.3184,-3.2891,-3.2695,-3.3301,-3.3398,-3.3184,-3.2559,-3.248,-3.2226,-3.1562,-3.207,-3.248,-3.248,-3.3418,-3.4004,-3.4004,-3.3828,-3.3809,-3.4004,-3.4453,-3.4805,-3.5,-3.5664,-3.5996,-3.5996,-3.5996,-3.5996,-3.5996,-3.5996,-3.6113,-1.1771,-1.0818,-1.0081,-1.0452,-1.1324,-1.2234,-1.273,0.0,0.0,0.0,0.0,-1.7688,-1.923,-2.0453,-2.126,-2.1516,-2.1861,-2.2098,-2.2132,-2.2868,-2.3626,-2.4288,-2.4515,-2.4775,-2.5173,-2.5274,-2.5341,-2.5389,-2.5434,-2.5478,-2.5498,-2.5498,-2.5518,-2.56,-2.6064,-2.6562,-2.7109,-2.7031,-2.7266,-2.7812,-2.8613,-2.9258,-2.9726,-3.0547,-3.0898,-3.0898,-3.0898,-3.1172,-3.1601,-3.1601,-3.1601,-3.1601,-3.1601,-3.1601,-3.1543,-3.1074,-3.1191,-3.1543,-3.1055,-3.0898,-3.0897,-3.0837,-3.0849,-3.0898,-3.082,-3.1172,-3.1601,-3.1601,-3.1269,-3.0898,-3.0898,-3.0898,-3.0898,-3.0898,-3.0898,-3.0898,-3.0898,-3.0898,-3.1035,-3.1504,-3.1211,-3.1191,-3.2109,-3.1894,-3.1758,-3.2187,-3.2246,-3.2109,-3.166,-3.1601,-3.1426,-3.0957,-3.1328,-3.1601,-3.1601,-3.1992,-3.2578,-3.3359,-3.3047,-3.3008,-3.3379,-3.3496,-3.3906,-3.4687,-3.5566,-3.5996,-3.5996,-3.5996,-3.5996,-3.5996,-3.5996,-3.5996,-1.3516,-1.2237,-1.1146,-1.1256,-1.2058,-1.2844,-1.2857,0.0,0.0,0.0,0.0,0.0,-1.9983,-2.1116,-2.184,-2.187,-2.181,-2.1723,-2.1643,-2.2278,-2.3069,-2.3903,-2.4107,-2.4358,-2.4848,-2.5013,-2.5163,-2.533,-2.538,-2.5409,-2.5466,-2.5466,-2.5505,-2.5582,-2.5582,-2.5624,-2.5703,-2.6426,-2.6562,-2.6113,-2.7461,-2.8242,-2.8555,-3.0039,-3.0762,-3.0898,-3.0898,-3.0898,-3.0898,-3.0898,-3.0898,-3.0898,-3.0898,-3.0898,-3.0898,-3.0898,-3.0898,-3.0898,-3.0898,-3.0898,-3.0873,-3.0742,-3.078,-3.085,-3.0719,-3.0759,-3.0857,-3.0857,-3.0853,-3.087,-3.0856,-3.0859,-3.0879,-3.0879,-3.0898,-3.0898,-3.0898,-3.0898,-3.0898,-3.0898,-3.0898,-3.0898,-3.0898,-3.0898,-3.0898,-3.0898,-3.0898,-3.0898,-3.0898,-3.0898,-3.0898,-3.0898,-3.0898,-3.0898,-3.0898,-3.0898,-3.1504,-3.293,-3.2383,-3.2363,-3.3184,-3.2559,-3.293,-3.4473,-3.5234,-3.5664,-3.5801,-3.5801,-3.5879,-3.5996,-3.5996,-3.5996,-1.3726,-1.367,-1.3501,-1.3179,-1.3735,-1.437,-1.4429,0.0,0.0,0.0,0.0,0.0,0.0,-2.0937,-2.1852,-2.3026,-2.277,-2.2293,-2.1831,-2.1749,-2.1964,-2.2623,-2.2941,-2.3479,-2.4313,-2.4774,-2.503,-2.5053,-2.5222,-2.5322,-2.5322,-2.5322,-2.539,-2.5505,-2.5511,-2.5573,-2.5703,-2.582,-2.6562,-2.7891,-2.7422,-2.7969,-2.9414,-2.9687,-3.0195,-3.0898,-3.0898,-3.0898,-3.0898,-3.0898,-3.0898,-3.0898,-3.0898,-3.0898,-3.0898,-3.0898,-3.0898,-3.0898,-3.0898,-3.0898,-3.0873,-3.0742,-3.0709,-3.0714,-3.0639,-3.0638,-3.0658,-3.0658,-3.0695,-3.0723,-3.0664,-3.0682,-3.0723,-3.0723,-3.082,-3.0898,-3.0898,-3.0898,-3.0898,-3.0898,-3.0898,-3.0898,-3.0898,-3.0898,-3.0898,-3.0898,-3.0898,-3.0898,-3.0898,-3.0898,-3.0898,-3.0898,-3.0898,-3.0898,-3.0898,-3.0898,-3.1016,-3.1269,-3.1172,-3.1484,-3.2344,-3.2266,-3.2637,-3.3574,-3.373,-3.416,-3.4902,-3.4902,-3.5273,-3.5996,-3.5996,-3.5996,-1.3737,-1.4076,-1.4423,-1.444,-1.4954,-1.5521,-1.5736,-1.6256,0.0,0.0,0.0,0.0,0.0,-2.104,-2.2076,-2.3304,-2.2564,-2.1768,-2.1516,-2.1021,-2.1066,-2.2107,-2.2368,-2.2975,-2.4275,-2.4685,-2.493,-2.4979,-2.5192,-2.5322,-2.5341,-2.5341,-2.5428,-2.5543,-2.5556,-2.5595,-2.5703,-2.5703,-2.6094,-2.6894,-2.6973,-2.7676,-2.8906,-2.9394,-3.0078,-3.0898,-3.0898,-3.0898,-3.0898,-3.0898,-3.0898,-3.0898,-3.0898,-3.0859,-3.0781,-3.0742,-3.0738,-3.0743,-3.0743,-3.0735,-3.0724,-3.0627,-3.0621,-3.0625,-3.0559,-3.0577,-3.0597,-3.0558,-3.0586,-3.0637,-3.0608,-3.0653,-3.0706,-3.0699,-3.0801,-3.0898,-3.0898,-3.0898,-3.0873,-3.0812,-3.0801,-3.0794,-3.0799,-3.0781,-3.082,-3.0898,-3.0898,-3.0898,-3.0898,-3.0898,-3.0898,-3.0898,-3.0898,-3.0898,-3.0898,-3.0898,-3.0898,-3.0898,-3.0898,-3.1074,-3.1484,-3.1953,-3.2363,-3.2734,-3.3184,-3.3594,-3.4004,-3.4473,-3.4902,-3.5312,-3.5781,-3.5996,-1.3302,-1.3891,-1.4667,-1.5052,-1.559,-1.6152,-1.6769,-1.7193,-1.7522,0.0,0.0,0.0,0.0,-2.1113,-2.2018,-2.2553,-2.1638,-2.0795,-2.0565,-2.0035,-2.0123,-2.1304,-2.1568,-2.228,-2.3878,-2.4304,-2.4615,-2.4917,-2.5182,-2.5322,-2.5409,-2.5409,-2.5466,-2.5601,-2.5601,-2.5641,-2.5703,-2.5684,-2.5684,-2.5703,-2.6387,-2.7148,-2.8027,-2.8691,-2.957,-3.0605,-3.0605,-3.0703,-3.0898,-3.0898,-3.0879,-3.0859,-3.0859,-3.0776,-3.0657,-3.0403,-3.0439,-3.0602,-3.0602,-3.0608,-3.0595,-3.0516,-3.0525,-3.0564,-3.0506,-3.0506,-3.0544,-3.0487,-3.0506,-3.0564,-3.0564,-3.0621,-3.0674,-3.07,-3.0795,-3.0898,-3.0898,-3.0898,-3.086,-3.0732,-3.0717,-3.0743,-3.0712,-3.0737,-3.0781,-3.0879,-3.0898,-3.0898,-3.0898,-3.0898,-3.0898,-3.0898,-3.0898,-3.0898,-3.0898,-3.0898,-3.0898,-3.0898,-3.0898,-3.0898,-3.0898,-3.1543,-3.1894,-3.1894,-3.25,-3.291,-3.3125,-3.3984,-3.4394,-3.4414,-3.5293,-3.5703,-1.2202,-1.3195,-1.4247,-1.4643,-1.5243,-1.6077,-1.7492,-1.7738,0.0,-1.8574,0.0,-1.9565,-2.0338,-2.1094,-2.128,-2.024,-1.9976,-1.9588,-1.8647,-1.8676,-1.8981,-1.945,-1.9994,-2.0932,-2.2506,-2.3215,-2.3931,-2.4743,-2.5115,-2.5322,-2.5409,-2.5409,-2.5466,-2.5601,-2.5601,-2.5641,-2.5703,-2.5644,-2.5644,-2.5703,-2.5762,-2.625,-2.7109,-2.7168,-2.8105,-2.9687,-2.9687,-3.0156,-3.0898,-3.0898,-3.082,-3.0703,-3.0703,-3.0672,-3.0524,-2.9762,-2.9971,-3.0602,-3.0602,-3.0595,-3.0587,-3.0525,-3.0506,-3.0487,-3.0417,-3.0398,-3.0398,-3.0398,-3.0398,-3.0417,-3.0487,-3.0564,-3.0614,-3.0698,-3.0803,-3.0898,-3.0898,-3.0898,-3.086,-3.0732,-3.0794,-3.0856,-3.0717,-3.0799,-3.0898,-3.0898,-3.0898,-3.0898,-3.0898,-3.0898,-3.0898,-3.0898,-3.0898,-3.0898,-3.0898,-3.0898,-3.0898,-3.0898,-3.0898,-3.0898,-3.0898,-3.0957,-3.0996,-3.0996,-3.1055,-3.1484,-3.2285,-3.3105,-3.3496,-3.3516,-3.4394,-3.4785,-1.1237,-1.2082,-1.2963,-1.3152,-1.3837,0.0,0.0,-1.8012,-1.837,-1.9391,-1.963,-1.9853,-2.0555,-2.0532,-2.0428,-2.0481,-1.9771,-1.9157,-1.8941,-1.8614,-1.8741,-1.9743,-2.0138,-2.0819,-2.206,-2.3088,-2.3828,-2.4138,-2.4911,-2.539,-2.5466,-2.5505,-2.5561,-2.5664,-2.5668,-2.5643,-2.5634,-2.5607,-2.5588,-2.557,-2.559,-2.6055,-2.6934,-2.6894,-2.7559,-2.8769,-2.9258,-2.9687,-3.0039,-2.998,-2.9932,-2.9834,-2.9244,-2.901,-2.8934,-2.8596,-2.8967,-2.9675,-2.9709,-2.9737,-2.9829,-3.0379,-3.0206,-2.9848,-3.0359,-3.0121,-2.9775,-3.0314,-2.9706,-2.9137,-3.0206,-3.0559,-3.0615,-3.0687,-3.0806,-3.0898,-3.0898,-3.0898,-3.0857,-3.0732,-3.0737,-3.0756,-3.0698,-3.0742,-3.0806,-3.0897,-3.0898,-3.0898,-3.0898,-3.0898,-3.0898,-3.0898,-3.0898,-3.0898,-3.0898,-3.0898,-3.0898,-3.0898,-3.0898,-3.0898,-3.0898,-3.0898,-3.0898,-3.0898,-3.0898,-3.1055,-3.1387,-3.2246,-3.2656,-3.2676,-3.3496,-3.3887,-1.0465,-1.1307,-1.219,-1.2259,-1.2895,-1.417,-1.6734,-1.7408,-1.7888,-1.9333,-1.9678,-1.9889,-2.0336,-1.9965,-1.9698,-2.0114,-1.9472,-1.8927,-1.8949,-1.8644,-1.8818,-1.9775,-2.0028,-2.0544,-2.1581,-2.2735,-2.3549,-2.3812,-2.4809,-2.5447,-2.5524,-2.5582,-2.5621,-2.5671,-2.5665,-2.563,-2.5564,-2.5547,-2.5526,-2.5505,-2.5454,-2.5801,-2.6464,-2.6406,-2.6897,-2.7794,-2.8333,-2.8759,-2.9051,-2.9012,-2.8981,-2.8871,-2.7915,-2.7717,-2.7923,-2.7624,-2.8037,-2.8764,-2.8832,-2.8856,-2.8965,-2.9593,-2.9419,-2.9023,-2.9631,-2.9352,-2.8975,-2.9547,-2.8879,-2.8275,-2.9438,-2.9997,-3.0277,-3.0347,-3.063,-3.082,-3.0547,-3.0703,-3.0859,-3.0723,-3.0735,-3.075,-3.0714,-3.0733,-3.0788,-3.0896,-3.0898,-3.0898,-3.0898,-3.0898,-3.0898,-3.0898,-3.0898,-3.0898,-3.0898,-3.0898,-3.0898,-3.0898,-3.0898,-3.0898,-3.0898,-3.0898,-3.0898,-3.0898,-3.0898,-3.0898,-3.0898,-3.1777,-3.2051,-3.1816,-3.2637,-3.3027,-0.9891,-1.0977,-1.2121,-1.2174,-1.2644,-1.3556,-1.5352,-1.5722,-1.6247,-1.8189,-1.9122,-1.9596,-1.9601,-1.9423,-1.9164,-1.8679,-1.8825,-1.8807,-1.829,-1.8678,-1.9049,-1.9201,-1.9448,-1.9961,-2.0897,-2.1966,-2.2958,-2.3833,-2.4826,-2.5466,-2.5592,-2.5592,-2.5609,-2.5601,-2.5601,-2.5564,-2.5508,-2.5429,-2.5428,-2.5505,-2.537,-2.537,-2.5505,-2.5505,-2.5957,-2.6785,-2.6795,-2.729,-2.808,-2.808,-2.8041,-2.7885,-2.6949,-2.7133,-2.7778,-2.6969,-2.7229,-2.7991,-2.8057,-2.8086,-2.8093,-2.8093,-2.8098,-2.8093,-2.8093,-2.8093,-2.8081,-2.802,-2.7986,-2.7979,-2.8087,-2.878,-2.9487,-2.9578,-3.0254,-3.0644,-2.9785,-3.0273,-3.0859,-3.0723,-3.0801,-3.0858,-3.0712,-3.0808,-3.0898,-3.0898,-3.0898,-3.0898,-3.0898,-3.0898,-3.0898,-3.0898,-3.0898,-3.0898,-3.0898,-3.0898,-3.0898,-3.0898,-3.0898,-3.0898,-3.0898,-3.0898,-3.0898,-3.0898,-3.0898,-3.0898,-3.0898,-3.1777,-3.1738,-3.0918,-3.1797,-3.2187,-1.0053,-1.1154,-1.2113,-1.1902,-1.2305,-1.2876,-1.3371,-1.4563,0.0,-1.7702,-1.8415,-1.888,-1.9317,-1.9298,-1.9141,-1.8913,-1.8877,-1.8875,-1.8908,-1.9115,-1.9369,-1.9594,-1.9771,-2.0004,-2.0337,-2.1847,-2.2949,-2.3247,-2.4678,-2.553,-2.5525,-2.5577,-2.5571,-2.5525,-2.5539,-2.5505,-2.544,-2.5408,-2.539,-2.537,-2.5322,-2.5341,-2.5428,-2.539,-2.5524,-2.5861,-2.6399,-2.6822,-2.7101,-2.7063,-2.6669,-2.6083,-2.5842,-2.59,-2.6121,-2.5919,-2.641,-2.7156,-2.7177,-2.7218,-2.7363,-2.7959,-2.7782,-2.7435,-2.8008,-2.7704,-2.7309,-2.7846,-2.7131,-2.6477,-2.775,-2.7898,-2.7835,-2.853,-2.9355,-2.9902,-2.9668,-3.0273,-3.0898,-3.0859,-3.0879,-3.0897,-3.0846,-3.087,-3.0898,-3.0898,-3.0898,-3.0898,-3.0898,-3.0898,-3.0898,-3.0898,-3.0898,-3.0898,-3.0898,-3.0898,-3.0898,-3.0898,-3.0898,-3.0898,-3.0898,-3.0898,-3.0898,-3.0898,-3.0898,-3.0898,-3.0898,-3.1152,-3.1152,-3.0918,-3.1172,-3.1289,-0.9556,-1.0531,-1.1512,-1.1955,-1.2254,-1.2574,-1.3051,-1.4338,-1.5692,-1.6653,-1.7433,-1.8143,-1.8705,-1.8873,-1.8846,-1.8602,-1.8922,-1.9092,-1.8845,-1.9263,-1.9676,-1.9892,-2.0015,-2.0115,-2.0212,-2.1564,-2.243,-2.2483,-2.3772,-2.4701,-2.5008,-2.5052,-2.5204,-2.5453,-2.5464,-2.5428,-2.537,-2.537,-2.5341,-2.5303,-2.5303,-2.5322,-2.537,-2.5322,-2.5322,-2.539,-2.5861,-2.6121,-2.614,-2.6102,-2.5784,-2.5341,-2.539,-2.5429,-2.5447,-2.5502,-2.5839,-2.6275,-2.6274,-2.6303,-2.6439,-2.6988,-2.6813,-2.6509,-2.7008,-2.6751,-2.6369,-2.6834,-2.6197,-2.5659,-2.6736,-2.6688,-2.6597,-2.7555,-2.8457,-2.8984,-2.8633,-2.9512,-3.0371,-3.0371,-3.0664,-3.0898,-3.0898,-3.0898,-3.0898,-3.0898,-3.0898,-3.0898,-3.0898,-3.0898,-3.0898,-3.0898,-3.0898,-3.0898,-3.0898,-3.0898,-3.0898,-3.0898,-3.0898,-3.0898,-3.0898,-3.0898,-3.0898,-3.0898,-3.0898,-3.0898,-3.0898,-3.0898,-3.0898,-3.0898,-3.0898,-3.0898,-0.8668,-0.9407,-1.0431,-1.2141,-1.2421,-1.2576,-1.3733,-1.4612,-1.5251,-1.5388,-1.6353,-1.7359,-1.7927,-1.8236,-1.8309,-1.8012,-1.8955,-1.9423,-1.851,-1.9276,-1.9998,-2.0097,-2.0172,-2.027,-2.0388,-2.1187,-2.1689,-2.1699,-2.2519,-2.3389,-2.4248,-2.4292,-2.4639,-2.537,-2.539,-2.5341,-2.5274,-2.5284,-2.5284,-2.5274,-2.5284,-2.5303,-2.5303,-2.5303,-2.5303,-2.5303,-2.5303,-2.5303,-2.5303,-2.5303,-2.5341,-2.539,-2.5398,-2.5434,-2.5485,-2.5495,-2.5505,-2.5495,-2.548,-2.549,-2.5502,-2.5573,-2.5556,-2.5502,-2.556,-2.5543,-2.5486,-2.5409,-2.539,-2.539,-2.5409,-2.5449,-2.5721,-2.6657,-2.7538,-2.7965,-2.7165,-2.8299,-2.9452,-2.9452,-3.0175,-3.076,-3.076,-3.0839,-3.0898,-3.0898,-3.0898,-3.0898,-3.0898,-3.0898,-3.0898,-3.0898,-3.0898,-3.0898,-3.0898,-3.0898,-3.0898,-3.0898,-3.0898,-3.0898,-3.0898,-3.0898,-3.0898,-3.0898,-3.0898,-3.0898,-3.0898,-3.0898,-3.0898,-3.0898,-3.0898,-3.0898,-0.8414,-0.8754,-0.9342,-1.1703,-1.2594,-1.2792,-1.2413,-1.3411,-1.4644,-1.5398,-1.5974,-1.6592,-1.7322,-1.7646,-1.7952,-1.8378,-1.8809,-1.9246,-1.971,-2.0067,-2.0296,-2.033,-2.0305,-2.0304,-2.0394,-2.1145,-2.164,-2.1698,-2.2508,-2.336,-2.4188,-2.4224,-2.4562,-2.5303,-2.5322,-2.5243,-2.5077,-2.5214,-2.5214,-2.5077,-2.5224,-2.5303,-2.5303,-2.5303,-2.5303,-2.5303,-2.5303,-2.5303,-2.5303,-2.5303,-2.5303,-2.5331,-2.5379,-2.5404,-2.5427,-2.5476,-2.5505,-2.5495,-2.5427,-2.5456,-2.5505,-2.5526,-2.5518,-2.5502,-2.5522,-2.5466,-2.5409,-2.5341,-2.5322,-2.5322,-2.539,-2.5447,-2.5568,-2.5832,-2.658,-2.7156,-2.6955,-2.771,-2.8423,-2.8423,-2.9137,-2.9727,-2.9727,-3.0298,-3.0781,-3.0879,-3.0898,-3.0898,-3.0898,-3.0898,-3.0898,-3.0898,-3.0898,-3.0898,-3.0898,-3.0898,-3.0898,-3.0898,-3.0898,-3.0898,-3.0898,-3.0898,-3.0898,-3.0898,-3.0898,-3.0898,-3.0898,-3.0898,-3.0898,-3.0898,-3.0898,-3.0898,-0.4987,-0.539,-0.6429,-0.8857,-1.0586,-1.1556,-1.1138,-1.2253,-1.357,-1.4222,-1.5009,-1.5811,-1.6583,-1.6926,-1.7164,-1.7453,-1.8337,-1.9004,-1.9043,-1.9803,-2.0344,-2.0345,-2.0351,-2.0363,-2.0402,-2.0788,-2.1007,-2.0939,-2.135,-2.1924,-2.2677,-2.2715,-2.3078,-2.3831,-2.424,-2.4395,-2.4271,-2.4855,-2.5099,-2.501,-2.5203,-2.5303,-2.5303,-2.5303,-2.5303,-2.5303,-2.5303,-2.5303,-2.5303,-2.5303,-2.5322,-2.5351,-2.5395,-2.5415,-2.5459,-2.5443,-2.5447,-2.5447,-2.539,-2.539,-2.5409,-2.5486,-2.5453,-2.541,-2.5485,-2.5428,-2.5341,-2.5303,-2.5303,-2.5303,-2.5341,-2.5409,-2.5453,-2.5492,-2.59,-2.6275,-2.6275,-2.6915,-2.7477,-2.7477,-2.8187,-2.878,-2.8783,-2.9172,-2.9531,-2.9648,-2.9668,-2.9805,-3.0215,-3.0273,-3.0449,-3.0859,-3.0898,-3.0898,-3.0898,-3.0898,-3.0898,-3.0898,-3.0898,-3.0868,-3.0817,-3.0864,-3.0898,-3.0898,-3.0898,-3.0898,-3.0898,-3.0898,-3.0898,-3.0898,-3.0898,-3.0898,-0.0912,-0.1873,-0.3695,-0.5569,-0.7894,-0.9741,-0.9752,-1.1077,-1.2372,-1.256,-1.384,-1.5093,-1.5759,-1.6076,-1.6241,-1.6308,-1.7617,-1.8433,-1.7866,-1.9097,-2.0057,-2.0037,-2.022,-2.034,-2.0312,-2.0321,-2.0248,-2.0047,-2.0055,-2.0345,-2.1053,-2.1091,-2.1469,-2.2262,-2.2962,-2.3288,-2.3294,-2.4157,-2.4591,-2.456,-2.4771,-2.487,-2.487,-2.5024,-2.5168,-2.5303,-2.5303,-2.5303,-2.5303,-2.5303,-2.5322,-2.539,-2.539,-2.5428,-2.5466,-2.5409,-2.539,-2.537,-2.5322,-2.5303,-2.5322,-2.5447,-2.5409,-2.5322,-2.5447,-2.5409,-2.5303,-2.5303,-2.5303,-2.5303,-2.5303,-2.5341,-2.5399,-2.5391,-2.5481,-2.5563,-2.5563,-2.6083,-2.6535,-2.6535,-2.7248,-2.7903,-2.8074,-2.8151,-2.8213,-2.8281,-2.8301,-2.8613,-2.9492,-2.9609,-2.9922,-3.0801,-3.0874,-3.0871,-3.0898,-3.0878,-3.0853,-3.0864,-3.0853,-3.0798,-3.0702,-3.0817,-3.0814,-3.0684,-3.082,-3.082,-3.0684,-3.082,-3.082,-3.0684,-3.082,-3.0897,0.0754,-0.1374,-0.393,-0.4111,-0.6231,-0.8205,-0.7993,-0.9805,-1.1447,-1.1075,-1.287,-1.4598,-1.4986,-1.5083,-1.5392,-1.6249,-1.661,-1.6981,-1.7627,-1.8517,-1.9049,-1.8925,-1.964,-2.0096,-1.9981,-2.0017,-1.9992,-1.9843,-1.9832,-2.021,-2.1053,-2.1091,-2.1469,-2.2262,-2.2395,-2.2457,-2.2469,-2.2768,-2.2893,-2.284,-2.3043,-2.3122,-2.316,-2.3919,-2.463,-2.5303,-2.5303,-2.5303,-2.5303,-2.5303,-2.5303,-2.5303,-2.5303,-2.5322,-2.5322,-2.5322,-2.5303,-2.5303,-2.5303,-2.5303,-2.5303,-2.539,-2.537,-2.5303,-2.539,-2.537,-2.5303,-2.5303,-2.5303,-2.5303,-2.5303,-2.5341,-2.539,-2.5399,-2.5399,-2.5428,-2.5428,-2.5466,-2.5505,-2.5505,-2.6255,-2.7159,-2.7958,-2.8153,-2.8229,-2.8296,-2.8301,-2.8613,-2.9492,-2.9609,-2.9922,-3.0801,-3.0788,-3.0766,-3.0897,-3.0749,-3.0652,-3.0714,-3.0671,-3.0664,-3.0691,-3.0719,-3.0438,-2.9785,-3.0527,-3.0527,-2.9785,-3.0527,-3.0508,-2.9785,-3.0547,-3.0833,0.1786,0.0731,-0.1038,-0.1145,-0.3086,-0.5214,-0.6095,-0.7757,-0.9208,-0.9564,-1.0827,-1.2331,-1.3778,-1.4235,-1.4616,-1.5286,-1.5799,-1.6284,-1.679,-1.795,-1.8723,-1.8655,-1.9409,-1.9741,-1.9216,-1.9609,-1.9647,-1.9063,-1.9432,-1.9806,-2.008,-2.0099,-2.0248,-2.0616,-2.1067,-2.1339,-2.1461,-2.2111,-2.2525,-2.2671,-2.2757,-2.2795,-2.2815,-2.3206,-2.3832,-2.4649,-2.5111,-2.5303,-2.5303,-2.5303,-2.5303,-2.5303,-2.5303,-2.5303,-2.5303,-2.5303,-2.5303,-2.5303,-2.5303,-2.5303,-2.5303,-2.539,-2.5341,-2.5303,-2.539,-2.5341,-2.5303,-2.5303,-2.5303,-2.5303,-2.5303,-2.5322,-2.5341,-2.5341,-2.537,-2.539,-2.5341,-2.5341,-2.537,-2.5409,-2.5707,-2.613,-2.6621,-2.6726,-2.6768,-2.6832,-2.6836,-2.7168,-2.8027,-2.854,-2.9162,-3.0024,-3.044,-3.0665,-3.0723,-3.0652,-3.0603,-3.0645,-3.0645,-3.0656,-3.0652,-3.0283,-2.9911,-2.9551,-2.9962,-2.9746,-2.8867,-2.9258,-2.9474,-2.9551,-2.9946,-3.0307,0.2232,0.255,0.1986,0.1561,-0.0232,-0.2258,-0.3695,-0.525,-0.6637,-0.765,-0.8598,-0.9844,-1.1777,-1.2866,-1.3579,-1.3973,-1.4775,-1.5423,-1.5633,-1.6877,-1.7772,-1.7772,-1.8538,-1.8831,-1.823,-1.876,-1.8838,-1.8081,-1.8562,-1.886,-1.8698,-1.8886,-1.8996,-1.8996,-1.9785,-2.0191,-2.0192,-2.0998,-2.1543,-2.1786,-2.2034,-2.2139,-2.21,-2.2323,-2.2775,-2.3438,-2.4284,-2.4659,-2.4668,-2.4899,-2.5005,-2.5024,-2.5226,-2.5303,-2.5303,-2.5303,-2.5303,-2.5303,-2.5303,-2.5303,-2.5303,-2.537,-2.5341,-2.5303,-2.537,-2.5341,-2.5303,-2.5303,-2.5303,-2.5303,-2.5303,-2.5303,-2.5303,-2.5322,-2.5341,-2.537,-2.5341,-2.539,-2.5428,-2.5486,-2.5466,-2.5486,-2.5582,-2.5605,-2.5632,-2.5681,-2.5703,-2.6014,-2.6854,-2.7493,-2.8269,-2.9356,-2.9949,-3.0341,-3.0587,-3.0577,-3.0565,-3.0575,-3.039,-3.029,-3.0278,-2.9592,-2.9107,-2.8841,-2.8893,-2.8591,-2.7945,-2.8159,-2.8462,-2.881,-2.9275,-2.9757,0.19,0.3216,0.4036,0.3182,0.1557,0.0036,-0.0458,-0.2236,-0.4062,-0.5077,-0.6501,-0.7751,-0.8511,-1.0491,-1.2122,-1.2453,-1.3246,-1.3917,-1.4172,-1.494,-1.5497,-1.5565,-1.6431,-1.7019,-1.7004,-1.7207,-1.7231,-1.699,-1.7014,-1.705,-1.7037,-1.7752,-1.817,-1.817,-1.8941,-1.9081,-1.8522,-1.8829,-1.8981,-1.9018,-1.9964,-2.0323,-2.018,-2.1003,-2.1396,-2.1509,-2.2502,-2.2917,-2.2985,-2.3823,-2.4159,-2.4236,-2.5005,-2.5303,-2.5303,-2.5303,-2.5303,-2.5303,-2.5303,-2.5303,-2.5303,-2.5303,-2.5303,-2.5303,-2.5303,-2.5303,-2.5303,-2.5303,-2.5303,-2.5303,-2.5303,-2.5303,-2.5322,-2.539,-2.5341,-2.5341,-2.5466,-2.5447,-2.5428,-2.5486,-2.5543,-2.5582,-2.5601,-2.5654,-2.5703,-2.5703,-2.5703,-2.5996,-2.6809,-2.694,-2.7603,-2.9221,-2.9333,-2.9624,-3.0525,-3.0479,-3.0441,-3.0506,-2.966,-2.9236,-2.937,-2.8611,-2.7826,-2.7046,-2.7036,-2.7026,-2.6968,-2.7798,-2.7776,-2.6981,-2.8637,-2.936,0.108,0.2326,0.3147,0.3761,0.2851,0.1653,0.1168,-0.0463,-0.2166,-0.3267,-0.4648,-0.5783,-0.6209,-0.8412,-1.0299,-1.072,-1.1676,-1.2491,-1.284,-1.4085,-1.5044,-1.5181,-1.6019,-1.6352,-1.58,-1.632,-1.6425,-1.5782,-1.6334,-1.6718,-1.6718,-1.7091,-1.733,-1.733,-1.7605,-1.7715,-1.7639,-1.7802,-1.7899,-1.7918,-1.8793,-1.9162,-1.9131,-1.9952,-2.0372,-2.0487,-2.0862,-2.1702,-2.2812,-2.313,-2.3592,-2.413,-2.4408,-2.4851,-2.5303,-2.5303,-2.5303,-2.5303,-2.5303,-2.5303,-2.5303,-2.5303,-2.5303,-2.5303,-2.5303,-2.5303,-2.5303,-2.5303,-2.5303,-2.5303,-2.5303,-2.5303,-2.5313,-2.5379,-2.5387,-2.5409,-2.5543,-2.5514,-2.5498,-2.5601,-2.5601,-2.5605,-2.5667,-2.5659,-2.5641,-2.5641,-2.56,-2.5679,-2.5952,-2.6455,-2.7005,-2.7599,-2.8091,-2.8486,-2.8832,-2.8813,-2.8813,-2.8832,-2.8552,-2.8433,-2.8461,-2.7693,-2.7126,-2.6845,-2.6301,-2.6002,-2.5997,-2.632,-2.6554,-2.6751,-2.7382,-2.7918,-0.0433,0.0914,0.1998,0.3747,0.3661,0.2996,0.2534,0.1458,0.0066,-0.1669,-0.2851,-0.3838,-0.4781,-0.6425,-0.7933,-0.8848,-1.0014,-1.102,-1.1661,-1.284,-1.382,-1.4308,-1.4945,-1.5148,-1.4614,-1.5168,-1.5323,-1.474,-1.5321,-1.5681,-1.5681,-1.6141,-1.6543,-1.689,-1.6633,-1.6564,-1.6699,-1.683,-1.6894,-1.6913,-1.7783,-1.8174,-1.8155,-1.9002,-1.9461,-1.9557,-1.9859,-2.0756,-2.1985,-2.2244,-2.2697,-2.3294,-2.3861,-2.4428,-2.4928,-2.5187,-2.5303,-2.5303,-2.5303,-2.5303,-2.5303,-2.5303,-2.5303,-2.5303,-2.5303,-2.5303,-2.5303,-2.5303,-2.5303,-2.5303,-2.5303,-2.5322,-2.5332,-2.536,-2.5406,-2.5438,-2.5522,-2.5526,-2.5562,-2.5648,-2.5659,-2.5638,-2.5625,-2.5609,-2.5582,-2.5563,-2.5522,-2.5493,-2.5473,-2.5925,-2.6379,-2.6649,-2.714,-2.7582,-2.7871,-2.789,-2.789,-2.789,-2.7668,-2.7533,-2.7554,-2.6765,-2.6333,-2.6333,-2.5771,-2.5473,-2.5434,-2.5473,-2.5726,-2.6245,-2.6533,-2.711,0.0,0.0,0.0,0.3086,0.392,0.4118,0.3846,0.3647,0.2717,-0.0164,-0.102,-0.1918,-0.4211,-0.456,-0.5043,-0.6809,-0.8236,-0.9517,-1.0625,-1.1067,-1.1655,-1.2713,-1.3108,-1.3327,-1.3465,-1.3731,-1.3885,-1.3885,-1.3899,-1.3881,-1.3864,-1.4805,-1.5778,-1.6785,-1.6078,-1.5655,-1.5655,-1.5796,-1.5855,-1.5873,-1.687,-1.7283,-1.7202,-1.8132,-1.8577,-1.8658,-1.9573,-2.0096,-2.0369,-2.1143,-2.1479,-2.1671,-2.3368,-2.4052,-2.4187,-2.4986,-2.5284,-2.5303,-2.5303,-2.5303,-2.5303,-2.5303,-2.5303,-2.5303,-2.5303,-2.5303,-2.5303,-2.5303,-2.5303,-2.5303,-2.5303,-2.5341,-2.539,-2.5322,-2.5409,-2.5475,-2.542,-2.5498,-2.5601,-2.5592,-2.5654,-2.5658,-2.5511,-2.5546,-2.5563,-2.5505,-2.5505,-2.5466,-2.5409,-2.5409,-2.5697,-2.6486,-2.6563,-2.6909,-2.7755,-2.7813,-2.7813,-2.7813,-2.7024,-2.6591,-2.6668,-2.5841,-2.5409,-2.5409,-2.5409,-2.537,-2.5303,-2.537,-2.537,-2.5322,-2.6178,-2.7005,-0.4392,0.0,0.0,0.0,0.0,0.0,0.5094,0.5048,0.4323,0.2562,0.1183,-0.0426,-0.2804,-0.3661,-0.41,-0.4457,-0.6181,-0.7637,-0.8166,-0.9503,-1.0688,-1.1356,-1.2196,-1.2827,-1.3124,-1.3379,-1.3543,-1.3543,-1.3634,-1.345,-1.2924,-1.3421,-1.4101,-1.4917,-1.4879,-1.4829,-1.4829,-1.4876,-1.488,-1.4899,-1.5757,-1.6195,-1.6296,-1.7139,-1.7962,-1.8766,-1.9028,-1.9571,-2.0331,-2.0542,-2.0962,-2.1556,-2.2023,-2.2985,-2.4129,-2.436,-2.4793,-2.5303,-2.5303,-2.5303,-2.5303,-2.5303,-2.5303,-2.5303,-2.5303,-2.5303,-2.5303,-2.5303,-2.5303,-2.5303,-2.5303,-2.5303,-2.5322,-2.5303,-2.537,-2.5418,-2.5407,-2.5476,-2.5523,-2.5518,-2.5538,-2.5544,-2.5517,-2.5488,-2.5447,-2.5428,-2.539,-2.5341,-2.5322,-2.5322,-2.5399,-2.563,-2.5649,-2.5774,-2.6005,-2.6024,-2.6024,-2.6024,-2.5793,-2.5668,-2.5687,-2.5457,-2.5322,-2.5322,-2.5322,-2.5322,-2.5303,-2.5322,-2.5322,-2.5303,-2.5553,-2.5793,-0.6394,-0.4886,-0.3147,-0.1012,0.0,0.0,0.4193,0.5138,0.5432,0.4098,0.2639,0.0952,-0.1173,-0.2203,-0.274,-0.2852,-0.4315,-0.5758,-0.673,-0.793,-0.9043,-0.9946,-1.0698,-1.1275,-1.1661,-1.1956,-1.2174,-1.2337,-1.2429,-1.2361,-1.2054,-1.256,-1.2968,-1.3239,-1.3901,-1.3987,-1.3424,-1.4058,-1.4222,-1.3929,-1.4787,-1.5242,-1.5341,-1.6206,-1.6987,-1.7726,-1.8465,-1.9167,-1.9792,-2.0158,-2.0589,-2.1039,-2.137,-2.2111,-2.3071,-2.3417,-2.3851,-2.4255,-2.4255,-2.4255,-2.4255,-2.4255,-2.4255,-2.4332,-2.4697,-2.4793,-2.487,-2.5207,-2.5303,-2.5303,-2.5303,-2.5303,-2.5303,-2.5303,-2.5322,-2.537,-2.537,-2.539,-2.5408,-2.5444,-2.549,-2.5475,-2.5432,-2.5404,-2.539,-2.537,-2.5322,-2.5303,-2.5303,-2.5303,-2.5303,-2.5303,-2.5303,-2.5303,-2.5303,-2.5303,-2.5303,-2.5303,-2.5303,-2.5303,-2.5303,-2.5303,-2.5303,-2.5303,-2.5303,-2.5303,-2.5303,-2.5303,-2.5303,-2.5303,-2.5303,-2.5303,-0.845,-0.7332,-0.5916,-0.4164,-0.1209,0.0,0.2047,0.4141,0.5647,0.4684,0.3547,0.2202,0.0593,-0.0381,-0.1161,-0.172,-0.2631,-0.3927,-0.5859,-0.6412,-0.7151,-0.8569,-0.9039,-0.9432,-0.9935,-1.0208,-1.0511,-1.0875,-1.0804,-1.0913,-1.1291,-1.1892,-1.2074,-1.1823,-1.2987,-1.3071,-1.1895,-1.3257,-1.3666,-1.3109,-1.3959,-1.4407,-1.454,-1.5391,-1.5882,-1.6186,-1.7803,-1.868,-1.902,-1.9799,-2.0192,-2.0369,-2.11,-2.1427,-2.16,-2.237,-2.2716,-2.2793,-2.2793,-2.2793,-2.2793,-2.2793,-2.2793,-2.2928,-2.3725,-2.4014,-2.4264,-2.5082,-2.5303,-2.5303,-2.5303,-2.5303,-2.5303,-2.5303,-2.5303,-2.5303,-2.5303,-2.5303,-2.5322,-2.539,-2.5447,-2.5447,-2.5322,-2.5341,-2.537,-2.5303,-2.5303,-2.5303,-2.5303,-2.5303,-2.5303,-2.5303,-2.5303,-2.5303,-2.5303,-2.5303,-2.5303,-2.5303,-2.5303,-2.5303,-2.5303,-2.5274,-2.5264,-2.5264,-2.5264,-2.5274,-2.5303,-2.5303,-2.5303,-2.5303,-2.5303,-2.5303,-0.9963,-0.9276,-0.7933,-0.561,-0.4244,0.0,0.0808,0.2006,0.29,0.466,0.4112,0.3072,0.2311,0.1257,0.0225,-0.058,-0.123,-0.2327,-0.4277,-0.5093,-0.6082,-0.7596,-0.8803,-0.9794,-1.0479,-1.0653,-1.0804,-1.1053,-1.0255,-1.0065,-1.0711,-1.0469,-1.0638,-1.1317,-1.1694,-1.1848,-1.1739,-1.2133,-1.2604,-1.3109,-1.3391,-1.3932,-1.4666,-1.4846,-1.5357,-1.612,-1.6469,-1.7397,-1.8687,-1.8858,-1.9468,-2.0331,-2.0465,-2.0927,-2.1523,-2.1696,-2.2197,-2.2793,-2.2793,-2.2793,-2.2793,-2.2793,-2.2793,-2.2831,-2.3004,-2.3552,-2.4264,-2.5082,-2.5303,-2.5303,-2.5303,-2.5303,-2.5303,-2.5303,-2.5303,-2.5303,-2.5303,-2.5303,-2.5303,-2.5322,-2.5322,-2.5322,-2.5303,-2.5303,-2.5322,-2.5303,-2.5303,-2.5303,-2.5303,-2.5303,-2.5303,-2.5303,-2.5303,-2.5303,-2.5303,-2.5303,-2.5303,-2.5303,-2.5303,-2.5303,-2.5303,-2.5152,-2.5065,-2.5065,-2.5065,-2.5141,-2.5303,-2.5303,-2.5303,-2.5303,-2.5303,-2.5303,-1.0893,-1.082,-1.0325,-0.8745,-0.7286,0.0,0.0,-0.2055,-0.0943,0.0111,0.0403,0.0356,-0.0031,0.0525,0.1071,0.1136,-0.0186,-0.1555,-0.2557,-0.4008,-0.5258,-0.6153,-0.7066,-0.7911,-0.8737,-0.8834,-0.9131,-0.9802,-0.9163,-0.9049,-0.9718,-0.9597,-0.9626,-0.9899,-1.0696,-1.0861,-1.0267,-1.1176,-1.1687,-1.1812,-1.275,-1.3471,-1.4021,-1.4418,-1.4892,-1.5414,-1.5837,-1.6516,-1.7387,-1.7831,-1.8612,-1.9594,-1.9988,-2.0455,-2.0908,-2.0908,-2.1177,-2.1543,-2.1543,-2.1543,-2.1543,-2.1543,-2.1543,-2.1639,-2.2023,-2.2754,-2.3629,-2.4466,-2.4697,-2.4793,-2.5187,-2.5303,-2.5303,-2.5303,-2.5303,-2.5303,-2.5303,-2.5303,-2.5303,-2.5303,-2.5303,-2.5303,-2.5303,-2.5303,-2.5303,-2.5303,-2.5303,-2.5303,-2.5303,-2.5303,-2.5303,-2.5303,-2.5303,-2.5303,-2.5303,-2.5303,-2.5264,-2.5152,-2.5234,-2.5233,-2.5068,-2.503,-2.4974,-2.4904,-2.4962,-2.5046,-2.5152,-2.5253,-2.5303,-2.5303,-2.5303,-2.5303,-1.1806,-1.2156,-1.2257,-1.1469,-0.9931,-0.8406,0.0,0.0,0.0,-0.472,-0.3811,-0.3038,-0.3032,-0.1187,0.0681,0.1718,0.0278,-0.1143,-0.1642,-0.3322,-0.4598,-0.4933,-0.5337,-0.5898,-0.666,-0.6772,-0.7247,-0.8319,-0.8055,-0.8075,-0.8592,-0.8785,-0.8739,-0.8456,-0.9658,-0.9818,-0.8801,-1.019,-1.0767,-1.0521,-1.1953,-1.2862,-1.3317,-1.3967,-1.4441,-1.4744,-1.5388,-1.5826,-1.6149,-1.6867,-1.77,-1.8618,-1.9268,-1.9856,-2.0292,-2.0111,-2.015,-2.0312,-2.0312,-2.0312,-2.0312,-2.0312,-2.0312,-2.0446,-2.1254,-2.21,-2.2985,-2.386,-2.4206,-2.4485,-2.5139,-2.5274,-2.5234,-2.5234,-2.5214,-2.5192,-2.5192,-2.5192,-2.5222,-2.5243,-2.5234,-2.5253,-2.5284,-2.5303,-2.5303,-2.5303,-2.5303,-2.5303,-2.5303,-2.5303,-2.5303,-2.5303,-2.5303,-2.5274,-2.5253,-2.5234,-2.5152,-2.4974,-2.5107,-2.5084,-2.4842,-2.4937,-2.4949,-2.4842,-2.4937,-2.5022,-2.5065,-2.5214,-2.5303,-2.5303,-2.5303,-2.5303,-1.321,-1.3287,-1.2639,-1.1498,-1.1542,-1.1192,-0.8677,0.0,-0.7767,-0.5498,0.0,-0.4409,-0.366,0.0,0.0,-0.1208,-0.0527,-0.0876,-0.2961,-0.3473,-0.3933,-0.4717,-0.5264,-0.5725,-0.6082,-0.6319,-0.6771,-0.7564,-0.7425,-0.7402,-0.7645,-0.7674,-0.7741,-0.7897,-0.8061,-0.8328,-0.87,-0.897,-0.9565,-1.0504,-1.0823,-1.1796,-1.3298,-1.339,-1.3898,-1.4707,-1.48,-1.5319,-1.6111,-1.6215,-1.68,-1.7659,-1.7818,-1.8869,-2.0215,-1.9439,-1.9631,-2.0312,-2.0312,-2.0312,-2.0312,-2.0312,-2.0312,-2.0446,-2.1254,-2.21,-2.2985,-2.386,-2.4601,-2.5168,-2.5284,-2.5163,-2.5034,-2.5034,-2.4943,-2.4861,-2.4861,-2.4861,-2.4896,-2.501,-2.5034,-2.5088,-2.5264,-2.5303,-2.5303,-2.5303,-2.5303,-2.5303,-2.5303,-2.5303,-2.5303,-2.5303,-2.5303,-2.5224,-2.5046,-2.5034,-2.4962,-2.4828,-2.4828,-2.4896,-2.4974,-2.4998,-2.4998,-2.4986,-2.4998,-2.5088,-2.5264,-2.5303,-2.5303,-2.5303,-2.5303,-2.5303,-1.2973,-1.2599,-1.2058,-1.2023,-1.2033,-1.1943,-1.1495,-1.1385,-1.1065,-0.9919,0.0,0.0,0.0,0.0,0.0,0.0,-0.3615,-0.3029,-0.3544,-0.4264,-0.4564,-0.4115,-0.457,-0.4796,-0.4557,-0.5462,-0.6282,-0.6827,-0.6723,-0.6899,-0.7577,-0.7075,-0.7012,-0.7608,-0.7476,-0.765,-0.8171,-0.8395,-0.8856,-0.9518,-1.0242,-1.1005,-1.1824,-1.2845,-1.3514,-1.3908,-1.4378,-1.4842,-1.5281,-1.52,-1.577,-1.6648,-1.612,-1.7063,-1.8745,-1.8772,-1.8992,-1.9383,-1.9944,-2.0124,-2.0152,-2.0249,-2.0312,-2.0369,-2.0696,-2.1062,-2.1523,-2.235,-2.3197,-2.3947,-2.4328,-2.4702,-2.4986,-2.4904,-2.4842,-2.4804,-2.4804,-2.4869,-2.4924,-2.4998,-2.5099,-2.5163,-2.5122,-2.5141,-2.5163,-2.5274,-2.5138,-2.5037,-2.513,-2.5061,-2.5019,-2.5019,-2.5019,-2.4975,-2.4891,-2.4877,-2.4814,-2.4639,-2.4623,-2.4741,-2.4998,-2.493,-2.4877,-2.4877,-2.4962,-2.5034,-2.5141,-2.5234,-2.5303,-2.5303,-2.5303,-2.5303,-1.2707,-1.1991,-1.1437,-1.2127,-1.2138,-1.2171,-1.2966,-1.3349,-1.3405,-1.3006,-1.1813,0.0,0.0,0.0,-0.8054,-0.7624,0.0,-0.5361,-0.4076,-0.4384,-0.428,-0.3061,-0.3344,-0.3557,-0.3368,-0.4529,-0.5519,-0.6098,-0.6041,-0.635,-0.7136,-0.6489,-0.641,-0.7127,-0.6951,-0.7088,-0.7592,-0.7918,-0.8284,-0.8728,-0.9609,-1.028,-1.0738,-1.2016,-1.2866,-1.3397,-1.3977,-1.4421,-1.4747,-1.4645,-1.5063,-1.5705,-1.4991,-1.5555,-1.6902,-1.7652,-1.8208,-1.869,-1.9381,-1.9763,-1.9973,-2.0116,-2.018,-2.0225,-2.0225,-2.0378,-2.0704,-2.128,-2.2182,-2.3091,-2.3591,-2.429,-2.4831,-2.4727,-2.467,-2.4639,-2.4639,-2.4708,-2.4804,-2.4858,-2.4981,-2.5061,-2.4949,-2.4974,-2.5053,-2.5149,-2.4968,-2.4828,-2.4924,-2.4869,-2.4804,-2.4804,-2.4804,-2.4775,-2.4731,-2.4716,-2.4654,-2.4512,-2.4591,-2.4752,-2.4998,-2.4956,-2.4942,-2.4942,-2.503,-2.5088,-2.5088,-2.5224,-2.5303,-2.5303,-2.5303,-2.5303,-1.2887,-1.2067,-1.1007,-1.1429,-1.1967,-1.2281,-1.1859,-1.3204,-1.4198,-1.296,-1.3261,-1.3481,-1.2567,-1.213,-1.1334,-0.953,-0.8592,0.0,0.0,-0.334,-0.2283,-0.1474,-0.157,-0.2042,-0.2944,-0.3646,-0.4449,-0.5377,-0.5503,-0.561,-0.5861,-0.5823,-0.5934,-0.6233,-0.6221,-0.6505,-0.7128,-0.74,-0.786,-0.8512,-0.8756,-0.9502,-1.0692,-1.0756,-1.1764,-1.3495,-1.3514,-1.4045,-1.4895,-1.4895,-1.4914,-1.4914,-1.4756,-1.4736,-1.4905,-1.5829,-1.7216,-1.8604,-1.8623,-1.9152,-1.9821,-1.9802,-1.9901,-2.0012,-2.0012,-2.0604,-2.1271,-2.129,-2.2353,-2.3491,-2.3496,-2.4013,-2.451,-2.4512,-2.4357,-2.4209,-2.4209,-2.4228,-2.4284,-2.4478,-2.4528,-2.4575,-2.4775,-2.4917,-2.4949,-2.4828,-2.4804,-2.4804,-2.4804,-2.4804,-2.4804,-2.4804,-2.4804,-2.4716,-2.4528,-2.4512,-2.4512,-2.4495,-2.4804,-2.4998,-2.501,-2.5173,-2.5274,-2.5274,-2.5303,-2.5284,-2.5284,-2.5303,-2.5303,-2.5303,-2.5303,-2.5303,-1.0951,-0.9929,-0.9036,-0.9524,-0.9662,-0.9886,-1.0655,-1.1179,-1.1628,-1.2135,-1.1992,-1.1926,-1.2406,-1.2215,-1.1483,-1.0002,-0.9436,-0.8232,0.0,-0.2869,-0.09,0.0055,-0.0381,-0.1367,-0.2902,-0.3543,-0.4009,-0.4318,-0.499,-0.5446,-0.5598,-0.5519,-0.5436,-0.5344,-0.5202,-0.541,-0.5977,-0.6502,-0.7179,-0.798,-0.8404,-0.9013,-0.9787,-1.0429,-1.1095,-1.1837,-1.2909,-1.3597,-1.3999,-1.4443,-1.4687,-1.4756,-1.4614,-1.4578,-1.467,-1.5514,-1.6186,-1.6841,-1.8048,-1.9042,-1.979,-1.979,-1.9824,-1.9869,-1.9869,-2.0077,-2.0304,-2.0304,-2.1077,-2.1997,-2.2397,-2.3108,-2.381,-2.421,-2.4247,-2.419,-2.419,-2.4303,-2.4428,-2.4495,-2.4607,-2.462,-2.4332,-2.4312,-2.4428,-2.4756,-2.4559,-2.4444,-2.4575,-2.4478,-2.441,-2.441,-2.441,-2.4375,-2.4303,-2.4409,-2.4561,-2.4685,-2.4885,-2.5046,-2.5184,-2.5264,-2.5303,-2.5303,-2.5303,-2.5303,-2.5303,-2.5303,-2.5303,-2.5303,-2.5303,-2.5303,-0.9764,-0.8744,-0.7999,-0.8564,-0.8703,-0.8977,-1.0018,-1.0458,-1.0847,-1.1577,-1.1781,-1.1937,-1.2234,-1.2356,-1.1905,-1.038,-1.0012,-0.8937,0.0,-0.3486,-0.1331,0.0066,-0.0101,-0.1071,-0.295,-0.3429,-0.366,-0.3806,-0.3861,-0.366,-0.3151,-0.3336,-0.3505,-0.3532,-0.3723,-0.4165,-0.4924,-0.5584,-0.6349,-0.7254,-0.7894,-0.85,-0.9036,-0.9789,-1.0383,-1.0895,-1.1927,-1.2786,-1.3466,-1.39,-1.4279,-1.4614,-1.4533,-1.4488,-1.4561,-1.5086,-1.5637,-1.6292,-1.7453,-1.8646,-1.9582,-1.9282,-1.9432,-1.9726,-1.9726,-1.9726,-1.9726,-1.9726,-2.0289,-2.0989,-2.1368,-2.2337,-2.3283,-2.3676,-2.3988,-2.417,-2.4054,-2.4229,-2.4321,-2.408,-2.4247,-2.4264,-2.3792,-2.371,-2.3832,-2.4191,-2.4099,-2.4057,-2.4192,-2.421,-2.419,-2.419,-2.419,-2.4228,-2.4303,-2.4524,-2.4723,-2.485,-2.5018,-2.5122,-2.5203,-2.5264,-2.5264,-2.5184,-2.5184,-2.5184,-2.5184,-2.5149,-2.5126,-2.5126,-2.5126,-2.5126]}]]